[[{"header":{"parameterUnit":"m.s-1","parameterCategory":1,"la1":30.6,"la2":28.766,"lo1":-90.7593,"lo2":-88.6598,"dy":0.0162,"dx":0.0183,"nx":116,"ny":114,"refTime":"2023-11-20T06:00:00:Z","depth":0,"parameterNumber":2,"parameterNumberName":"U-component_of_WINDS"},"data":[0.0,0.0,0.0,0.0,0.0,0.0,0.0,0.0,0.0,0.0,0.0,0.0,0.0,0.0,0.0,0.0,0.0,0.0,0.0,0.0,0.0,0.0,0.0,0.0,0.0,0.0,0.0,0.0,0.0,0.0,0.0,0.0,0.0,0.0,0.0,0.0,0.0,0.0,0.0,0.0,0.0,0.0,0.0,0.0,0.0,0.0,0.0,0.0,0.0,0.0,0.0,0.0,0.0,0.0,0.0,0.0,0.0,0.0,0.0,0.0,0.0,0.0,0.0,0.0,0.0,0.0,0.0,0.0,0.0,0.0,0.0,0.0,0.0,0.0,0.0,0.0,0.0,0.0,0.0,0.0,0.0,0.0,0.0,0.0,0.0,0.0,0.0,0.0,0.0,0.0,0.0,0.0,0.0,0.0,0.0,0.0,0.0,0.0,0.0,0.0,0.0,0.0,0.0,0.0,0.0,0.0,0.0,0.0,0.0,0.0,0.0,0.0,0.0,0.0,0.0,0.0,0.0,0.0,0.0,0.0,0.0,0.0,0.0,0.0,0.0,0.0,0.0,0.0,0.0,0.0,0.0,0.0,0.0,0.0,0.0,0.0,0.0,0.0,0.0,0.0,0.0,0.0,0.0,0.0,0.0,0.0,0.0,0.0,0.0,0.0,0.0,0.0,0.0,0.0,0.0,0.0,0.0,0.0,0.0,0.0,0.0,0.0,0.0,0.0,0.0,0.0,0.0,0.0,0.0,0.0,0.0,0.0,0.0,0.0,0.0,0.0,0.0,0.0,0.0,0.0,0.0,0.0,0.0,0.0,0.0,0.0,0.0,0.0,0.0,0.0,0.0,0.0,0.0,0.0,0.0,0.0,0.0,0.0,0.0,0.0,0.0,0.0,0.0,0.0,0.0,0.0,0.0,0.0,0.0,0.0,0.0,0.0,0.0,0.0,0.0,0.0,0.0,0.0,0.0,0.0,0.0,0.0,0.0,0.0,0.0,0.0,0.0,0.0,0.0,0.0,0.0,0.0,0.0,0.0,0.0,0.0,0.0,0.0,0.0,0.0,0.0,0.0,0.0,0.0,0.0,0.0,0.0,0.0,0.0,0.0,0.0,0.0,0.0,0.0,0.0,0.0,0.0,0.0,0.0,0.0,0.0,0.0,0.0,0.0,0.0,0.0,0.0,0.0,0.0,0.0,0.0,0.0,0.0,0.0,0.0,0.0,0.0,0.0,0.0,0.0,0.0,0.0,0.0,0.0,0.0,0.0,0.0,0.0,0.0,0.0,0.0,0.0,0.0,0.0,0.0,0.0,0.0,0.0,0.0,0.0,0.0,0.0,0.0,0.0,0.0,0.0,0.0,0.0,0.0,0.0,0.0,0.0,0.0,0.0,0.0,0.0,0.0,0.0,0.0,0.0,0.0,0.0,0.0,0.0,0.0,0.0,0.0,0.0,0.0,0.0,0.0,0.0,0.0,0.0,0.0,0.0,0.0,0.0,0.0,0.0,0.0,0.0,0.0,0.0,0.0,0.0,0.0,0.0,0.0,0.0,0.0,0.0,0.0,0.0,0.0,0.0,0.0,0.0,0.0,0.0,0.0,0.0,0.0,0.0,0.0,0.0,0.0,0.0,0.0,0.0,0.0,0.0,0.0,0.0,0.0,0.0,0.0,0.0,0.0,0.0,0.0,0.0,0.0,0.0,0.0,0.0,0.0,0.0,0.0,0.0,0.0,0.0,0.0,0.0,0.0,0.0,0.0,0.0,0.0,0.0,0.0,0.0,0.0,0.0,0.0,0.0,0.0,0.0,0.0,0.0,0.0,0.0,0.0,0.0,0.0,0.0,0.0,0.0,0.0,0.0,0.0,0.0,0.0,0.0,0.0,0.0,0.0,0.0,0.0,0.0,0.0,0.0,0.0,0.0,0.0,0.0,0.0,0.0,0.0,0.0,0.0,0.0,0.0,0.0,0.0,0.0,0.0,0.0,0.0,0.0,0.0,0.0,0.0,0.0,0.0,0.0,0.0,0.0,0.0,0.0,0.0,0.0,0.0,0.0,0.0,0.0,0.0,0.0,0.0,0.0,0.0,0.0,0.0,0.0,0.0,0.0,0.0,0.0,0.0,0.0,0.0,0.0,0.0,0.0,0.0,0.0,0.0,0.0,0.0,0.0,0.0,0.0,0.0,0.0,0.0,0.0,0.0,0.0,0.0,0.0,0.0,0.0,0.0,0.0,0.0,0.0,0.0,0.0,0.0,0.0,0.0,0.0,0.0,0.0,0.0,0.0,0.0,0.0,0.0,0.0,0.0,0.0,0.0,0.0,0.0,0.0,0.0,0.0,0.0,0.0,0.0,0.0,0.0,0.0,0.0,0.0,0.0,0.0,0.0,0.0,0.0,0.0,0.0,0.0,0.0,0.0,0.0,0.0,0.0,0.0,0.0,0.0,0.0,0.0,0.0,0.0,0.0,0.0,0.0,0.0,0.0,0.0,0.0,0.0,0.0,0.0,0.0,0.0,0.0,0.0,0.0,0.0,0.0,0.0,0.0,0.0,0.0,0.0,0.0,0.0,0.0,0.0,0.0,0.0,0.0,0.0,0.0,0.0,0.0,0.0,0.0,0.0,0.0,0.0,0.0,0.0,0.0,0.0,0.0,0.0,0.0,0.0,0.0,0.0,0.0,0.0,0.0,0.0,0.0,0.0,0.0,0.0,0.0,0.0,0.0,0.0,0.0,0.0,0.0,0.0,0.0,0.0,0.0,0.0,0.0,0.0,0.0,0.0,0.0,0.0,0.0,0.0,0.0,0.0,0.0,0.0,0.0,0.0,0.0,0.0,0.0,0.0,0.0,0.0,0.0,0.0,0.0,0.0,0.0,0.0,0.0,0.0,0.0,0.0,0.0,0.0,0.0,0.0,0.0,0.0,0.0,0.0,0.0,0.0,0.0,0.0,0.0,0.0,0.0,0.0,0.0,0.0,0.0,0.0,0.0,0.0,0.0,0.0,0.0,0.0,0.0,0.0,0.0,0.0,0.0,0.0,0.0,0.0,0.0,0.0,0.0,0.0,0.0,0.0,0.0,0.0,0.0,0.0,0.0,0.0,0.0,0.0,0.0,0.0,0.0,0.0,0.0,0.0,0.0,0.0,0.0,0.0,0.0,0.0,0.0,0.0,0.0,0.0,0.0,0.0,0.0,0.0,0.0,0.0,0.0,0.0,0.0,0.0,0.0,0.0,0.0,0.0,0.0,0.0,0.0,0.0,0.0,0.0,0.0,0.0,0.0,0.0,0.0,0.0,0.0,0.0,0.0,0.0,0.0,0.0,0.0,0.0,0.0,0.0,0.0,0.0,0.0,0.0,0.0,0.0,0.0,0.0,0.0,0.0,0.0,0.0,0.0,0.0,0.0,0.0,0.0,0.0,0.0,0.0,0.0,0.0,0.0,0.0,0.0,0.0,0.0,0.0,0.0,0.0,0.0,0.0,0.0,0.0,0.0,0.0,0.0,0.0,0.0,0.0,0.0,0.0,0.0,0.0,0.0,0.0,0.0,0.0,0.0,0.0,0.0,0.0,0.0,0.0,0.0,0.0,0.0,0.0,0.0,0.0,0.0,0.0,0.0,0.0,0.0,0.0,0.0,0.0,0.0,0.0,0.0,0.0,0.0,0.0,0.0,0.0,0.0,0.0,0.0,0.0,0.0,0.0,0.0,0.0,0.0,0.0,0.0,0.0,0.0,0.0,0.0,0.0,0.0,0.0,0.0,0.0,0.0,0.0,0.0,0.0,0.0,0.0,0.0,0.0,0.0,0.0,0.0,0.0,0.0,0.0,0.0,0.0,0.0,0.0,0.0,0.0,0.0,0.0,0.0,0.0,0.0,0.0,0.0,0.0,0.0,0.0,0.0,0.0,0.0,0.0,0.0,0.0,0.0,0.0,0.0,0.0,0.0,0.0,0.0,0.0,0.0,0.0,0.0,0.0,0.0,0.0,0.0,0.0,0.0,0.0,0.0,0.0,0.0,0.0,0.0,0.0,0.0,0.0,0.0,0.0,0.0,0.0,0.0,0.0,0.0,0.0,0.0,0.0,0.0,0.0,0.0,0.0,0.0,0.0,0.0,0.0,0.0,0.0,0.0,0.0,0.0,0.0,0.0,0.0,0.0,0.0,0.0,0.0,0.0,0.0,0.0,0.0,0.0,0.0,0.0,0.0,0.0,0.0,0.0,0.0,0.0,0.0,0.0,0.0,0.0,0.0,0.0,0.0,0.0,0.0,0.0,0.0,0.0,0.0,0.0,0.0,0.0,0.0,0.0,0.0,0.0,0.0,0.0,0.0,0.0,0.0,0.0,0.0,0.0,0.0,0.0,0.0,0.0,0.0,0.0,0.0,0.0,0.0,0.0,0.0,0.0,0.0,0.0,0.0,0.0,0.0,0.0,0.0,0.0,0.0,0.0,0.0,0.0,0.0,0.0,0.0,0.0,0.0,0.0,0.0,0.0,0.0,0.0,0.0,0.0,0.0,0.0,0.0,0.0,0.0,0.0,0.0,0.0,0.0,0.0,0.0,0.0,0.0,0.0,0.0,0.0,0.0,0.0,0.0,0.0,0.0,0.0,0.0,0.0,0.0,0.0,0.0,0.0,0.0,0.0,0.0,0.0,0.0,0.0,0.0,0.0,0.0,0.0,0.0,0.0,0.0,0.0,0.0,0.0,0.0,0.0,0.0,0.0,0.0,0.0,0.0,0.0,0.0,0.0,0.0,0.0,0.0,0.0,0.0,0.0,0.0,0.0,0.0,0.0,0.0,0.0,0.0,0.0,0.0,0.0,0.0,0.0,0.0,0.0,0.0,0.0,0.0,0.0,0.0,0.0,0.0,0.0,0.0,0.0,0.0,0.0,0.0,0.0,0.0,0.0,0.0,0.0,0.0,0.0,0.0,0.0,0.0,0.0,0.0,0.0,0.0,0.0,0.0,0.0,0.0,0.0,0.0,0.0,0.0,0.0,0.0,0.0,0.0,0.0,0.0,0.0,0.0,0.0,0.0,0.0,0.0,0.0,0.0,0.0,0.0,0.0,0.0,0.0,0.0,0.0,0.0,0.0,0.0,0.0,0.0,0.0,0.0,0.0,0.0,0.0,0.0,0.0,0.0,0.0,0.0,0.0,0.0,0.0,0.0,0.0,0.0,0.0,0.0,0.0,0.0,0.0,0.0,0.0,0.0,0.0,0.0,0.0,0.0,0.0,0.0,0.0,0.0,0.0,0.0,0.0,0.0,0.0,0.0,0.0,0.0,0.0,0.0,0.0,0.0,0.0,0.0,0.0,0.0,0.0,0.0,0.0,0.0,0.0,0.0,0.0,0.0,0.0,0.0,0.0,0.0,0.0,0.0,0.0,0.0,0.0,0.0,0.0,0.0,0.0,0.0,0.0,0.0,0.0,0.0,0.0,0.0,0.0,0.0,0.0,0.0,0.0,0.0,0.0,0.0,0.0,0.0,0.0,0.0,0.0,0.0,0.0,0.0,0.0,0.0,0.0,0.0,0.0,0.0,0.0,0.0,0.0,0.0,0.0,0.0,0.0,0.0,0.0,0.0,0.0,0.0,0.0,0.0,0.0,0.0,0.0,0.0,0.0,0.0,0.0,0.0,0.0,0.0,0.0,0.0,0.0,0.0,0.0,0.0,0.0,0.0,0.0,0.0,0.0,0.0,0.0,0.0,0.0,0.0,0.0,0.0,0.0,0.0,0.0,0.0,0.0,0.0,0.0,0.0,0.0,0.0,0.0,0.0,0.0,0.0,0.0,0.0,0.0,0.0,0.0,0.0,0.0,0.0,0.0,0.0,0.0,0.0,0.0,0.0,0.0,0.0,0.0,0.0,0.0,0.0,0.0,0.0,0.0,0.0,0.0,0.0,0.0,0.0,0.0,0.0,0.0,0.0,0.0,0.0,0.0,0.0,0.0,0.0,0.0,0.0,0.0,0.0,0.0,0.0,0.0,0.0,0.0,0.0,0.0,0.0,0.0,0.0,0.0,0.0,0.0,0.0,0.0,0.0,0.0,0.0,0.0,0.0,0.0,0.0,0.0,0.0,0.0,0.0,0.0,0.0,0.0,0.0,4.5973,0.0,0.0,0.0,0.0,0.0,0.0,0.0,0.0,0.0,0.0,0.0,0.0,0.0,0.0,0.0,0.0,0.0,0.0,0.0,0.0,0.0,0.0,0.0,0.0,0.0,0.0,0.0,0.0,0.0,0.0,0.0,0.0,0.0,0.0,0.0,0.0,0.0,0.0,0.0,4.0829,4.0881,4.0937,4.0898,4.0886,4.0848,0.0,0.0,0.0,0.0,0.0,0.0,0.0,0.0,0.0,0.0,0.0,0.0,0.0,0.0,0.0,0.0,0.0,0.0,0.0,0.0,0.0,0.0,0.0,0.0,0.0,0.0,0.0,0.0,0.0,0.0,0.0,0.0,0.0,0.0,0.0,0.0,0.0,0.0,0.0,0.0,0.0,0.0,0.0,0.0,0.0,0.0,0.0,0.0,0.0,0.0,0.0,0.0,0.0,0.0,0.0,0.0,0.0,0.0,0.0,0.0,0.0,0.0,0.0,0.0,0.0,0.0,0.0,0.0,0.0,0.0,0.0,4.6231,0.0,0.0,0.0,0.0,0.0,0.0,0.0,0.0,0.0,0.0,0.0,0.0,0.0,0.0,0.0,0.0,0.0,0.0,0.0,0.0,0.0,0.0,0.0,0.0,4.079,4.079,4.079,4.079,4.079,4.079,4.079,4.079,4.079,4.079,4.079,4.079,4.081,4.081,4.09,4.0953,4.1011,4.102,4.0982,4.0938,4.0848,0.0,0.0,0.0,0.0,0.0,0.0,0.0,0.0,0.0,0.0,0.0,0.0,0.0,0.0,0.0,0.0,0.0,0.0,0.0,0.0,0.0,0.0,0.0,0.0,0.0,0.0,0.0,0.0,0.0,0.0,0.0,0.0,0.0,0.0,0.0,0.0,0.0,0.0,0.0,0.0,0.0,0.0,0.0,0.0,0.0,0.0,0.0,0.0,0.0,0.0,0.0,0.0,0.0,0.0,0.0,0.0,0.0,0.0,0.0,0.0,0.0,0.0,0.0,4.6308,4.6308,4.6308,4.6308,4.6308,4.6308,4.623,4.623,4.6268,4.6111,0.0,0.0,0.0,0.0,0.0,0.0,0.0,0.0,0.0,0.0,0.0,0.0,0.0,0.0,0.0,0.0,0.0,0.0,0.0,0.0,0.0,4.079,4.079,4.079,4.079,4.079,4.079,4.079,4.079,4.079,4.079,4.079,4.079,4.079,4.0829,4.09,4.1016,4.1086,4.1083,4.1085,4.1088,4.1074,4.0996,4.0977,4.0977,0.0,0.0,0.0,0.0,0.0,0.0,0.0,0.0,0.0,0.0,0.0,0.0,0.0,0.0,0.0,0.0,0.0,0.0,0.0,0.0,0.0,0.0,0.0,0.0,0.0,0.0,0.0,0.0,0.0,0.0,0.0,0.0,0.0,0.0,0.0,0.0,0.0,0.0,0.0,0.0,0.0,4.1191,4.1191,0.0,0.0,0.0,0.0,0.0,0.0,0.0,0.0,0.0,0.0,0.0,0.0,0.0,4.6133,4.6133,4.623,4.6308,4.6308,4.6308,4.6308,4.6308,4.6308,4.6308,4.6308,4.6289,0.0,4.6211,4.6246,0.0,0.0,0.0,0.0,0.0,0.0,0.0,0.0,0.0,0.0,0.0,0.0,0.0,0.0,0.0,0.0,0.0,0.0,0.0,0.0,0.0,4.079,4.079,4.079,4.0829,4.0829,4.079,4.0829,4.0829,4.079,4.079,4.081,4.0848,4.0848,4.0919,4.1016,4.1074,4.1112,4.1163,4.1162,4.1147,4.1097,4.1078,4.1008,4.094,4.0935,0.0,0.0,0.0,0.0,0.0,0.0,0.0,0.0,0.0,0.0,0.0,0.0,0.0,0.0,0.0,0.0,0.0,0.0,0.0,0.0,0.0,0.0,0.0,0.0,0.0,0.0,0.0,0.0,0.0,0.0,0.0,0.0,0.0,0.0,0.0,0.0,0.0,0.0,0.0,4.1191,4.1191,4.1191,4.1191,4.1387,0.0,0.0,0.0,0.0,0.0,0.0,0.0,0.0,0.0,4.6289,4.6308,4.6308,4.6308,4.6308,4.6308,4.6308,4.6308,4.6308,4.6308,4.6308,4.6308,4.6308,4.6308,4.6289,4.6269,4.625,4.6198,4.6112,0.0,0.0,0.0,0.0,4.5996,4.598,0.0,0.0,0.0,0.0,0.0,0.0,0.0,0.0,0.0,0.0,0.0,0.0,4.0829,4.0829,4.0848,4.0848,4.09,4.0892,4.0843,4.0873,4.0868,4.079,4.079,4.0829,4.09,4.0938,4.0996,4.1093,4.1121,4.115,4.1198,4.1177,4.1146,4.1108,4.1108,4.103,4.0951,4.0941,4.095,4.0935,0.0,0.0,0.0,0.0,0.0,0.0,0.0,0.0,0.0,0.0,0.0,0.0,0.0,0.0,0.0,0.0,0.0,0.0,0.0,0.0,0.0,0.0,0.0,0.0,0.0,0.0,0.0,0.0,0.0,0.0,0.0,0.0,0.0,0.0,0.0,0.0,0.0,4.1387,4.1504,4.1504,4.1699,4.207,0.0,0.0,0.0,0.0,0.0,0.0,4.5332,4.5957,4.6308,4.6308,4.6308,4.6308,4.6308,4.6308,4.6308,4.6308,4.6308,4.6308,4.6308,4.6308,4.6308,4.6308,4.6543,4.6621,4.6601,4.6348,4.6211,4.619,4.6154,4.613,4.6118,4.6306,4.639,4.6394,0.0,0.0,0.0,0.0,0.0,0.0,0.0,0.0,0.0,0.0,0.0,4.09,4.09,4.0958,4.0996,4.0996,4.0996,4.0959,4.0904,4.0904,4.0868,4.079,4.079,4.0829,4.09,4.1016,4.1093,4.1093,4.1159,4.119,4.119,4.1125,4.1091,4.1108,4.1108,4.1091,4.1094,4.1097,4.1054,4.0999,4.1007,0.0,0.0,0.0,0.0,0.0,0.0,0.0,0.0,0.0,0.0,0.0,0.0,0.0,0.0,0.0,0.0,0.0,0.0,0.0,0.0,0.0,0.0,0.0,0.0,0.0,0.0,0.0,0.0,0.0,0.0,0.0,0.0,0.0,0.0,0.0,0.0,0.0,0.0,4.2344,4.3066,0.0,0.0,0.0,0.0,4.4922,4.5742,4.623,4.623,4.6289,4.6308,4.6308,4.6308,4.6308,4.6308,4.6308,4.6308,4.6308,4.6308,4.6308,4.6308,4.6308,4.6308,4.6348,4.7187,4.7539,4.7461,4.6641,4.6269,4.6191,4.6191,4.6163,4.6205,4.71,4.7428,4.7558,0.0,0.0,0.0,0.0,0.0,0.0,0.0,0.0,4.0829,4.0919,4.0919,4.092,4.0954,4.0991,4.101,4.101,4.1039,4.1039,4.0979,4.0955,4.0938,4.0868,4.0848,4.0919,4.1035,4.1116,4.1159,4.1159,4.1187,4.1191,4.1191,4.1121,4.1108,4.1108,4.1108,4.1108,4.1108,4.1108,4.1099,4.1051,4.1054,4.1053,0.0,0.0,0.0,0.0,0.0,0.0,0.0,0.0,0.0,0.0,0.0,0.0,0.0,0.0,0.0,0.0,0.0,0.0,0.0,0.0,0.0,0.0,0.0,0.0,0.0,0.0,0.0,0.0,0.0,0.0,0.0,0.0,0.0,0.0,0.0,0.0,0.0,4.3242,4.3516,0.0,4.4473,4.4824,4.5234,4.5781,4.6113,4.6308,4.6308,4.6308,4.6308,4.6308,4.6308,4.6308,4.6308,4.6308,4.6308,4.6308,4.6308,4.6582,4.7148,4.7148,4.7441,4.7988,4.8301,4.8437,4.8418,4.8105,4.7969,4.7949,4.7949,4.7928,4.7933,4.822,4.8334,4.836,0.0,0.0,0.0,0.0,0.0,0.0,0.0,0.0,4.0884,4.097,4.0977,4.0978,4.1041,4.1045,4.107,4.107,4.1117,4.112,4.1046,4.1012,4.0981,4.0938,4.0958,4.1016,4.1093,4.1163,4.1191,4.1191,4.1191,4.1191,4.1191,4.1125,4.1094,4.1108,4.1108,4.1108,4.1108,4.1108,4.1094,4.1099,4.1101,4.1107,4.1093,0.0,0.0,0.0,0.0,0.0,0.0,0.0,0.0,0.0,0.0,0.0,0.0,0.0,0.0,0.0,0.0,0.0,0.0,0.0,0.0,0.0,0.0,0.0,0.0,0.0,0.0,0.0,0.0,0.0,0.0,0.0,0.0,0.0,0.0,0.0,4.4141,4.4141,4.4394,4.4805,4.5371,4.5449,4.5683,4.6269,4.6308,4.6308,4.6308,4.6308,4.6308,4.6308,4.6308,4.6308,4.6308,4.6308,4.6445,4.6738,4.6738,4.7207,4.8047,4.8047,4.8359,4.8926,4.9219,4.9336,4.9355,4.9629,4.9746,4.9687,4.9121,4.8906,4.8926,4.918,4.927,4.9289,0.0,0.0,0.0,0.0,0.0,0.0,0.0,4.0968,4.0976,4.0928,4.1028,4.1093,4.1098,4.115,4.1191,4.1191,4.1191,4.1164,4.1103,4.1046,4.0999,4.1009,4.1074,4.1093,4.1098,4.1168,4.1191,4.1191,4.1191,4.1191,4.1191,4.1129,4.1101,4.1108,4.1108,4.1108,4.1108,4.1108,4.1101,4.1092,4.1094,4.109,4.1082,0.0,0.0,0.0,0.0,0.0,0.0,0.0,0.0,0.0,0.0,0.0,0.0,0.0,0.0,0.0,0.0,0.0,0.0,0.0,0.0,0.0,0.0,0.0,0.0,0.0,0.0,0.0,0.0,0.0,0.0,0.0,0.0,0.0,4.3867,4.4492,4.5039,4.5039,4.5781,4.6308,4.6308,4.6308,4.6308,4.6308,4.6308,4.6308,4.6308,4.6308,4.6308,4.6348,4.6348,4.6348,4.6387,4.6387,4.6816,4.7637,4.7637,4.8105,4.8945,4.8945,4.8945,4.9023,4.9863,5.0234,5.0293,5.1074,5.1406,5.123,4.9609,4.8984,4.9082,4.9922,5.0234,5.0351,0.0,0.0,0.0,0.0,0.0,0.0,0.0,4.1026,4.1023,4.1109,4.1118,4.1121,4.1168,4.1187,4.1191,4.1191,4.1191,4.119,4.1166,4.1108,4.1067,4.1074,4.1093,4.1112,4.1179,4.1188,4.1191,4.1191,4.1191,4.117,4.1121,4.1105,4.1101,4.1108,4.1108,4.1108,4.1108,4.1108,4.1101,4.1092,4.1092,4.1094,4.1086,0.0,0.0,0.0,0.0,0.0,0.0,0.0,0.0,0.0,0.0,0.0,0.0,0.0,0.0,0.0,0.0,0.0,0.0,0.0,0.0,0.0,0.0,0.0,0.0,0.0,0.0,0.0,0.0,0.0,0.0,0.0,0.0,4.5644,4.4766,4.5391,4.5937,4.5937,4.6152,4.6308,4.6308,4.6308,4.6308,4.6308,4.6308,4.6308,4.6308,4.6308,4.6582,4.7226,4.7246,4.7558,4.8183,4.8183,4.8301,4.8535,4.8535,4.9004,4.9844,4.9844,5.0156,5.0723,5.0976,5.1074,5.1094,5.1308,5.1406,5.1348,5.0898,5.0703,5.0742,5.0976,5.1074,5.1094,0.0,0.0,0.0,0.0,0.0,0.0,0.0,4.1085,4.1098,4.1159,4.1143,4.1159,4.119,4.1191,4.1191,4.1191,4.1191,4.1191,4.1191,4.1159,4.1129,4.1105,4.114,4.1169,4.1191,4.1191,4.1191,4.1191,4.1191,4.1169,4.1108,4.1099,4.1097,4.1108,4.1108,4.1108,4.1108,4.1108,4.1105,4.1094,4.1094,4.1091,4.1094,4.1037,4.1025,4.1054,4.1014,4.1015,4.1019,4.1081,0.0,0.0,0.0,0.0,0.0,0.0,0.0,0.0,0.0,0.0,0.0,0.0,0.0,0.0,0.0,0.0,0.0,0.0,0.0,0.0,0.0,0.0,0.0,0.0,4.6308,4.6113,4.5625,4.5976,4.6308,4.6308,4.6308,4.6308,4.6308,4.6308,4.6308,4.6308,4.6641,4.6836,4.6836,4.7187,4.7617,4.8125,4.8144,4.8398,4.8906,4.8906,4.9082,4.9433,4.9433,4.9883,5.0703,5.0703,5.0957,5.1406,5.1406,5.1406,5.1406,5.1406,5.1406,0.0,0.0,0.0,0.0,0.0,5.1406,5.1406,0.0,0.0,0.0,0.0,0.0,0.0,0.0,4.1152,4.1175,4.1102,4.1159,4.1191,4.1191,4.1191,4.1191,4.1191,4.1191,4.1191,4.1191,4.1191,4.1163,4.1119,4.1172,4.1191,4.1191,4.1191,4.1191,4.1191,4.1191,4.1169,4.1091,4.1091,4.1108,4.1108,4.1108,4.1108,4.1108,4.1091,4.111,4.1108,4.1107,4.1103,4.1097,4.1033,4.1013,4.1006,4.1011,4.0971,4.0954,4.1169,0.0,0.0,0.0,0.0,0.0,0.0,0.0,0.0,0.0,0.0,0.0,0.0,0.0,0.0,0.0,0.0,0.0,0.0,0.0,0.0,0.0,0.0,0.0,0.0,4.6308,4.6308,4.6308,4.6308,4.6308,4.6308,4.6308,4.6308,4.6308,4.6387,4.6445,4.6445,4.7246,4.7754,4.7754,0.0,0.0,0.0,0.0,4.9082,4.918,4.918,4.9629,5.0488,5.0488,5.0918,5.1699,5.1699,5.1699,5.1699,5.1699,5.1699,5.1699,5.1699,5.1699,5.168,5.1484,5.1406,5.1406,5.1406,5.1406,5.1406,0.0,0.0,0.0,0.0,0.0,0.0,0.0,4.1191,4.1172,4.1113,4.1152,4.1172,4.1133,4.1172,4.1191,4.1191,4.1191,4.1191,4.1191,4.1191,4.119,4.1177,4.119,4.1191,4.1191,4.1191,4.1191,4.1191,4.1191,4.1171,4.1105,4.1094,4.1108,4.1108,4.1108,4.1108,4.1091,4.1105,4.1091,4.1094,4.1099,4.1105,4.1095,4.1091,4.1085,4.1071,4.1078,4.1071,4.1169,4.1903,4.2149,4.2276,4.3171,0.0,0.0,0.0,0.0,0.0,0.0,0.0,0.0,0.0,0.0,0.0,0.0,0.0,0.0,0.0,0.0,0.0,0.0,0.0,0.0,4.6308,4.6308,4.6308,4.6308,4.6308,4.6308,4.6308,4.6308,4.6308,4.6308,4.6933,4.7344,4.7344,4.8164,4.8652,4.8652,4.8808,4.9219,4.9922,4.9941,5.0254,5.0918,5.0918,5.1348,5.2226,0.0,0.0,5.3496,5.3496,5.3496,5.3496,5.3496,5.3496,5.3496,5.3496,5.3496,5.3359,5.1953,5.1406,5.1406,5.1406,5.1406,5.1406,0.0,0.0,0.0,0.0,0.0,0.0,0.0,4.1191,4.1191,4.1147,4.1185,4.1188,4.1152,4.1172,4.1191,4.1191,4.1191,4.1191,4.1191,4.1191,4.1191,4.1191,4.1191,4.1191,4.1191,4.1191,4.1191,4.1191,4.1191,4.1172,4.1092,4.1099,4.1094,4.1099,4.1094,4.1108,4.1091,4.111,4.1094,4.111,4.1108,4.1091,4.111,4.111,4.111,4.1149,4.1559,4.1695,4.1831,4.2708,4.2994,4.3144,4.4028,4.4629,4.5091,0.0,0.0,0.0,0.0,0.0,0.0,0.0,0.0,0.0,0.0,0.0,0.0,0.0,0.0,4.6308,0.0,0.0,4.6308,4.6308,4.6308,4.6308,4.6308,4.6308,4.6308,4.6308,4.6699,4.6953,4.6953,4.7734,4.8242,4.8242,4.9062,4.9551,4.9551,4.9922,5.0547,5.1426,5.1445,5.1855,5.2695,5.2695,5.293,5.3359,5.3359,5.3574,5.4004,5.4004,5.4004,5.4004,5.4004,5.4004,5.4004,5.4004,5.4004,5.3906,5.3047,5.2695,5.2695,5.2695,5.2695,5.2695,0.0,0.0,0.0,0.0,0.0,0.0,0.0,4.1191,4.1191,4.1172,4.1183,4.1197,4.117,4.1191,4.1191,4.1191,4.1191,4.1191,4.1191,4.1191,4.1191,4.1191,4.1191,4.1191,4.1191,4.1191,4.1191,4.1191,4.1191,4.1172,4.1094,4.1105,4.1101,4.1107,4.1101,4.1097,4.1097,4.1093,4.1108,4.1108,4.1265,4.134,4.1344,4.152,4.1481,4.1442,4.226,4.2552,4.2689,4.3565,4.3844,4.3992,4.4887,4.5191,4.5371,4.6085,4.6303,0.0,0.0,0.0,0.0,0.0,0.0,0.0,0.0,0.0,4.6308,4.6308,4.6308,4.6308,4.6308,4.6308,4.6308,4.6308,4.6308,4.6367,4.6523,4.6543,4.6621,4.6797,4.7285,4.7676,4.7832,4.8633,4.9141,4.9141,5.0098,5.0683,5.0683,5.1465,5.2226,5.293,5.2949,5.3281,5.3984,5.4004,5.4082,5.4258,5.4258,5.4336,5.4512,5.4512,5.4512,5.4512,5.4512,5.4512,5.4512,5.4512,5.4512,5.4512,5.4512,5.4512,5.4453,5.4121,5.4004,5.4004,0.0,0.0,0.0,0.0,0.0,0.0,0.0,0.0,4.1172,4.1113,4.1164,4.1189,4.1114,4.1168,4.1191,4.1191,4.1191,4.1191,4.1191,4.1191,4.1191,4.1191,4.1191,4.1191,4.1191,4.1191,4.1191,4.1191,4.1191,4.1172,4.1094,4.1152,4.1151,4.1107,4.1092,4.1092,4.1107,4.1094,4.1105,4.1163,4.188,4.2163,4.226,4.3039,4.2844,4.2279,4.313,4.3442,4.3585,4.4462,4.4741,4.491,4.5772,4.6056,4.6108,4.6246,0.0,4.6305,4.6308,4.6308,4.6308,4.6308,4.6308,4.6308,0.0,0.0,4.6308,4.6308,4.6308,4.6308,4.6308,4.6308,4.6308,4.6308,4.6308,4.6562,4.7344,4.7441,4.7734,4.8516,4.8008,4.7891,4.8672,4.9531,5.0058,5.0058,5.1523,5.2422,5.2422,5.3242,5.375,5.3848,5.3848,5.3906,5.4004,5.4004,5.4394,5.5156,5.5156,5.5566,5.6308,5.6308,5.6308,5.6308,5.6308,5.6308,5.6308,5.6308,5.6308,5.6308,5.6308,5.6308,5.6113,5.457,5.4004,5.4004,0.0,0.0,0.0,0.0,0.0,0.0,0.0,0.0,0.0,4.1152,4.117,4.1187,4.1167,4.1171,4.1191,4.1191,4.1191,4.1191,4.1191,4.1191,4.1191,4.1191,4.1191,4.1191,4.1191,4.1191,4.1191,4.1191,4.1191,4.1191,4.1152,4.1191,4.1191,4.1151,4.1152,4.1152,4.1191,4.1618,4.1818,4.1919,4.2695,4.3019,4.3156,4.4014,4.4117,4.381,4.4201,4.4364,0.0,4.5358,4.565,4.5715,4.6039,4.6171,4.6219,4.623,4.6261,0.0,4.6308,4.6308,4.6308,0.0,4.6308,4.6308,4.6308,4.6308,4.6308,4.6308,4.6308,4.6308,4.6308,4.6308,4.6308,0.0,4.6738,4.7187,4.7558,4.8047,4.8672,4.9551,4.9336,4.9258,4.9629,5.0879,5.1641,5.1641,5.2773,5.3457,5.3457,5.3808,5.4238,5.4746,5.4765,5.5,5.5508,5.5508,5.5703,5.6055,5.6055,5.625,5.6601,5.6601,5.6601,5.6601,5.6601,5.6601,5.6601,5.6601,5.6601,5.6601,5.6601,5.6601,5.6504,5.5781,5.5508,5.5508,0.0,0.0,0.0,0.0,0.0,0.0,0.0,0.0,0.0,0.0,4.1191,4.1191,4.1191,4.1191,4.1191,4.1191,4.1191,4.1191,4.1191,4.1191,4.1191,4.1191,4.1191,4.1191,4.1191,4.1191,4.1191,4.1191,4.1191,4.1191,4.117,4.1191,4.1191,4.1172,4.1171,4.1306,4.1562,4.2108,4.2493,4.2824,4.3576,4.3927,4.4052,4.4922,4.5219,4.5184,4.5219,4.5219,4.5309,4.5932,4.6154,4.6162,4.6138,4.6176,4.623,4.6223,4.6267,4.6297,4.6308,0.0,0.0,4.6308,4.6308,4.6308,4.6308,4.6308,4.6308,4.6308,4.6308,4.6308,4.6308,4.6308,4.6387,4.6621,4.7187,4.7773,4.8242,4.8867,4.957,5.043,5.0742,5.0898,5.0898,5.1992,5.2793,5.3047,5.3867,5.4355,5.4355,5.459,5.5019,5.5644,5.5664,5.5957,5.6582,5.6601,5.6601,5.6601,5.6601,5.6601,5.6601,5.6601,5.6601,5.6601,5.6601,5.6601,5.6601,5.6601,5.6601,5.6601,5.6601,5.6601,5.6601,5.6601,5.6601,5.6601,0.0,0.0,0.0,0.0,0.0,0.0,0.0,0.0,0.0,0.0,0.0,0.0,0.0,4.1191,4.1191,4.1191,4.1191,4.1191,4.1191,4.1191,4.1191,4.1191,4.1191,4.1191,4.1191,4.1191,4.1191,4.1191,4.1191,4.1169,4.1091,4.1169,4.1172,4.1094,4.1101,4.1576,4.238,4.2396,4.29,4.3739,4.4526,4.4851,4.4949,4.5768,4.6107,4.615,4.6091,4.6027,4.5968,4.6007,4.6047,4.6113,4.619,4.6244,0.0,4.6307,4.63,4.6308,0.0,0.0,4.6308,4.6308,4.6308,4.6308,4.6308,4.6308,4.6308,4.6308,4.6308,4.6308,4.6308,4.6308,4.6582,4.7422,4.7578,4.8183,4.9883,5.0137,5.0469,5.1269,5.2109,5.2617,0.0,5.2676,5.3047,5.3906,5.4765,5.5254,5.5254,5.6055,5.6523,5.6562,5.6562,5.6562,5.6601,5.6601,5.6601,5.6601,5.6601,5.6601,5.6601,5.6601,5.6601,5.6601,5.6601,5.6601,5.6601,5.6601,5.6601,5.6601,5.6601,5.6601,5.6601,5.6601,5.6601,5.6601,0.0,0.0,0.0,0.0,0.0,0.0,0.0,0.0,0.0,0.0,0.0,0.0,0.0,0.0,0.0,0.0,4.1191,4.1191,4.1191,4.1191,4.1191,4.1191,4.1191,4.1191,4.1191,4.1191,4.1191,4.1191,4.1191,4.1169,4.1108,4.1177,4.1166,4.1129,4.1702,4.2119,4.2477,4.3591,4.4247,4.4625,4.5398,4.5728,4.5782,4.6069,4.615,4.6149,0.0,4.6127,4.6066,4.6114,4.6124,4.6113,4.6187,4.6242,4.63,4.6307,4.6307,4.6308,4.6308,0.0,4.6308,4.6308,4.6308,4.6308,4.6308,4.6308,4.6308,4.6308,4.6308,4.6484,4.7051,4.7168,4.7441,4.832,4.8945,4.9531,5.0117,5.0664,5.1308,5.2168,5.2519,0.0,0.0,0.0,0.0,5.4844,5.5664,5.6152,5.6152,5.6445,5.6601,5.6601,5.6601,5.6601,5.6601,5.6601,5.6601,5.6601,5.6601,5.6601,5.6601,5.6601,5.6601,5.6601,5.6601,5.6601,5.6601,5.6601,5.6601,5.6601,5.6601,5.6601,5.6601,5.6601,5.6601,5.6601,0.0,0.0,0.0,0.0,0.0,0.0,0.0,0.0,0.0,0.0,0.0,0.0,0.0,0.0,0.0,0.0,0.0,4.1191,4.1191,4.1191,4.1191,4.1191,4.1191,4.1191,4.1191,4.1191,4.1191,4.1191,4.1191,4.117,4.1097,4.113,4.1311,4.1593,4.2145,4.2744,4.3395,4.4473,4.5136,4.5508,4.5948,4.617,4.6202,4.6206,4.6177,0.0,4.6188,4.6166,4.615,4.6152,4.6147,4.6133,4.6185,4.6248,4.6292,4.6307,4.6308,4.6308,4.6308,4.6308,4.6308,4.6308,4.6308,4.6308,4.6308,4.6308,4.6308,4.6308,4.6543,4.6933,4.75,4.7851,4.8359,4.9219,4.9824,5.0293,5.0586,5.1348,5.207,5.2637,5.3242,5.4062,0.0,0.0,0.0,5.5762,5.6289,5.6601,5.6601,5.6601,5.6601,5.6601,5.6601,5.6601,5.6601,5.6601,5.6601,5.6601,5.6601,5.6601,5.6601,5.6601,5.6601,5.6601,5.6601,5.6601,5.6601,5.6601,5.6601,5.6601,5.6601,5.6601,5.6601,5.6601,5.6601,5.6601,0.0,0.0,0.0,0.0,0.0,0.0,0.0,0.0,0.0,0.0,0.0,0.0,0.0,0.0,0.0,0.0,0.0,0.0,4.1191,4.1191,4.1191,4.1191,4.1191,4.1191,4.1191,4.1191,4.1191,4.1191,4.123,4.1229,4.1166,4.1214,4.166,4.2468,4.2516,4.345,4.4992,4.5052,4.5544,4.6287,4.6229,4.6205,4.6202,4.6206,4.6221,4.6206,4.6219,4.621,4.621,4.6127,4.6137,4.6203,4.6203,4.6254,4.6308,4.6308,4.6308,4.6308,4.6308,4.6308,4.6308,4.6308,4.6308,4.6308,4.6308,4.6308,4.6308,4.6308,4.6992,4.7617,0.0,0.0,4.9258,5.0117,5.0254,5.0527,5.1289,5.2148,5.2715,0.0,0.0,0.0,0.0,0.0,0.0,5.6601,0.0,5.6601,5.6601,5.6601,5.6601,5.6601,5.6601,5.6601,5.6601,5.6601,5.6601,5.6601,5.6601,5.6601,5.6601,5.6601,5.6601,5.6601,5.6601,5.6601,5.6601,5.6601,5.6601,5.6601,5.6601,5.6601,5.6601,5.6601,5.6601,5.6601,0.0,0.0,0.0,0.0,0.0,0.0,0.0,0.0,0.0,0.0,0.0,0.0,0.0,0.0,0.0,0.0,0.0,0.0,4.1191,4.1191,4.1191,4.1191,4.1191,4.1191,4.1191,4.1191,4.1191,4.1191,4.1797,4.209,4.2089,4.2722,4.3163,4.3398,4.4055,4.4582,4.5031,4.5682,4.6095,4.629,4.6276,4.6267,4.6269,4.6268,4.6261,4.6273,4.6278,4.6269,4.6269,0.0,0.0,0.0,0.0,4.628,4.6308,4.6308,4.6308,4.6308,4.6308,4.6308,4.6308,4.6308,4.6308,4.6308,4.6308,4.6308,4.6308,4.6308,4.6992,4.7793,0.0,0.0,0.0,5.0957,5.1094,0.0,5.1367,5.2148,0.0,0.0,0.0,5.5566,5.6211,5.6465,0.0,0.0,5.6601,5.6601,5.6601,5.6601,5.6601,5.6601,5.6601,5.6601,5.6601,5.6601,5.6601,5.6601,5.6601,5.6601,5.6601,5.6601,5.6601,5.6601,5.6601,5.6601,5.6601,5.6601,5.6601,5.6601,5.6601,5.6601,5.6601,5.6601,5.6601,5.6601,0.0,0.0,0.0,0.0,0.0,0.0,0.0,0.0,0.0,0.0,0.0,0.0,0.0,0.0,0.0,0.0,0.0,0.0,0.0,4.1191,4.1191,4.1191,4.1191,4.1191,4.1191,4.1191,4.1367,4.1738,4.2187,4.2598,4.2988,4.3473,4.3898,4.4284,4.4789,4.5219,4.5607,4.6088,4.63,0.0,0.0,4.6293,4.6301,4.6306,4.6306,4.6301,4.63,0.0,0.0,0.0,0.0,4.6308,4.6308,4.6308,4.6308,4.6308,0.0,4.6308,4.6308,4.6308,4.6308,4.6308,4.6308,4.6308,4.6308,4.6308,4.6308,4.6308,4.7305,0.0,0.0,0.0,0.0,0.0,0.0,0.0,5.1914,5.2715,5.3594,0.0,5.5332,0.0,5.6543,5.6601,5.6601,0.0,5.6601,5.6601,5.6601,5.6601,5.6601,5.6601,5.6601,5.6601,5.6601,5.6601,5.6601,5.6601,5.6601,5.6601,5.6601,5.6601,5.6601,5.6601,0.0,5.6601,5.6601,5.6601,5.6601,5.6601,5.6601,5.6601,5.6601,5.6601,5.6601,5.6601,0.0,0.0,0.0,0.0,0.0,0.0,0.0,0.0,0.0,0.0,0.0,0.0,0.0,0.0,0.0,0.0,0.0,0.0,0.0,0.0,4.1191,4.1191,4.1191,4.1191,4.1191,4.1191,4.1543,4.2246,4.2461,4.2969,4.3711,4.3945,4.4453,4.5172,4.5172,4.5582,4.6303,4.6293,4.6306,4.6303,4.63,4.63,4.63,0.0,0.0,0.0,0.0,0.0,0.0,0.0,4.63,4.6308,4.6308,4.6308,4.6308,4.6308,4.6308,4.6308,4.6308,4.6308,4.6308,4.6308,4.6308,4.6308,4.6308,4.6308,4.6308,4.6308,0.0,4.8906,4.8906,5.0273,5.1406,5.1406,0.0,5.1699,5.2578,5.3434,5.4306,5.5185,5.603,5.656,5.656,5.6581,5.6582,5.6582,5.6582,5.6601,5.6601,5.6601,5.6601,5.6601,5.6601,5.6601,5.6601,5.6601,5.6601,5.6601,5.6601,5.6601,5.6601,5.6601,5.6601,5.6601,5.6601,0.0,5.6601,5.6601,5.6601,5.6601,5.6601,5.6601,5.6601,5.6601,5.6601,5.6601,0.0,0.0,0.0,0.0,0.0,0.0,0.0,0.0,0.0,0.0,0.0,0.0,0.0,0.0,0.0,0.0,0.0,0.0,0.0,0.0,0.0,4.1191,4.1191,4.1191,4.1191,4.1191,4.1269,4.1406,4.2793,4.3555,4.373,4.5176,4.5937,4.6074,4.6074,4.6152,4.6308,4.6308,4.6306,4.6297,4.6306,4.63,4.63,4.63,0.0,0.0,0.0,0.0,0.0,0.0,4.63,4.6308,4.6308,4.6308,4.6308,4.6308,4.6308,4.6308,4.6308,4.6308,4.6308,4.6308,4.6308,4.6308,4.6308,4.6308,0.0,0.0,0.0,4.8906,4.8906,5.0273,5.1406,5.1406,0.0,0.0,0.0,0.0,5.4236,0.0,0.0,0.0,0.0,0.0,0.0,0.0,0.0,5.6601,5.6601,5.6601,5.6601,5.6601,5.6601,5.6601,5.6601,5.6601,5.6601,5.6601,5.6601,5.6601,5.6601,5.6601,5.6601,5.6601,5.6601,0.0,5.6601,5.6601,5.6601,5.6601,5.6601,5.6601,5.6601,5.6601,5.6601,5.6601,0.0,0.0,0.0,0.0,0.0,0.0,0.0,0.0,0.0,0.0,4.1191,0.0,0.0,0.0,0.0,0.0,0.0,0.0,0.0,0.0,0.0,0.0,0.0,0.0,4.1191,4.1191,4.1406,4.1816,0.0,4.3926,4.4394,4.5703,4.6308,4.6308,4.6308,4.6308,4.6308,4.6308,4.6308,4.6306,4.629,4.63,0.0,0.0,0.0,0.0,0.0,0.0,0.0,0.0,4.6293,4.6303,4.6308,4.6308,4.6308,4.6308,4.6308,4.6308,4.6308,4.6308,4.6308,4.6303,4.6301,4.6303,4.6308,0.0,0.0,0.0,4.7324,4.8359,4.8828,0.0,0.0,0.0,0.0,0.0,0.0,0.0,0.0,0.0,0.0,0.0,0.0,0.0,0.0,0.0,0.0,5.6601,5.6601,5.6601,5.6601,5.6601,5.6601,5.6601,5.6601,5.6601,5.6601,5.6601,5.6601,5.6601,5.6601,5.6601,5.6601,5.6601,5.6601,0.0,5.6601,5.6601,5.6601,5.6601,5.6601,5.6601,5.6601,5.6601,5.6601,5.6601,0.0,0.0,0.0,0.0,0.0,0.0,0.0,4.1191,4.1191,4.1191,4.1185,4.1172,4.1172,4.1189,0.0,0.0,0.0,0.0,0.0,0.0,0.0,0.0,0.0,0.0,0.0,0.0,0.0,0.0,4.3008,0.0,0.0,0.0,0.0,0.0,4.6016,4.6133,4.6308,4.6308,4.6308,0.0,0.0,4.6306,0.0,0.0,0.0,0.0,0.0,0.0,0.0,0.0,4.6306,4.6306,4.6307,4.6308,4.6308,4.6307,4.6307,4.6307,4.6308,4.6308,4.6307,4.6293,4.6303,4.6306,4.6306,4.6308,0.0,0.0,4.6992,4.7871,4.873,0.0,0.0,0.0,0.0,0.0,0.0,0.0,0.0,0.0,0.0,0.0,0.0,0.0,0.0,0.0,0.0,0.0,5.6601,5.6601,5.6601,5.6601,5.6601,5.6601,5.6601,5.6601,5.6601,5.6601,5.6601,5.6601,5.6601,5.6601,5.6601,5.6601,5.6601,0.0,0.0,5.6601,5.6601,5.6601,5.6601,5.6601,5.6601,5.6601,5.6601,5.6601,0.0,0.0,0.0,0.0,0.0,0.0,0.0,4.1191,4.1191,4.1191,4.1156,4.1106,4.1106,4.1159,0.0,0.0,0.0,0.0,0.0,0.0,0.0,0.0,0.0,0.0,0.0,0.0,0.0,0.0,0.0,0.0,0.0,0.0,0.0,0.0,0.0,0.0,4.6308,4.6308,0.0,0.0,0.0,0.0,0.0,0.0,0.0,0.0,0.0,0.0,0.0,0.0,0.0,4.6306,4.6307,4.6308,4.6308,4.6293,0.0,0.0,4.63,4.6303,4.6303,4.6301,4.6293,4.63,4.6303,0.0,0.0,4.6308,4.6992,4.7871,4.873,0.0,0.0,0.0,0.0,5.2012,0.0,0.0,0.0,0.0,0.0,0.0,0.0,0.0,0.0,0.0,0.0,0.0,5.6601,5.6601,5.6601,5.6601,5.6601,5.6601,5.6601,5.6601,5.6601,5.6601,5.6601,5.6601,5.6601,5.6601,5.6601,5.6601,5.6601,0.0,0.0,5.6601,5.6601,5.6601,5.6601,5.6601,5.6601,5.6601,5.6601,5.6601,0.0,0.0,0.0,0.0,0.0,0.0,0.0,4.1191,4.1183,4.1149,4.111,4.1074,4.1035,4.1102,0.0,0.0,0.0,0.0,0.0,0.0,0.0,0.0,0.0,0.0,0.0,0.0,0.0,0.0,0.0,0.0,0.0,0.0,0.0,0.0,0.0,0.0,0.0,0.0,0.0,0.0,0.0,0.0,0.0,0.0,0.0,0.0,0.0,0.0,0.0,0.0,0.0,0.0,4.6308,4.6308,0.0,0.0,4.63,4.6303,4.6309,4.629,4.629,4.629,4.6306,4.63,4.63,0.0,4.6301,4.6308,4.6582,4.7246,4.8633,4.918,0.0,0.0,0.0,0.0,0.0,0.0,0.0,0.0,0.0,0.0,0.0,0.0,0.0,0.0,0.0,0.0,5.6601,5.6601,5.6601,5.6601,5.6601,5.6601,5.6601,5.6601,5.6601,5.6601,5.6601,5.6601,5.6601,5.6601,5.6601,5.6601,5.6601,0.0,0.0,5.6601,5.6601,5.6601,5.6601,5.6601,5.6601,5.6601,5.6601,5.6601,0.0,0.0,0.0,0.0,0.0,0.0,4.1121,4.1142,4.1113,4.1082,4.1064,4.1016,4.0977,4.1016,4.1141,4.1361,0.0,0.0,0.0,0.0,0.0,0.0,0.0,0.0,0.0,0.0,0.0,0.0,0.0,0.0,0.0,0.0,0.0,0.0,0.0,0.0,0.0,0.0,0.0,0.0,0.0,0.0,0.0,0.0,0.0,0.0,0.0,0.0,0.0,0.0,0.0,0.0,0.0,0.0,0.0,0.0,4.6309,4.63,4.63,4.63,4.63,4.63,4.63,4.6303,0.0,0.0,4.629,4.6308,4.6308,4.6836,4.8574,4.8906,4.9427,5.1048,5.1293,5.1891,5.3561,0.0,0.0,0.0,0.0,0.0,0.0,0.0,0.0,0.0,0.0,0.0,5.6582,5.6601,5.6601,5.6601,5.6601,5.6601,5.6601,5.6601,5.6601,5.6601,5.6601,5.6601,5.6601,5.6601,5.6601,5.6601,5.6601,0.0,0.0,5.6601,5.6601,5.6601,5.6601,5.6601,5.6601,5.6601,5.6601,5.6601,0.0,0.0,0.0,0.0,0.0,0.0,0.0,4.0994,4.0994,4.1007,4.0937,4.09,4.09,4.09,4.123,4.2023,0.0,0.0,0.0,0.0,0.0,0.0,0.0,0.0,0.0,0.0,0.0,0.0,0.0,0.0,0.0,0.0,0.0,0.0,0.0,0.0,0.0,0.0,0.0,0.0,0.0,0.0,4.6303,0.0,0.0,0.0,0.0,0.0,0.0,0.0,0.0,0.0,0.0,4.6308,4.6308,4.6308,4.6301,4.63,4.63,4.63,4.63,4.63,4.63,4.6306,0.0,0.0,4.629,4.6308,4.6308,4.6836,4.8574,4.8906,4.9427,5.1048,5.1293,0.0,5.3572,0.0,0.0,0.0,0.0,0.0,0.0,0.0,0.0,0.0,0.0,0.0,5.6582,5.6601,5.6601,5.6601,5.6601,5.6601,5.6601,5.6601,5.6601,5.6601,5.6601,5.6601,5.6601,5.6601,5.6601,0.0,0.0,0.0,0.0,5.6601,5.6601,5.6601,5.6601,5.6601,5.6601,5.6601,5.6601,5.6601,0.0,0.0,0.0,0.0,0.0,0.0,0.0,4.1003,4.0983,4.0945,4.0909,4.1093,4.1609,4.1686,4.2059,4.29,0.0,0.0,0.0,0.0,0.0,0.0,0.0,0.0,0.0,0.0,0.0,0.0,0.0,0.0,0.0,0.0,0.0,0.0,0.0,0.0,0.0,0.0,0.0,0.0,0.0,4.63,4.6303,0.0,0.0,0.0,0.0,0.0,0.0,0.0,0.0,0.0,0.0,0.0,0.0,4.6308,4.6308,4.6303,4.6306,4.63,4.63,4.63,4.63,4.6303,4.6306,0.0,4.6307,4.6308,4.6777,4.7539,4.8691,4.9394,5.0105,5.1074,5.1735,0.0,0.0,0.0,0.0,0.0,0.0,0.0,0.0,0.0,0.0,0.0,0.0,0.0,5.6523,5.6523,5.6543,5.6601,5.6601,5.6601,5.6601,5.6601,5.6601,5.6601,5.6601,5.6601,5.6601,5.6601,5.6601,0.0,0.0,0.0,0.0,5.6601,5.6601,5.6601,5.6601,5.6601,5.6601,5.6601,5.6601,5.6601,0.0,0.0,0.0,0.0,0.0,0.0,0.0,4.0919,4.1016,4.1287,4.1325,4.1628,4.2395,4.2537,4.2905,4.377,0.0,0.0,0.0,0.0,0.0,0.0,0.0,0.0,0.0,0.0,0.0,0.0,0.0,0.0,0.0,0.0,0.0,0.0,0.0,0.0,0.0,0.0,0.0,0.0,4.63,4.63,4.63,0.0,0.0,0.0,0.0,0.0,0.0,0.0,0.0,0.0,0.0,0.0,0.0,0.0,4.6308,4.6308,4.6301,4.6295,4.629,4.629,4.6306,0.0,0.0,0.0,4.6387,4.6719,4.7226,4.7969,4.918,4.9781,5.0368,5.1074,0.0,0.0,0.0,0.0,0.0,0.0,0.0,0.0,0.0,0.0,0.0,0.0,0.0,0.0,5.6537,5.6532,5.6562,5.6601,5.6601,5.6601,5.6601,5.6601,5.6601,5.6601,5.6601,5.6601,5.6601,5.6601,5.6601,0.0,0.0,0.0,0.0,5.6601,5.6601,5.6601,5.6601,5.6601,5.6601,5.6601,5.6601,5.6601,0.0,0.0,0.0,0.0,0.0,0.0,0.0,0.0,0.0,0.0,4.2054,4.2414,4.3298,4.3389,4.373,0.0,0.0,0.0,0.0,0.0,0.0,0.0,0.0,0.0,0.0,0.0,0.0,4.3789,4.3789,4.3828,4.3887,0.0,0.0,0.0,0.0,0.0,0.0,0.0,0.0,0.0,4.63,4.63,0.0,0.0,0.0,0.0,0.0,0.0,0.0,0.0,0.0,0.0,0.0,0.0,0.0,0.0,0.0,0.0,0.0,4.6307,0.0,0.0,0.0,0.0,0.0,0.0,0.0,4.7519,4.7734,4.8281,4.9881,5.014,5.0322,0.0,0.0,0.0,0.0,0.0,0.0,0.0,0.0,0.0,0.0,0.0,0.0,0.0,0.0,0.0,5.6573,5.6588,5.66,5.6601,5.6601,5.6601,5.6601,5.6601,5.6601,5.6601,5.6601,5.6601,5.6601,5.6601,5.6601,0.0,0.0,0.0,0.0,5.6601,5.6601,5.6601,5.6601,5.6601,5.6601,5.6601,5.6601,5.6601,0.0,0.0,0.0,0.0,0.0,0.0,0.0,0.0,0.0,0.0,0.0,4.3337,4.4201,4.4285,0.0,0.0,0.0,0.0,0.0,0.0,0.0,0.0,0.0,0.0,0.0,0.0,0.0,4.4687,4.4687,4.5039,4.5683,4.5683,0.0,0.0,4.5991,4.6105,4.63,0.0,0.0,0.0,4.63,4.63,0.0,0.0,0.0,0.0,4.6303,4.6307,0.0,0.0,0.0,0.0,0.0,0.0,0.0,0.0,4.6308,4.6308,4.6308,0.0,4.6308,4.6308,4.6307,4.6463,0.0,0.0,0.0,0.0,0.0,4.9676,4.9984,5.0569,5.1018,0.0,0.0,0.0,0.0,0.0,0.0,0.0,0.0,0.0,0.0,0.0,0.0,0.0,0.0,5.6375,5.6513,5.6519,5.6543,5.6601,5.6601,5.6601,5.6601,5.6601,5.6601,5.6601,5.6601,5.6601,5.6601,5.6601,5.6601,0.0,0.0,0.0,5.6601,5.6601,5.6601,5.6601,5.6601,5.6601,5.6601,5.6601,5.6601,5.6601,0.0,0.0,0.0,0.0,0.0,0.0,0.0,0.0,0.0,0.0,0.0,0.0,0.0,0.0,0.0,0.0,0.0,0.0,0.0,0.0,0.0,0.0,0.0,0.0,0.0,4.4824,0.0,0.0,0.0,4.584,0.0,0.0,0.0,0.0,4.63,4.63,4.63,4.63,4.63,4.63,4.63,0.0,0.0,0.0,0.0,0.0,4.6307,4.6308,0.0,4.6308,4.6308,4.6308,0.0,0.0,0.0,0.0,4.6308,4.6308,4.6308,4.6308,4.6308,4.6308,4.6601,4.7012,4.748,0.0,0.0,0.0,0.0,5.0208,5.0545,5.0877,0.0,0.0,0.0,0.0,0.0,0.0,0.0,0.0,0.0,0.0,0.0,0.0,0.0,0.0,0.0,5.643,5.6534,5.6553,5.6555,5.6601,5.6601,5.6601,5.6601,5.6601,5.6601,5.6601,5.6601,5.6601,5.6601,5.6601,5.6601,0.0,0.0,0.0,5.6601,5.6601,5.6601,5.6601,5.6601,5.6601,5.6601,5.6601,5.6601,5.6601,0.0,0.0,0.0,0.0,0.0,0.0,0.0,0.0,0.0,0.0,0.0,0.0,0.0,0.0,0.0,0.0,0.0,0.0,0.0,0.0,0.0,0.0,0.0,0.0,4.618,4.6171,4.6211,0.0,0.0,0.0,0.0,0.0,4.63,0.0,4.63,4.63,4.63,4.63,4.63,4.63,4.63,0.0,0.0,0.0,0.0,0.0,0.0,0.0,0.0,4.6308,4.6308,4.6308,4.6308,0.0,0.0,0.0,0.0,0.0,4.6308,4.6387,4.6445,4.6328,4.6953,4.7637,4.7773,0.0,0.0,0.0,0.0,0.0,0.0,0.0,0.0,0.0,0.0,0.0,0.0,0.0,0.0,0.0,0.0,0.0,0.0,0.0,0.0,0.0,0.0,5.6524,5.6601,5.6602,5.6612,5.6601,5.6601,5.6601,5.6601,5.6601,5.6601,5.6601,5.6601,5.6601,5.6601,5.6601,5.6601,5.6601,0.0,0.0,5.6601,5.6601,5.6601,5.6601,5.6601,5.6601,5.6601,5.6601,5.6601,5.6601,0.0,0.0,0.0,0.0,0.0,0.0,0.0,0.0,0.0,0.0,0.0,0.0,0.0,0.0,0.0,0.0,0.0,0.0,0.0,0.0,0.0,0.0,4.5949,4.6028,4.6026,4.6097,4.6152,4.6211,4.6211,4.623,4.6308,4.6295,4.63,4.63,4.63,4.63,4.63,4.63,4.63,4.63,4.63,0.0,0.0,0.0,0.0,0.0,0.0,0.0,0.0,4.6308,4.6308,4.6308,4.6308,0.0,0.0,0.0,0.0,0.0,4.6308,4.6758,4.707,4.6465,4.6953,4.7793,4.8535,0.0,0.0,0.0,0.0,0.0,0.0,0.0,0.0,0.0,0.0,0.0,0.0,0.0,0.0,0.0,0.0,0.0,0.0,0.0,0.0,0.0,0.0,5.6536,5.6601,5.6597,5.6595,5.6601,5.6601,5.6601,5.6601,5.6601,5.6601,5.6601,5.6601,5.6601,5.6601,5.6601,5.6601,5.6601,0.0,5.6601,5.6601,5.6601,5.6601,5.6601,5.6601,5.6601,5.6601,5.6601,5.6601,5.6601,0.0,0.0,0.0,0.0,0.0,0.0,0.0,0.0,0.0,0.0,0.0,0.0,0.0,0.0,0.0,0.0,0.0,0.0,0.0,0.0,0.0,0.0,4.5858,4.593,4.6007,4.6037,4.6084,4.6162,4.6158,4.6172,4.625,4.6276,4.63,4.63,4.63,4.63,4.63,4.63,4.63,4.63,0.0,0.0,0.0,0.0,0.0,0.0,0.0,0.0,0.0,0.0,4.6308,4.6308,4.6308,0.0,0.0,0.0,0.0,0.0,4.625,4.6777,4.7258,4.6939,4.7827,4.8899,4.9287,4.9951,0.0,0.0,0.0,0.0,0.0,0.0,0.0,0.0,0.0,0.0,0.0,0.0,0.0,0.0,0.0,0.0,0.0,0.0,0.0,0.0,0.0,0.0,5.6601,5.6601,5.6601,5.6601,5.6601,5.6601,5.6601,5.6601,5.6601,5.6601,5.6601,5.6601,5.6601,5.6601,5.6601,5.6601,0.0,5.6601,5.6601,5.6601,5.6601,5.6601,5.6601,5.6601,5.6601,5.6601,5.6601,5.6601,0.0,0.0,0.0,0.0,0.0,0.0,0.0,0.0,0.0,0.0,0.0,0.0,0.0,0.0,0.0,0.0,0.0,0.0,0.0,0.0,4.58,4.58,4.58,4.5838,4.5949,4.5949,4.5988,4.6046,4.6047,4.61,4.619,4.6234,4.6261,4.63,4.63,4.63,4.63,4.63,4.63,4.63,0.0,0.0,0.0,0.0,0.0,0.0,0.0,0.0,0.0,0.0,0.0,0.0,0.0,0.0,0.0,4.6269,4.6348,4.6464,4.6468,4.7123,4.7833,4.7844,4.8819,4.9788,4.98,5.0412,0.0,0.0,0.0,0.0,0.0,0.0,0.0,0.0,0.0,0.0,0.0,0.0,0.0,0.0,0.0,0.0,0.0,0.0,0.0,0.0,0.0,0.0,5.6562,5.6582,5.6601,5.6601,5.6601,5.6601,5.6601,5.6601,5.6601,5.6601,5.6601,5.6601,5.6601,5.6601,5.6601,5.6601,5.6601,5.6601,5.6601,5.6601,5.6601,5.6601,5.6601,5.6601,5.6601,5.6601,5.6738,5.6894,0.0,0.0,0.0,0.0,0.0,0.0,0.0,0.0,0.0,0.0,0.0,0.0,0.0,0.0,0.0,0.0,0.0,0.0,0.0,0.0,4.58,4.58,4.58,4.58,4.58,4.58,4.5838,4.591,4.5912,4.5979,4.6108,4.6105,4.6183,4.63,4.63,4.63,4.63,4.63,4.63,4.63,4.63,0.0,0.0,0.0,0.0,0.0,0.0,0.0,0.0,0.0,0.0,0.0,0.0,0.0,4.6191,4.6133,4.6641,4.7219,4.7212,4.8309,4.9431,4.9431,4.9625,4.9815,4.9815,5.0354,0.0,5.0895,0.0,0.0,0.0,0.0,0.0,0.0,0.0,0.0,0.0,0.0,0.0,0.0,0.0,0.0,5.6012,5.6012,5.607,5.6205,5.6255,5.6366,5.6504,5.6562,5.6601,5.6601,5.6601,5.6601,5.6601,5.6601,5.6601,5.6601,5.6601,5.6601,5.6601,5.6601,5.6601,5.6601,5.6601,5.6601,5.6601,5.6601,5.6601,5.6601,5.6601,5.6601,5.6601,5.6601,5.7109,5.7812,0.0,0.0,0.0,0.0,0.0,0.0,0.0,0.0,0.0,0.0,0.0,0.0,0.0,0.0,0.0,0.0,0.0,0.0,0.0,0.0,4.58,4.58,4.58,4.58,4.58,4.58,4.58,4.5838,4.5847,4.5853,4.5917,4.5969,4.6007,4.6046,4.6144,4.6183,4.6183,4.6261,4.63,4.63,4.63,4.63,0.0,0.0,0.0,0.0,0.0,0.0,0.0,0.0,4.6208,4.6211,4.6113,4.6097,4.6141,4.6122,4.6647,4.7233,4.7254,4.8357,4.954,4.9547,4.9952,0.0,0.0,5.0567,5.0779,5.0779,5.074,0.0,0.0,0.0,0.0,0.0,0.0,0.0,0.0,0.0,0.0,0.0,0.0,5.6012,5.6012,5.6012,5.607,5.6186,5.6218,5.63,5.6484,5.6523,5.6562,5.6601,5.6601,5.6601,5.6601,5.6601,5.6601,5.6601,5.6601,5.6601,5.6601,5.6601,5.6601,5.6601,5.6601,5.6601,5.6601,5.6601,5.6601,5.6601,5.6601,5.6601,5.668,5.7207,5.7617,5.7988,0.0,0.0,0.0,0.0,0.0,0.0,0.0,0.0,0.0,0.0,0.0,0.0,0.0,0.0,0.0,0.0,0.0,0.0,0.0,4.58,4.58,4.58,4.58,4.58,4.58,4.5795,4.5795,4.5761,4.5745,4.5757,4.5796,4.5839,0.0,4.5893,4.6029,4.606,4.6046,4.6202,4.6222,4.6183,4.6261,4.6261,0.0,0.0,0.0,0.0,0.0,0.0,0.0,0.0,4.6128,4.6128,4.6006,4.6016,4.6104,4.6355,4.695,4.7594,4.7857,4.8883,4.9886,4.9875,0.0,0.0,5.0702,5.0702,5.0702,5.0702,5.0914,0.0,0.0,0.0,0.0,0.0,0.0,0.0,0.0,5.5924,5.598,5.5996,5.5995,5.6012,5.6012,5.6012,5.6051,5.6128,5.6186,5.6271,5.64,5.6478,5.6523,5.6562,5.6582,5.6601,5.6601,5.6601,5.6601,5.6601,5.6601,5.6601,5.6601,5.6601,5.6601,5.6601,5.6601,5.6601,5.6601,5.6601,5.6601,5.6621,5.6894,5.7012,5.7129,5.7988,5.8476,5.8769,0.0,0.0,0.0,0.0,0.0,0.0,0.0,0.0,0.0,0.0,0.0,0.0,0.0,0.0,0.0,0.0,0.0,0.0,0.0,4.58,4.58,4.58,4.58,4.58,4.58,4.5803,4.5783,4.5703,4.5629,4.568,4.5796,4.5796,0.0,0.0,4.5969,4.5963,4.5909,4.6105,4.6085,4.5929,4.6183,4.6222,4.6124,0.0,0.0,0.0,0.0,0.0,0.0,0.0,4.6047,4.5984,4.5911,4.5949,4.6143,4.6892,4.768,4.8469,4.9278,5.0086,5.0702,0.0,0.0,0.0,5.0702,5.0702,5.0702,5.0702,0.0,0.0,0.0,0.0,0.0,0.0,0.0,0.0,5.578,5.5846,5.5923,5.5999,5.5996,5.6012,5.6012,5.6012,5.6012,5.6012,5.6128,5.6205,5.6205,5.6387,5.6504,5.6504,5.6562,5.6601,5.6601,5.6601,5.6601,5.6601,5.6601,5.6601,5.6601,5.6601,5.6601,5.6601,5.6601,5.6601,5.6601,5.6601,5.6601,5.6699,5.7558,5.791,5.8027,5.8887,5.9726,6.039,0.0,0.0,0.0,0.0,0.0,0.0,0.0,0.0,0.0,0.0,0.0,0.0,0.0,0.0,0.0,0.0,0.0,0.0,0.0,4.58,4.58,4.58,4.5742,4.5722,4.5722,4.5687,4.5678,4.569,4.564,4.5605,4.5643,0.0,0.0,4.5699,0.0,0.0,4.5917,4.6067,4.6144,4.6195,4.6268,4.6289,4.6241,0.0,0.0,0.0,0.0,0.0,0.0,0.0,0.0,0.0,4.5776,4.5761,4.5949,4.6795,4.76,4.8411,4.926,5.0086,0.0,5.0702,0.0,0.0,0.0,5.0702,0.0,0.0,0.0,0.0,0.0,0.0,0.0,0.0,0.0,0.0,5.578,5.5822,5.5865,5.5981,5.5999,5.5996,5.6012,5.6012,5.6012,5.6012,5.6051,5.6109,5.6186,5.6257,5.6355,5.6504,5.6523,5.6543,5.6601,5.6601,5.6601,5.6601,5.6601,5.6601,5.6601,5.6601,5.6601,5.6601,5.6601,5.6601,5.6601,5.6601,5.6953,5.7539,5.7793,5.8262,5.8906,5.9746,6.0195,6.0488,0.0,0.0,0.0,0.0,0.0,0.0,0.0,0.0,0.0,0.0,4.5706,0.0,0.0,0.0,0.0,0.0,0.0,0.0,0.0,0.0,4.5752,4.575,4.5713,4.5694,4.5692,4.5673,4.5815,4.618,4.5796,4.5586,4.5586,0.0,4.5637,4.561,0.0,4.5808,4.5862,4.6074,4.6141,4.6156,4.6251,4.6258,4.6222,0.0,0.0,0.0,0.0,0.0,0.0,0.0,0.0,0.0,4.5719,4.5943,4.6383,4.7229,4.806,4.8894,4.976,5.0337,0.0,5.0702,5.0702,5.0702,5.0702,0.0,0.0,0.0,0.0,5.2589,0.0,0.0,0.0,0.0,0.0,5.5703,5.5742,5.578,5.5843,5.5943,5.5981,5.5998,5.5995,5.6012,5.6012,5.6012,5.6012,5.6051,5.6128,5.6167,5.6257,5.6374,5.6406,5.6442,5.6481,5.6481,5.6515,5.6562,5.6562,5.6562,5.6601,5.6601,5.6601,5.6601,5.6601,5.6601,5.6621,5.6973,5.7422,5.7969,5.8633,5.9219,5.9785,6.0605,6.0918,6.0996,0.0,0.0,0.0,0.0,0.0,0.0,0.0,0.0,0.0,0.0,4.5699,4.5699,0.0,0.0,0.0,0.0,0.0,0.0,0.0,0.0,4.5708,4.5699,4.5712,4.5692,4.5699,4.5776,4.6161,4.6908,4.6103,4.5757,0.0,0.0,4.5726,4.5713,0.0,4.5791,4.5812,4.6079,4.6066,4.5948,4.6183,4.6202,4.6105,4.6085,0.0,0.0,0.0,0.0,0.0,0.0,0.0,0.0,4.5699,4.6294,4.7159,4.7966,4.8797,4.9683,5.0471,5.0702,0.0,5.0702,5.0702,0.0,5.0702,0.0,5.0702,0.0,0.0,5.3185,5.3198,0.0,5.5703,5.5703,5.5703,5.5703,5.5703,5.5742,5.5822,5.5884,5.5943,5.5998,5.5995,5.6012,5.6012,5.6012,5.6012,5.6012,5.6012,5.6128,5.6186,5.6205,5.6251,5.6281,5.63,5.63,5.6361,5.6499,5.6503,5.6543,5.6601,5.6601,5.6601,5.6601,5.6601,5.664,5.6777,5.7578,5.7988,5.8281,5.9805,6.0449,6.0605,6.1406,6.1699,6.1699,0.0,0.0,0.0,0.0,0.0,0.0,0.0,0.0,0.0,0.0,0.0,0.0,0.0,0.0,0.0,0.0,0.0,0.0,0.0,0.0,4.5695,4.5699,4.5695,4.5676,4.5605,4.6294,4.6718,4.6908,4.6698,0.0,0.0,0.0,0.0,4.6576,0.0,4.5744,4.5806,4.5913,4.6007,4.6066,4.6124,4.6124,4.6085,4.5987,4.5944,0.0,0.0,0.0,0.0,0.0,0.0,0.0,4.5605,4.6219,4.7083,4.7895,4.8741,4.9625,5.0471,5.0702,0.0,0.0,5.0702,5.0702,5.0702,5.0702,5.0702,5.0702,5.203,5.3185,5.3198,5.4586,5.5703,5.5703,5.5703,5.5703,5.5703,5.5703,5.5763,5.5884,5.5904,5.5923,5.5975,5.6012,5.6012,5.6012,5.6012,5.6012,5.6012,5.6031,5.6089,5.6205,5.6195,5.6242,5.63,5.63,5.6369,5.6498,5.6508,5.6543,5.6601,5.6601,5.6601,5.6601,5.6601,5.6992,5.7637,5.7812,5.8672,5.9902,6.0254,6.082,6.1445,6.1621,6.1699,6.1699,0.0,0.0,0.0,0.0,0.0,0.0,0.0,0.0,0.0,0.0,0.0,0.0,0.0,0.0,0.0,0.0,0.0,0.0,0.0,0.0,0.0,4.5643,4.5643,4.5624,4.5586,4.6448,4.7103,4.7472,0.0,0.0,0.0,0.0,0.0,4.7428,0.0,4.6351,4.6348,4.6037,4.594,4.6007,4.6007,4.6008,4.5998,4.5901,4.5854,4.5834,4.5738,0.0,0.0,0.0,0.0,0.0,0.0,0.0,4.8179,4.8606,4.9336,5.0106,5.0567,0.0,0.0,5.0702,0.0,5.0702,5.0702,5.0702,5.0818,5.1203,5.23,5.3185,5.3198,5.4586,5.5703,5.5703,5.5703,5.5703,5.5703,5.5703,5.5744,5.5882,5.5904,5.5923,5.5975,5.6012,5.6012,5.6012,5.6012,5.6012,5.6012,5.6012,5.6031,5.6109,5.6109,5.6128,5.6167,5.6167,5.6244,5.6416,5.6394,5.6471,5.6601,5.6601,5.6601,5.6621,5.7031,5.748,5.7969,5.8769,5.9609,6.0449,6.0859,6.1308,6.1699,6.1699,6.1699,6.1699,0.0,0.0,0.0,0.0,0.0,0.0,0.0,0.0,0.0,0.0,0.0,0.0,0.0,0.0,0.0,0.0,0.0,0.0,0.0,0.0,0.0,0.0,4.5586,4.568,4.5815,4.666,4.7508,4.8337,0.0,0.0,0.0,0.0,0.0,4.8275,0.0,4.718,4.7159,4.6564,4.6313,4.6306,4.6306,4.6307,4.6313,0.0,0.0,4.618,4.6067,4.6028,4.6028,4.6028,0.0,0.0,0.0,0.0,4.9391,4.9413,5.001,5.0702,5.0702,5.0702,5.0702,5.0702,5.0702,0.0,5.0702,5.0818,5.1106,5.1761,5.2589,5.3263,5.3411,5.4682,5.5703,5.5703,5.5703,5.5703,5.5703,5.5703,5.5742,5.5857,5.5904,5.5922,5.5975,5.6012,5.6012,5.6012,5.6012,5.6012,5.6012,5.6012,5.6012,5.6012,5.6012,5.6012,5.6012,5.6012,5.6109,5.6283,5.6329,5.6426,5.6582,5.6758,5.6816,5.6855,5.7598,5.8066,5.8437,5.9824,6.0488,6.0703,6.1426,6.1699,6.1699,6.1699,6.1699,6.1699,0.0,0.0,0.0,0.0,0.0,0.0,0.0,0.0,0.0,0.0,0.0,0.0,0.0,0.0,0.0,0.0,0.0,0.0,4.5586,0.0,0.0,4.5586,4.5586,4.595,4.6698,4.7523,4.8354,0.0,0.0,0.0,0.0,0.0,0.0,4.9183,0.0,0.0,4.7946,4.7966,4.7979,4.7983,4.7983,4.7973,0.0,0.0,0.0,0.0,0.0,0.0,4.7761,4.776,4.7834,0.0,0.0,0.0,4.9394,4.9413,5.001,5.0702,5.0702,0.0,5.0702,0.0,5.0702,5.0702,0.0,0.0,5.178,0.0,5.2589,5.3436,5.4201,5.5066,5.5703,5.5703,5.5703,5.5703,5.5703,5.5703,5.5722,5.5799,5.5866,5.5922,5.5975,5.6012,5.6012,5.6012,5.6012,5.6012,5.6012,5.6012,5.6012,5.6012,5.6012,5.6012,5.6012,5.6012,5.607,5.6205,5.6394,5.6483,5.6543,5.7363,5.7734,5.7734,5.7851,5.8711,6.0078,6.0312,6.0859,6.1543,6.164,6.1699,6.1699,6.1699,6.1699,6.1699,0.0,0.0,0.0,0.0,0.0,0.0,0.0,0.0,0.0,0.0,0.0,0.0,0.0,0.0,0.0,4.5586,4.5586,4.5586,4.5586,4.5586,4.5815,4.6313,4.6333,4.6718,4.7561,4.8411,4.9009,0.0,0.0,0.0,0.0,5.0317,5.0125,0.0,0.0,0.0,0.0,0.0,0.0,4.8182,4.8182,0.0,0.0,0.0,0.0,0.0,0.0,0.0,0.0,0.0,4.8412,4.8816,4.8837,0.0,0.0,0.0,5.0394,5.0702,5.0702,5.0702,5.0702,0.0,5.0702,5.0702,5.0702,0.0,5.205,5.2528,5.3318,5.4049,5.4432,5.5143,5.5703,5.5703,5.5703,5.5703,5.5703,5.5703,5.5722,5.578,5.5845,5.5942,5.5975,5.6012,5.6012,5.6012,5.6012,5.6012,5.6012,5.6012,5.6012,5.6012,5.6012,5.6012,5.6012,5.6012,5.607,5.6205,5.6834,5.7148,5.7207,5.8105,5.8281,5.7949,5.8887,5.9726,6.0449,6.0937,6.1348,6.1699,6.1699,6.1699,6.1699,6.1699,6.1699,6.1699,0.0,0.0,0.0,0.0,0.0,0.0,0.0,0.0,0.0,0.0,0.0,0.0,0.0,0.0,0.0,0.0,4.5586,4.5699,4.593,4.6123,4.6525,4.7178,4.7199,4.7603,4.841,4.9067,0.0,0.0,0.0,0.0,5.0702,5.0702,5.0702,0.0,5.001,0.0,0.0,0.0,0.0,0.0,0.0,0.0,0.0,0.0,0.0,0.0,0.0,0.0,0.0,0.0,0.0,0.0,0.0,0.0,0.0,0.0,0.0,5.0702,0.0,0.0,5.0702,5.0702,5.0702,5.0741,0.0,0.0,5.2492,0.0,5.4218,5.4797,5.4797,5.5299,5.5703,5.5703,5.5703,5.5703,5.5703,5.5703,5.5722,5.5761,5.5844,5.5885,5.5975,5.5993,5.6012,5.6012,5.6012,5.6012,5.6012,5.6012,5.6012,5.6012,5.6012,5.6012,5.6012,5.6012,5.6167,5.6495,5.7211,5.769,5.7992,5.8903,5.9023,5.8574,5.9844,6.0527,6.0781,6.1426,6.1699,6.1699,6.1699,6.1699,6.1699,6.1699,6.1699,6.1699,0.0,0.0,0.0,0.0,0.0,0.0,0.0,0.0,0.0,0.0,0.0,0.0,0.0,4.5586,4.5586,4.5586,4.5586,4.595,4.6775,4.7561,4.7985,4.8043,4.8029,0.0,4.9317,4.9375,0.0,0.0,0.0,0.0,5.0702,5.0702,5.0702,5.0702,5.0644,5.0625,5.0625,0.0,0.0,0.0,0.0,0.0,0.0,0.0,0.0,0.0,0.0,0.0,0.0,0.0,0.0,0.0,0.0,0.0,0.0,0.0,0.0,0.0,0.0,5.0702,0.0,5.0702,5.0702,5.0914,0.0,0.0,5.3378,5.4239,5.5066,5.5645,5.5645,5.5665,5.5703,5.5703,5.5703,5.5703,5.5703,5.5703,5.5703,5.5703,5.5742,5.5845,5.5898,5.5973,5.6012,5.6012,5.6012,5.6012,5.6012,5.6012,5.6012,5.6012,5.6012,5.6012,5.6012,5.6012,5.6418,5.725,5.7366,5.7848,5.8693,5.9753,6.0215,6.0176,6.0332,6.0879,6.164,6.168,6.1699,6.1699,6.1699,6.1699,6.1699,6.1699,6.1699,6.1699,0.0,0.0,0.0,0.0,0.0,0.0,0.0,0.0,0.0,0.0,0.0,0.0,0.0,4.6429,4.6641,4.7159,4.7197,4.7353,4.7664,4.7952,4.8355,4.8894,4.8933,4.9336,5.0221,0.0,0.0,0.0,0.0,5.0702,5.0702,5.0702,5.0702,5.0702,5.0702,5.0702,5.0702,5.0702,0.0,0.0,0.0,0.0,0.0,0.0,0.0,0.0,0.0,0.0,0.0,0.0,0.0,0.0,0.0,0.0,0.0,0.0,0.0,0.0,0.0,0.0,0.0,5.0702,5.1087,5.1549,5.1838,5.3011,5.4126,5.4451,5.5124,5.5703,5.5703,5.5703,5.5703,5.5703,5.5703,5.5703,5.5703,5.5703,5.5703,5.5703,5.5761,5.5822,5.5826,5.5904,5.5942,5.5998,5.5998,5.5996,5.6012,5.6012,5.6263,5.6824,5.6844,5.7095,5.7656,5.7675,5.783,5.8139,5.8739,5.9184,5.9571,6.0565,6.1054,6.1133,6.1211,6.1406,6.1699,6.1699,6.1699,6.1699,6.1699,6.1699,6.1699,6.1699,6.1699,6.1699,0.0,0.0,0.0,0.0,0.0,0.0,0.0,0.0,0.0,0.0,0.0,0.0,0.0,0.0,4.7527,4.8065,4.8373,4.8547,4.8529,4.8798,4.9221,4.9817,4.9836,5.0106,5.0683,0.0,0.0,0.0,0.0,0.0,0.0,5.0702,5.0702,5.0702,5.0702,5.0702,0.0,0.0,0.0,5.0702,0.0,0.0,5.0702,0.0,0.0,0.0,0.0,0.0,0.0,0.0,0.0,0.0,0.0,0.0,0.0,0.0,0.0,0.0,5.0702,0.0,0.0,0.0,5.1299,5.1992,5.228,5.3451,5.4586,5.4855,5.5338,5.5703,5.5703,5.5703,5.5703,5.5703,5.5703,5.5703,5.5703,5.5703,5.5703,5.5703,5.5742,5.5782,5.5803,5.5845,5.5905,5.5999,5.625,0.0,5.6437,5.6708,5.7134,5.7714,5.7733,5.8004,5.8584,5.8604,5.8739,5.9029,5.9609,6.0054,6.0383,6.106,6.1434,6.1548,6.1639,6.168,6.1699,6.1699,6.1699,6.1699,6.1699,6.1699,6.1699,6.1699,6.1699,6.1699,0.0,0.0,0.0,0.0,0.0,0.0,0.0,0.0,0.0,0.0,0.0,0.0,0.0,0.0,0.0,4.8183,4.8952,4.9433,4.9433,5.024,5.0702,5.0702,5.0702,5.0702,5.0702,0.0,0.0,0.0,0.0,0.0,0.0,0.0,5.0702,5.0702,5.0702,5.0702,5.0702,0.0,5.0702,5.0702,0.0,5.0702,5.0702,0.0,0.0,0.0,5.0702,5.0702,0.0,0.0,0.0,0.0,0.0,0.0,0.0,0.0,0.0,0.0,0.0,0.0,0.0,0.0,5.1318,5.2165,5.3006,5.3891,5.4759,5.5549,5.5703,5.5703,5.5703,5.5703,5.5703,5.5703,5.5703,5.5703,5.5703,5.5703,5.5703,5.5703,5.5703,5.5724,5.5788,5.5826,5.5885,5.6019,5.6772,5.7273,5.7346,5.8159,5.8642,5.8642,5.8662,5.8662,5.8662,5.8662,5.9087,5.9938,5.9938,6.0344,6.1099,6.1234,6.1326,6.1412,6.1548,6.164,6.1699,6.1699,6.1699,6.1699,6.1699,6.1699,6.1699,6.1699,6.1699,6.1699,0.0,0.0,0.0,0.0,0.0,0.0,0.0,0.0,0.0,0.0,0.0,0.0,0.0,0.0,0.0,4.9971,5.0202,5.0337,5.0337,5.0567,5.0702,5.0702,5.0702,5.0702,5.0702,0.0,0.0,0.0,0.0,0.0,0.0,0.0,0.0,0.0,5.0702,5.0702,5.0702,5.0702,0.0,0.0,5.0702,5.0702,0.0,0.0,0.0,0.0,0.0,5.0702,0.0,0.0,5.0702,5.0702,0.0,0.0,0.0,0.0,0.0,0.0,5.0702,0.0,0.0,0.0,0.0,0.0,5.3161,5.4314,5.5434,5.5645,5.5703,5.5703,5.5703,5.5703,5.5703,5.5703,5.5703,5.5703,5.5703,5.5703,5.5703,5.5703,5.5703,5.5724,5.5724,5.6304,5.6731,0.0,5.7603,5.8124,5.8236,5.9068,5.9532,5.9532,6.0093,6.0402,6.0402,6.0402,6.0538,6.077,6.077,6.0886,6.1099,6.1234,6.1328,6.1403,6.1544,6.164,6.1699,6.1699,6.1699,6.1699,6.1699,6.1699,6.1699,6.1699,6.1699,6.1699,0.0,0.0,0.0,0.0,0.0,0.0,0.0,0.0,0.0,0.0,0.0,0.0,0.0,0.0,0.0,0.0,5.0702,5.0702,5.0702,5.0702,5.0702,5.0702,5.0702,5.0702,5.0702,0.0,0.0,0.0,0.0,0.0,0.0,0.0,0.0,0.0,0.0,0.0,0.0,0.0,0.0,0.0,5.0702,0.0,0.0,5.0702,5.0702,0.0,0.0,0.0,5.0702,5.0702,5.0702,0.0,0.0,0.0,0.0,0.0,0.0,0.0,0.0,0.0,0.0,0.0,0.0,0.0,5.3661,5.4759,5.5703,5.5703,5.5703,5.5703,5.5703,5.5703,5.5703,5.5703,5.5703,5.5703,5.5703,5.5703,5.5703,5.5703,5.5703,5.5838,5.6203,5.6703,5.7189,5.7679,5.847,5.9147,5.9629,6.0112,6.0402,6.0402,6.0867,6.1099,6.1099,6.1099,6.1099,6.1099,6.1099,6.1099,6.1099,6.1176,6.1273,6.1368,6.1467,6.1573,6.166,6.1699,6.1699,6.1699,6.1699,6.1699,6.1699,6.1699,6.1699,6.1699,0.0,0.0,0.0,0.0,0.0,0.0,0.0,0.0,0.0,0.0,0.0,0.0,0.0,0.0,0.0,0.0,5.0702,5.0702,5.0702,5.0702,0.0,5.0702,5.0702,5.0702,5.0702,5.0702,0.0,0.0,0.0,0.0,0.0,0.0,0.0,0.0,0.0,0.0,0.0,0.0,0.0,5.0702,5.0702,5.0702,0.0,0.0,5.0702,0.0,5.0818,5.0837,5.0856,5.0952,5.0991,0.0,0.0,0.0,0.0,0.0,5.076,0.0,0.0,0.0,0.0,0.0,0.0,0.0,5.4316,5.5105,5.5703,5.5703,5.5703,5.5703,5.5703,5.5703,5.5703,5.5703,5.5703,5.5703,5.5703,5.5703,5.5703,5.5703,5.578,5.6145,5.6934,5.7184,5.7632,5.8469,5.9338,6.021,6.106,6.1099,6.1099,6.1099,6.1099,6.1099,6.1099,6.1099,6.1099,6.1099,6.1099,6.1099,6.1099,6.1099,6.1176,6.1291,6.1376,6.1472,6.1601,6.168,6.1699,6.1699,6.1699,6.1699,6.1699,6.1699,6.1699,6.1699,0.0,0.0,0.0,0.0,0.0,0.0,0.0,0.0,0.0,0.0,0.0,0.0,0.0,0.0,0.0,0.0,0.0,5.0702,0.0,0.0,5.0702,5.0702,5.0702,5.0702,5.0702,5.0702,5.0702,0.0,0.0,0.0,0.0,0.0,0.0,0.0,0.0,0.0,0.0,0.0,0.0,5.0702,5.0702,0.0,5.0702,5.0702,5.0702,5.0779,5.1414,5.1665,5.178,0.0,5.2704,5.2589,0.0,0.0,0.0,0.0,0.0,0.0,0.0,0.0,0.0,0.0,0.0,0.0,5.447,5.5105,5.5703,5.5703,5.5703,5.5703,5.5703,5.5703,5.5703,5.5703,5.5703,5.5703,5.5703,5.5703,5.5703,5.5703,5.6316,5.6794,5.6967,5.8219,5.9111,5.935,6.0227,6.0848,6.1099,6.1099,6.1099,6.1099,6.1099,6.1099,6.1099,6.1099,6.1099,6.1099,6.1099,6.1099,6.1099,6.1099,6.1176,6.1292,6.1382,6.147,6.1601,6.168,6.1699,6.1699,6.1699,6.1699,6.1699,6.1699,6.1699,6.1699,0.0,0.0,0.0,0.0,0.0,0.0,0.0,0.0,0.0,0.0,0.0,0.0,0.0,0.0,0.0,0.0,0.0,0.0,0.0,0.0,5.0702,5.0702,5.0702,5.0702,5.0702,5.0702,5.0702,5.0702,5.0702,0.0,0.0,0.0,0.0,0.0,0.0,0.0,0.0,0.0,5.1549,5.1915,5.1472,0.0,5.1337,5.178,5.1953,5.1992,5.2396,5.2549,5.2605,5.3049,5.3203,0.0,0.0,5.2838,5.3032,0.0,5.2242,5.2454,0.0,0.0,0.0,5.3088,0.0,0.0,0.0,5.5415,5.5703,5.5703,5.5703,5.5703,5.5703,5.5703,5.5703,5.5703,5.5703,5.5838,5.6282,5.5974,5.5857,5.6302,5.6722,5.7338,5.8158,5.9008,5.9727,6.0258,6.073,6.1022,6.1099,6.1099,6.1099,6.1099,6.1099,6.1099,6.1099,6.1099,6.1099,6.1099,6.1099,6.1099,6.1099,6.1099,6.1137,6.1215,6.1311,6.1408,6.151,6.1619,6.168,6.1699,6.1699,6.1699,6.1699,6.1699,6.1699,6.1699,0.0,0.0,0.0,0.0,0.0,0.0,0.0,0.0,0.0,0.0,0.0,0.0,0.0,0.0,0.0,0.0,0.0,0.0,0.0,0.0,0.0,0.0,5.0702,5.0702,5.0702,5.0702,5.0702,5.0702,5.0702,5.0702,0.0,0.0,0.0,0.0,0.0,0.0,0.0,0.0,0.0,5.3167,0.0,5.2299,5.2222,5.2935,5.3205,5.3224,5.3398,5.3549,5.3678,5.3678,0.0,5.364,5.3505,5.3568,0.0,0.0,0.0,0.0,0.0,0.0,0.0,0.0,0.0,5.4893,0.0,0.0,0.0,5.5703,5.5703,0.0,0.0,0.0,0.0,0.0,0.0,0.0,0.0,5.6492,0.0,5.7151,5.7401,5.8014,5.9373,5.9661,6.0115,6.0938,6.1,6.1022,6.1099,6.1099,6.1099,6.1099,6.1099,6.1099,6.1099,6.1099,6.1099,6.1099,6.1099,6.1099,6.1099,6.1099,6.1099,6.1118,6.1234,6.133,6.1392,6.1545,6.1621,6.168,6.1699,6.1699,6.1699,6.1699,6.1699,6.1699,4.4701,4.5369,0.0,0.0,0.0,0.0,0.0,0.0,0.0,0.0,0.0,0.0,0.0,0.0,0.0,0.0,0.0,0.0,5.0702,0.0,0.0,0.0,0.0,0.0,5.0702,5.0702,5.0702,5.0702,5.0702,5.0702,5.0702,0.0,0.0,0.0,5.1433,0.0,0.0,0.0,5.3102,0.0,5.393,5.3738,0.0,5.3159,5.3198,5.3315,5.4086,5.4797,5.5434,0.0,5.5434,5.5299,0.0,5.4836,0.0,0.0,0.0,0.0,0.0,0.0,0.0,0.0,5.5028,0.0,0.0,0.0,5.5703,5.5703,0.0,0.0,0.0,0.0,0.0,0.0,0.0,0.0,5.7923,5.7393,5.7197,5.8058,5.8784,5.9296,5.9465,6.025,6.0817,6.0993,6.1,6.1022,6.1099,6.1099,6.1099,6.1099,6.1099,6.1099,6.1099,6.1099,6.1099,6.1099,6.1099,6.1099,6.1099,6.1099,6.1099,6.1118,6.1234,6.1291,6.1339,6.152,6.1601,6.1621,6.168,6.1699,6.1699,6.1699,6.1699,6.1699,0.0,4.5348,0.0,0.0,0.0,0.0,0.0,0.0,0.0,0.0,0.0,0.0,0.0,0.0,0.0,0.0,0.0,5.0409,0.0,0.0,0.0,0.0,0.0,0.0,0.0,5.0702,5.0702,5.0702,5.0702,5.0702,5.0702,5.1183,0.0,0.0,5.2281,0.0,5.3433,0.0,0.0,0.0,0.0,0.0,0.0,5.4662,5.4662,5.4701,5.5047,5.5415,5.5703,0.0,5.5703,0.0,0.0,0.0,0.0,0.0,0.0,0.0,0.0,0.0,0.0,0.0,0.0,0.0,0.0,0.0,5.5703,0.0,0.0,0.0,0.0,0.0,0.0,0.0,5.5929,0.0,0.0,0.0,5.8058,0.0,0.0,0.0,6.0258,6.068,6.0918,6.0978,6.1001,6.1022,6.1099,6.1099,6.1099,6.1099,6.1099,6.1099,6.1099,6.1099,6.1099,6.1099,6.1099,6.1099,6.1099,6.1099,6.1099,6.1099,6.1157,6.1234,6.131,6.1421,6.153,6.1601,6.168,6.1699,6.1699,6.1699,6.1699,6.1699,0.0,0.0,0.0,0.0,0.0,0.0,0.0,0.0,0.0,0.0,0.0,0.0,5.0544,5.0421,0.0,0.0,0.0,5.0401,0.0,0.0,5.0991,0.0,0.0,0.0,0.0,0.0,5.1376,5.1376,5.1279,5.1241,5.126,5.1857,5.2127,0.0,0.0,5.3916,5.4507,0.0,0.0,5.5703,5.5703,5.5703,5.5703,5.5703,5.5703,5.5703,5.5703,5.5703,5.5703,5.5703,5.5703,0.0,5.5703,0.0,0.0,0.0,0.0,0.0,5.5703,0.0,0.0,0.0,0.0,0.0,0.0,0.0,0.0,0.0,0.0,0.0,0.0,0.0,0.0,0.0,0.0,5.6387,0.0,5.8434,0.0,0.0,0.0,0.0,0.0,6.0949,6.0957,6.1,6.1021,6.1041,6.108,6.1099,6.1099,6.1099,6.1099,6.1099,6.1099,6.1099,6.1099,6.1099,6.1099,6.1099,6.1099,6.1099,6.1099,6.1099,6.1099,6.1157,6.1253,6.1331,6.144,6.1553,6.164,6.168,6.1699,6.1699,6.1699,6.1699,4.746,4.7627,0.0,0.0,0.0,0.0,0.0,0.0,0.0,0.0,0.0,0.0,0.0,0.0,0.0,0.0,0.0,5.0994,5.0956,0.0,5.2608,0.0,0.0,0.0,0.0,0.0,0.0,5.3128,5.2781,5.2627,5.2627,5.2647,5.2684,5.2735,5.393,5.447,5.4566,5.5338,5.5684,5.5703,5.5703,5.5703,5.5703,0.0,5.5703,5.5703,5.5703,0.0,0.0,5.5703,5.5703,0.0,0.0,0.0,0.0,0.0,0.0,0.0,0.0,0.0,0.0,5.5703,0.0,0.0,0.0,0.0,5.5703,0.0,0.0,0.0,0.0,0.0,0.0,0.0,0.0,0.0,0.0,0.0,0.0,0.0,0.0,0.0,0.0,6.1016,6.1004,6.0995,6.106,6.108,6.1002,6.106,6.1099,6.1099,6.1099,6.1099,6.1099,6.1099,6.1099,6.1099,6.1099,6.1099,6.1099,6.1099,6.1099,6.1099,6.1099,6.1099,6.1118,6.1253,6.1337,6.142,6.1553,6.164,6.1699,6.1699,6.1699,6.1699,0.0,0.0,0.0,0.0,0.0,0.0,0.0,4.9488,0.0,0.0,0.0,0.0,0.0,0.0,5.0805,0.0,0.0,5.1513,5.1551,5.2096,0.0,0.0,0.0,5.299,0.0,0.0,0.0,0.0,0.0,5.2709,5.2698,5.3308,5.367,5.393,0.0,5.5299,0.0,0.0,0.0,0.0,0.0,5.5703,5.5703,0.0,0.0,5.5703,5.5703,5.5703,0.0,5.5703,5.5703,5.5703,5.5703,5.5703,5.5703,5.5703,5.5703,0.0,0.0,0.0,5.5703,5.5703,0.0,0.0,0.0,0.0,0.0,0.0,0.0,0.0,0.0,0.0,0.0,0.0,0.0,0.0,0.0,0.0,0.0,0.0,0.0,0.0,0.0,0.0,6.0974,6.0959,6.0999,6.1021,6.1002,6.1022,6.1041,6.1099,6.1099,6.1099,6.1099,6.1099,6.1099,6.1099,6.1099,6.1099,6.1099,6.1099,6.1099,6.1099,6.1195,6.1234,6.1253,6.1408,6.1442,6.141,6.1592,6.164,6.164,6.168,6.1699,6.1699,4.8797,0.0,0.0,0.0,0.0,0.0,0.0,0.0,0.0,0.0,4.9795,0.0,5.1378,0.0,5.1456,0.0,5.2159,5.2094,5.2063,5.2658,0.0,5.2941,5.3461,0.0,0.0,0.0,0.0,0.0,0.0,5.3459,5.344,5.4018,5.4335,5.4449,0.0,5.5453,5.5568,0.0,5.5607,0.0,0.0,5.5703,0.0,0.0,5.5703,5.5703,0.0,5.5703,5.5703,5.5703,5.5703,5.5703,5.5703,5.5703,5.5703,5.5703,5.5703,5.5703,5.5703,5.5703,0.0,5.5703,5.5703,0.0,5.5703,0.0,0.0,0.0,0.0,0.0,0.0,0.0,0.0,0.0,0.0,0.0,0.0,5.9919,0.0,0.0,0.0,0.0,0.0,0.0,6.0971,6.0914,6.0955,6.0997,0.0,6.0982,6.1022,6.106,6.108,6.1099,6.1099,6.1099,6.1099,6.1099,6.1157,6.1176,6.1176,6.1195,6.1215,6.1215,6.1292,6.1326,6.1345,6.1497,6.1475,6.1425,6.1598,6.1635,6.1601,6.168,6.1699,6.1699,0.0,0.0,0.0,0.0,4.8927,0.0,0.0,0.0,4.9262,0.0,5.0172,5.0929,5.2856,5.21,5.1918,5.3031,5.2826,0.0,5.2659,5.3701,0.0,0.0,5.4608,5.4788,5.4748,0.0,0.0,0.0,0.0,0.0,5.4802,5.4768,5.4617,5.4345,5.4693,0.0,5.5311,5.5297,5.5453,5.5684,5.5684,5.5703,5.5703,5.5703,5.5703,5.5703,5.5703,5.5703,5.5703,5.5703,5.5703,5.5703,5.5703,5.5703,5.5703,5.5703,5.5703,5.5703,5.5703,5.5703,5.5703,5.5703,0.0,0.0,0.0,0.0,5.5818,0.0,0.0,0.0,0.0,0.0,0.0,0.0,0.0,0.0,0.0,0.0,0.0,0.0,0.0,0.0,0.0,6.0993,6.0954,6.0896,6.0946,6.0971,0.0,6.096,6.1002,6.1002,6.106,6.1099,6.1099,6.1099,6.1099,6.1099,6.1234,6.1292,6.1292,6.1369,6.1407,6.1406,6.1407,6.1419,6.1422,6.1422,6.1415,6.1408,6.1543,6.1604,6.1601,6.168,6.1699,6.1699,4.8804,4.8874,4.9094,0.0,4.9299,4.9113,0.0,0.0,0.0,0.0,5.1063,5.1508,5.2586,5.2456,5.2624,5.3553,5.3533,0.0,0.0,0.0,0.0,5.3943,5.4484,5.4559,5.409,5.4764,0.0,5.4555,0.0,0.0,5.4804,5.4528,5.4518,5.4687,0.0,0.0,5.531,5.5306,5.5338,5.5434,5.5626,5.5703,0.0,0.0,5.5703,5.5703,5.5703,5.5703,5.5703,5.5703,5.5703,5.5703,5.5703,5.5703,5.5703,5.5703,5.5703,5.5703,5.5703,5.5703,5.5703,5.5703,5.6186,5.6689,0.0,0.0,0.0,0.0,0.0,0.0,0.0,0.0,0.0,0.0,0.0,0.0,0.0,0.0,0.0,6.0819,0.0,0.0,6.0925,6.0916,6.0896,6.0819,6.0888,0.0,0.0,0.0,6.1021,6.108,6.1041,6.1041,6.1099,6.1099,6.1099,6.1099,6.1137,6.1195,6.1292,6.1311,6.1352,6.1414,6.1513,6.1541,6.1559,6.1595,6.1586,6.1543,6.164,6.1662,6.168,6.1699,6.1699,6.1699,4.8804,0.0,0.0,5.0023,0.0,0.0,5.0599,0.0,0.0,5.1806,5.1918,0.0,5.3051,5.3126,5.3312,5.3757,5.3813,0.0,0.0,0.0,0.0,5.3813,5.4167,5.4204,5.3813,5.4334,0.0,5.4295,0.0,0.0,5.4572,5.4402,5.4315,5.4352,5.4577,5.4739,5.4867,5.5017,5.5091,5.5105,5.5415,5.553,0.0,5.609,5.6263,5.6321,5.6708,5.634,5.5703,5.5703,5.5955,5.6263,5.6263,5.6533,5.6843,5.6843,5.6843,5.6843,5.6843,5.6843,5.6843,5.6843,5.7208,5.7574,5.7569,5.7953,5.8303,0.0,0.0,0.0,0.0,0.0,0.0,0.0,0.0,0.0,0.0,0.0,0.0,0.0,6.0819,0.0,6.0901,6.0911,6.0881,6.085,6.0891,0.0,0.0,0.0,6.102,6.106,6.1041,6.1061,6.1099,6.1099,6.1099,6.1099,6.1157,6.1234,6.1292,6.133,6.1409,6.149,6.1558,6.1626,6.1646,6.1684,6.167,6.1604,6.1646,6.1662,6.1699,6.1699,6.1699,6.1699,0.0,0.0,0.0,0.0,0.0,0.0,0.0,5.1621,0.0,5.2661,0.0,5.3014,5.372,5.3813,5.3813,5.3813,0.0,5.3813,5.3813,5.3813,5.3813,5.3813,5.3813,5.3813,5.3813,5.385,0.0,0.0,0.0,0.0,5.4297,5.426,5.4092,5.3813,5.385,0.0,0.0,5.4668,5.4797,5.4848,5.527,5.5477,5.5645,5.6766,5.717,5.7264,5.8017,5.7324,5.6051,5.6051,5.6533,5.717,5.7167,5.769,5.8308,5.8308,5.8308,5.8308,5.8308,5.8308,5.8308,5.8308,5.8385,5.846,5.8466,5.8539,5.8615,5.8615,5.8615,5.885,0.0,0.0,0.0,0.0,0.0,0.0,0.0,0.0,0.0,0.0,0.0,0.0,6.0885,6.0904,6.0908,6.0899,6.0916,0.0,0.0,0.0,6.1001,6.0997,6.106,6.1099,6.1099,6.1099,6.1099,6.1099,6.1215,6.1273,6.1311,6.1363,6.1463,6.1592,6.1601,6.164,6.1699,6.1699,6.168,6.1619,6.1608,6.1656,6.1699,6.1699,6.1699,6.1699,0.0,0.0,0.0,0.0,0.0,5.2605,5.3292,5.2828,5.2679,5.3478,5.359,5.3645,5.3775,5.3813,5.3813,5.3813,5.3813,0.0,0.0,0.0,0.0,5.3813,5.3813,5.3813,5.3813,5.4092,5.4224,0.0,0.0,0.0,5.4278,5.3998,5.3868,5.3813,5.4111,0.0,5.431,5.4671,0.0,5.4886,5.5894,5.6462,5.6804,5.773,5.8072,5.8101,5.8254,5.8088,5.7846,5.7846,5.7942,5.8077,5.8066,5.8177,5.8293,5.8293,5.8293,5.8293,5.8293,5.8293,5.8293,5.8293,5.8816,5.9296,5.9292,5.9854,6.0377,6.0377,6.0377,6.0416,6.055,0.0,0.0,0.0,0.0,0.0,0.0,0.0,0.0,0.0,0.0,0.0,0.0,6.0902,6.0918,0.0,0.0,0.0,0.0,0.0,6.1002,0.0,6.1002,0.0,0.0,0.0,6.1099,6.1099,6.1118,6.1195,6.1292,6.1307,6.1433,6.1589,6.1607,6.164,6.1699,6.1699,6.1699,6.1679,6.169,6.1692,6.1699,6.1699,6.1699,6.1699,0.0,0.0,0.0,0.0,0.0,0.0,0.0,5.3459,0.0,5.3757,5.3813,5.3813,5.3813,5.3813,5.3813,5.3813,5.3813,5.3813,5.3813,5.3813,5.3813,5.3813,5.3813,0.0,5.3813,5.3943,5.4017,5.4017,0.0,0.0,0.0,0.0,5.3813,5.3813,5.3961,5.4278,0.0,0.0,0.0,5.5641,5.633,5.6828,5.7277,5.828,5.8758,5.8985,5.9427,5.9608,5.946,5.8588,5.8569,5.8938,5.8908,5.9235,5.9604,5.9604,5.9604,5.9604,5.9604,5.9604,5.9604,5.9604,5.9892,6.0161,6.0161,6.0512,6.08,6.08,6.08,6.08,6.08,6.08,0.0,0.0,0.0,0.0,0.0,0.0,0.0,0.0,0.0,0.0,0.0,0.0,0.0,0.0,0.0,6.0981,6.0955,0.0,6.1041,0.0,0.0,0.0,6.1099,0.0,6.1099,6.1099,6.1099,6.1137,6.1195,6.1195,6.1292,6.1445,6.1489,6.1548,6.164,6.1699,6.1699,6.1699,6.1699,6.1699,6.1699,6.1699,6.1699,6.1699,0.0,5.2024,0.0,0.0,5.3193,0.0,5.3695,5.3754,5.3774,5.3813,5.3813,5.3813,5.3813,5.3813,5.3813,5.3813,5.3813,5.3813,5.3813,5.3813,5.3813,5.3813,5.3813,5.3813,5.3813,5.3813,5.3813,0.0,0.0,0.0,0.0,0.0,0.0,0.0,0.0,0.0,0.0,0.0,5.5711,5.6406,5.6825,5.7225,5.7668,5.8832,5.9427,5.9777,6.0531,6.08,6.0608,5.9273,5.9254,5.9777,5.9777,6.0238,6.08,6.08,6.08,6.08,6.08,6.08,6.08,6.08,6.08,6.08,6.08,6.08,6.08,6.08,6.08,6.08,6.08,6.08,0.0,0.0,0.0,0.0,0.0,0.0,0.0,0.0,0.0,0.0,0.0,0.0,0.0,0.0,0.0,6.0981,6.0914,6.1021,6.106,0.0,0.0,6.1099,6.1099,0.0,6.1099,6.1099,6.1099,6.1099,6.1099,6.1099,6.1176,6.1291,6.1369,6.1458,6.1601,6.168,6.1699,6.1699,6.1699,6.1699,6.1699,6.1699,6.1699,6.1699,0.0,0.0,0.0,0.0,0.0,0.0,5.3656,5.3714,5.3734,5.3813,5.3813,5.3813,5.3813,5.3813,5.3813,5.3813,5.3813,5.3813,5.3813,5.3813,5.3813,5.3813,5.3813,5.3813,5.3813,5.3813,5.3813,0.0,0.0,0.0,0.0,0.0,0.0,0.0,0.0,0.0,0.0,5.6184,5.6358,5.6755,5.7553,5.8061,5.8519,5.9701,6.02,6.0277,6.0666,6.08,6.0781,6.0627,6.0627,6.0685,6.0685,6.0723,6.08,6.08,6.08,6.08,6.08,6.08,6.08,6.08,6.08,6.08,6.08,6.08,6.08,6.08,6.08,6.08,6.08,6.08,6.08,0.0,0.0,0.0,0.0,0.0,0.0,0.0,0.0,0.0,0.0,6.0959,0.0,0.0,6.1001,6.1001,6.0997,6.1001,6.1001,6.0997,6.106,6.1099,6.1099,6.1099,6.1099,6.1099,6.1099,6.1099,6.1099,6.1099,6.1176,6.1292,6.131,6.1409,6.1601,6.168,6.1699,6.1699,6.1699,6.1699,6.1699,6.1699,6.1699,6.1699,0.0,0.0,0.0,0.0,0.0,0.0,0.0,5.3676,5.3793,5.3813,5.3813,5.3813,5.3813,5.3813,5.3813,5.3813,5.3813,5.3813,5.3813,5.3813,5.3813,5.3813,5.3813,5.3813,5.3813,5.3813,5.3813,0.0,0.0,0.0,0.0,0.0,0.0,0.0,0.0,5.6262,5.7008,5.7015,5.7367,5.7928,5.8285,5.8642,5.8967,5.9457,5.99,6.0339,6.0454,6.0627,6.08,6.08,6.08,6.08,6.08,6.08,6.08,6.08,6.08,6.08,6.08,6.08,6.08,6.08,6.08,6.08,6.08,6.08,6.08,6.08,6.08,6.08,6.08,6.08,6.08,0.0,0.0,0.0,0.0,0.0,0.0,0.0,0.0,0.0,0.0,0.0,0.0,0.0,0.0,6.1041,6.0997,6.1041,6.1041,6.1,0.0,6.1099,6.1099,6.1099,6.1099,6.1099,6.1099,6.1099,6.1099,6.1099,6.1176,6.1292,6.1331,6.1445,6.1601,6.168,6.1699,6.1699,6.1699,6.1699,6.1699,6.1699,6.1699,6.1699,5.3206,0.0,5.3254,0.0,5.3373,5.3536,5.3499,5.3619,5.3717,5.3794,5.3813,5.3813,5.3813,5.3813,5.3813,5.3813,5.3813,5.3813,5.3813,5.3813,5.3813,5.3813,5.3813,0.0,5.3813,5.3813,5.3905,5.4167,5.4167,0.0,0.0,0.0,0.0,0.0,5.6626,5.7103,5.7854,5.7854,5.8192,5.8716,5.8716,5.8828,5.9074,5.9167,5.9513,6.0017,6.0219,6.0454,6.0666,6.0762,6.08,6.08,6.08,6.08,6.08,6.08,6.08,6.08,6.08,6.08,6.08,6.08,6.08,6.08,6.08,6.08,6.08,6.08,6.08,6.08,6.08,6.08,6.08,6.08,0.0,0.0,0.0,0.0,0.0,0.0,6.08,6.08,6.08,6.0846,0.0,0.0,0.0,6.106,6.0997,6.1041,0.0,0.0,0.0,0.0,6.1099,6.1099,6.1099,6.1099,6.1099,6.1099,6.1099,6.1099,6.1157,6.1253,6.135,6.1447,6.155,6.1659,6.1699,6.1699,6.1699,6.1699,6.1699,6.1699,6.1699,6.1699,5.3206,5.3206,5.3206,5.3206,5.3206,5.3272,5.3459,5.3499,5.3561,5.3756,5.3813,5.3813,5.3813,5.3813,5.3813,5.3813,5.3813,5.3813,5.3813,5.3813,5.3813,0.0,0.0,5.3813,5.3813,5.3813,5.4204,5.5006,0.0,0.0,5.7453,0.0,5.7478,5.7478,5.7497,5.7928,5.8698,5.8698,5.8698,5.8716,5.8716,5.8716,5.8735,5.9093,5.9204,5.93,6.0026,6.0319,6.0377,6.0685,6.08,6.08,6.08,6.08,6.08,6.08,6.08,6.08,6.08,6.08,6.08,6.08,6.08,6.08,6.08,6.08,6.08,6.08,6.08,6.08,6.08,6.08,6.08,6.08,0.0,0.0,0.0,0.0,0.0,0.0,6.08,6.08,6.08,6.0846,0.0,0.0,0.0,0.0,0.0,0.0,0.0,6.0997,6.106,0.0,6.1099,6.1099,6.1099,6.1099,6.1099,6.1099,6.1099,6.1099,6.1099,6.1118,6.1311,6.1399,6.1411,6.1629,6.1699,6.1699,6.1699,6.1699,6.1699,6.1699,6.1699,6.1699,5.3206,5.3206,5.3206,5.3206,5.323,5.3295,5.3359,5.3499,5.3656,5.3734,5.3774,5.4017,5.4574,5.4128,5.3813,0.0,5.3813,5.3813,0.0,5.4331,5.4608,5.461,5.5206,5.5484,5.5486,5.5489,5.5621,5.5901,0.0,0.0,0.0,5.7501,5.7798,5.8322,5.8322,5.8452,5.8716,5.8716,5.8716,5.8716,5.8716,5.8716,5.8716,5.8809,5.9167,5.9663,5.9891,6.027,6.0666,6.0762,6.08,6.08,6.08,6.08,6.08,6.08,6.08,6.08,6.08,6.08,6.08,6.08,6.08,6.08,6.08,6.08,6.08,6.08,6.08,6.08,6.08,6.08,6.08,6.08,6.08,0.0,0.0,0.0,0.0,0.0,6.08,6.08,6.08,6.0823,0.0,0.0,0.0,0.0,0.0,0.0,0.0,0.0,6.1061,0.0,6.1099,6.1099,6.1099,6.1099,6.1099,6.1099,6.1099,6.1099,6.1099,6.1118,6.1253,6.1361,6.1411,6.157,6.166,6.1699,6.1699,6.1699,6.1699,6.1699,6.1699,6.1699,5.3206,5.3206,5.3206,5.3206,5.323,5.3295,5.3359,5.3758,5.41,5.4179,5.4517,5.4927,5.5429,5.5039,0.0,5.4741,5.4741,5.4741,5.4743,5.5204,5.5479,5.5482,5.6002,5.6302,5.6286,5.6286,0.0,5.6734,5.7037,5.746,5.7946,5.7946,5.8229,5.8716,5.8716,5.8716,5.8716,5.8716,5.8716,5.8716,5.8716,5.8716,5.8716,5.8716,5.8977,5.9398,5.9701,6.0053,6.0473,6.0723,6.08,6.08,6.08,6.08,6.08,6.08,6.08,6.08,6.08,6.08,6.08,6.08,6.08,6.08,6.08,6.08,6.08,6.08,6.08,6.08,6.08,6.08,6.08,6.08,6.08,6.08,6.08,0.0,0.0,0.0,0.0,0.0,0.0,6.08,6.0823,0.0,0.0,0.0,0.0,0.0,0.0,6.0981,6.1041,6.108,6.1099,6.1099,6.1099,6.1099,6.1099,6.1099,6.1099,6.1099,6.1099,6.1118,6.1234,6.1317,6.1362,6.1522,6.1621,6.166,6.1699,6.1699,6.1699,6.1699,6.1699,6.1699,5.3206,5.3206,5.3225,0.0,5.3298,5.3382,5.3607,5.4293,5.4855,5.5055,5.58,5.632,5.6376,5.6376,5.6413,5.6469,0.0,0.0,5.6307,5.636,5.6376,5.6376,5.6447,5.6466,5.6469,5.6455,5.6821,5.7571,5.8341,5.8716,5.8716,5.8716,5.8716,5.8716,5.8716,5.8716,5.8716,5.8716,5.8716,5.8716,5.8716,5.8716,5.8716,5.8716,5.8716,5.8828,5.9512,5.9783,5.9931,6.055,6.0781,6.08,6.08,6.08,6.08,6.08,6.08,6.08,6.08,6.08,6.08,6.08,6.08,6.08,6.08,6.08,6.08,6.08,6.08,6.08,6.08,6.08,6.08,6.08,6.08,6.08,6.08,0.0,0.0,0.0,0.0,0.0,6.08,6.08,6.08,0.0,0.0,0.0,0.0,0.0,6.1,6.0997,6.1001,6.1041,6.1099,6.1099,6.1099,6.1099,6.1099,6.1099,6.1099,6.1099,6.1099,6.1118,6.1234,6.1292,6.1308,6.1498,6.158,6.1581,6.1679,6.1699,6.1699,6.1699,6.1699,6.1699,0.0,0.0,5.339,5.4014,5.4209,5.4496,5.5146,5.5554,5.5788,5.5829,5.6113,5.6525,5.7156,5.723,5.7472,5.8085,5.7008,5.6302,5.6283,5.6859,5.723,5.723,5.7806,5.8141,5.8141,5.8136,5.8248,5.8415,5.8624,5.8716,5.8716,5.8716,5.8716,5.8716,5.8716,5.8716,5.8716,5.8716,5.8716,5.8716,5.8716,5.8716,5.8716,5.8716,5.8846,5.9097,5.9289,5.9709,6.02,6.0377,6.0589,6.08,6.08,6.08,6.08,6.08,6.08,6.08,6.08,6.08,6.08,6.08,6.08,6.08,6.08,6.08,6.08,6.08,6.08,6.08,6.08,6.08,6.08,6.08,6.08,6.08,6.08,6.08,0.0,0.0,6.08,6.08,6.08,6.08,6.0823,0.0,0.0,0.0,6.0888,6.0914,6.0935,6.0997,6.1041,6.108,6.1099,6.1099,6.1099,6.1099,6.1099,6.1099,6.1099,6.1099,6.1099,6.1099,6.1137,6.1215,6.1311,6.1345,6.1398,6.1465,6.1577,6.1621,6.1621,6.168,6.1699,6.1699,5.4216,5.4308,5.4436,5.4858,5.4993,5.5227,5.5779,5.6293,5.6636,5.6741,5.7115,5.7565,5.8011,5.8048,5.8234,5.8661,5.7899,5.7398,5.7398,5.7806,5.8048,5.8048,5.8475,5.8716,5.8716,5.8716,5.8716,5.8716,5.8716,5.8716,5.8716,5.8716,5.8716,5.8716,5.8716,5.8716,5.8716,5.8716,5.8716,5.8716,5.8716,5.8716,5.8716,5.8716,5.8809,5.8977,5.9148,5.9441,5.9847,6.0016,6.0204,6.0373,6.052,6.0569,6.0608,6.0762,6.08,6.08,6.08,6.08,6.08,6.08,6.08,6.08,6.08,6.08,6.08,6.08,6.08,6.08,6.08,6.08,6.08,6.08,6.08,6.08,6.08,6.08,6.08,6.08,6.08,6.08,6.08,6.08,6.0823,6.0846,6.0846,0.0,6.0846,6.0869,6.0933,6.1017,6.104,6.106,6.1099,6.1099,6.1099,6.1099,6.1099,6.1099,6.1099,6.1099,6.1099,6.1099,6.1099,6.1137,6.1215,6.1273,6.132,6.1363,6.1471,6.1559,6.1601,6.164,6.168,6.1699,5.5464,5.5592,5.5629,5.5757,5.582,5.5901,5.6184,5.6897,5.7444,5.7635,5.8271,5.8716,5.8716,5.8716,5.8716,5.8716,5.8716,5.8716,5.8716,5.8716,5.8716,5.8716,5.8716,5.8716,5.8716,5.8716,5.8716,5.8716,5.8716,5.8716,5.8716,5.8716,5.8716,5.8716,5.8716,5.8716,5.8716,5.8716,5.8716,5.8716,5.8716,5.8716,5.8716,5.8716,5.8716,5.8735,5.9037,5.9167,5.9241,5.9577,5.9744,5.9846,6.0177,6.0319,6.0377,6.0704,6.08,6.08,6.08,6.08,6.08,6.08,6.08,6.08,6.08,6.08,6.08,6.08,6.08,6.08,6.08,6.08,6.08,6.08,6.08,6.08,6.08,0.0,6.08,6.08,6.08,6.08,6.08,6.08,6.08,6.08,6.08,6.08,6.08,6.0846,6.0933,6.0976,6.0997,6.104,6.1099,6.1099,6.1099,6.1099,6.1099,6.1099,6.1099,6.1099,6.1099,6.1099,6.1099,6.1099,6.1118,6.1215,6.1273,6.1273,6.135,6.146,6.157,6.1581,6.164,6.1699,5.5574,5.5592,5.5794,5.651,5.6728,5.7037,5.7718,5.8079,5.8325,5.8325,5.854,5.8716,5.8716,5.8716,5.8716,5.8716,5.8716,5.8716,5.8716,5.8716,5.8716,5.8716,5.8716,5.8716,5.8716,5.8716,5.8716,5.8716,5.8716,5.8716,5.8716,5.8716,5.8716,5.8716,5.8716,5.8716,5.8716,5.8716,5.8716,5.8716,5.8716,5.8716,5.8716,5.8716,5.8716,5.8716,5.8754,5.8939,5.9208,5.9265,5.9524,5.9846,6.0177,6.0319,6.0377,6.0704,6.08,6.08,6.08,6.08,6.08,6.08,6.08,6.08,6.08,6.08,6.08,6.08,6.08,6.08,6.08,6.08,6.08,6.08,6.08,6.08,6.08,0.0,6.08,6.08,6.08,6.08,6.08,6.08,6.08,6.08,6.08,6.08,6.08,6.0823,6.0846,6.0891,6.096,6.1041,6.1099,6.1099,6.1099,6.1099,6.1099,6.1099,6.1099,6.1099,6.1099,6.1099,6.1099,6.1099,6.1099,6.1118,6.1137,6.1137,6.1273,6.1365,6.1429,6.1557,6.164,6.1699,5.6804,5.6877,5.7005,5.7373,5.751,5.7684,5.8142,5.8268,5.8356,5.8462,5.8529,5.8596,5.8596,5.8656,5.8716,5.8716,5.8716,5.8716,5.8716,5.8716,5.8716,5.8716,5.8716,5.8716,5.8716,5.8716,5.8716,5.8716,5.8716,5.8716,5.8716,5.8716,5.8716,5.8716,5.8716,5.8716,5.8716,5.8716,5.8716,5.8716,5.8716,5.8716,5.8716,5.8716,5.8716,5.8716,5.8716,5.8791,5.8939,5.9148,5.9316,5.958,6.0121,6.0283,6.0379,6.0695,6.08,6.08,6.08,6.08,6.08,6.08,6.08,6.08,6.08,6.08,6.08,6.08,6.08,6.08,6.08,6.08,6.08,6.08,6.08,0.0,6.08,6.08,6.08,6.08,6.08,6.08,6.08,6.08,6.08,6.08,6.08,6.08,6.08,6.08,6.0823,6.0846,6.096,6.1022,6.1099,6.1099,6.1099,6.1099,6.1099,6.1099,6.1099,6.1099,6.1099,6.1099,6.1099,6.1099,6.1099,6.1099,6.1099,6.1118,6.1176,6.1273,6.1404,6.1459,6.1587,6.1699,5.7886,5.7997,5.7997,5.7997,5.7997,5.8042,5.8152,5.8197,5.8242,5.8349,5.8418,5.8468,5.8511,5.8596,5.8656,5.8716,5.8716,5.8716,5.8716,5.8716,5.8716,5.8716,5.8716,5.8716,5.8716,5.8716,5.8716,5.8716,5.8716,5.8716,5.8716,5.8716,5.8716,5.8716,5.8716,5.8716,5.8716,5.8716,5.8716,5.8716,5.8716,5.8716,5.8716,5.8716,5.8716,5.8716,5.8716,5.8716,5.8735,5.8977,5.915,5.9326,5.9969,6.0232,6.037,6.0704,6.08,6.08,6.08,6.08,6.08,6.08,6.08,6.08,6.08,6.08,6.08,6.08,6.08,6.08,6.08,6.08,6.08,6.08,0.0,6.08,6.08,6.08,6.08,6.08,6.08,6.08,6.08,6.08,6.08,6.08,6.08,6.08,6.08,6.08,6.0823,6.0846,6.0959,6.1041,6.1099,6.1099,6.1099,6.1099,6.1099,6.1099,6.1099,6.1099,6.1099,6.1099,6.1099,6.1099,6.1099,6.1099,6.1099,6.1099,6.1099,6.1215,6.1386,6.1386,6.1515,6.168,5.7997,5.7997,5.7997,5.7997,5.7997,5.7997,5.7997,5.8106,5.8197,5.8197,5.8349,5.8418,5.8511,5.8511,5.8553,5.8716,5.8716,5.8716,5.8716,5.8716,5.8716,5.8716,5.8716,5.8716,5.8716,5.8716,5.8716,5.8716,5.8716,5.8716,5.8716,5.8716,5.8716,5.8716,5.8716,5.8716,5.8716,5.8716,5.8716,5.8716,5.8716,5.8716,5.8716,5.8716,5.8716,5.8716,5.8716,5.8716,5.8716,5.8735,5.8933,5.9273,5.9706,6.0045,6.038,6.0693,6.08,6.08,6.08,6.08,6.08,6.08,6.08,6.08,6.08,6.08,6.08,6.08,6.08,6.08,6.08,6.08,6.08,6.08,0.0,0.0,6.08,6.08,6.08,6.08,6.08,6.08,6.08,6.08,6.08,6.08,6.08,6.08,6.08,6.08,6.0846,6.0976,6.0997,6.104,6.1099,6.1099,6.1099,6.1099,6.1099,6.1099,6.1099,6.1099,6.1099,6.1099,6.1099,6.1099,6.1099,6.1099,6.1099,6.1099,6.1099,6.1176,6.1308,6.1386,6.1495,6.1621,5.7997,5.7997,5.7997,5.7997,5.7997,5.7997,5.7997,5.8042,5.8106,5.8106,5.8197,5.8286,5.8312,5.8443,5.8511,5.8553,5.8656,5.8716,5.8716,5.8716,5.8716,5.8716,5.8716,5.8716,5.8716,5.8716,5.8716,5.8716,5.8716,5.8716,5.8716,5.8716,5.8716,5.8716,5.8716,5.8716,5.8716,5.8716,5.8716,5.8716,5.8716,5.8716,5.8716,5.8716,5.8716,5.8716,5.8716,5.8716,5.8735,5.8921,5.9251,5.9635,6.0003,6.0328,6.0648,6.0772,6.08,6.08,6.08,6.08,6.08,6.08,6.08,6.08,6.08,6.08,6.08,6.08,6.08,6.08,6.08,6.08,6.08,6.08,0.0,6.08,6.08,6.08,6.08,6.08,6.08,6.08,6.08,6.08,6.08,6.08,6.08,6.08,6.08,6.08,6.0846,6.1017,6.0997,6.102,6.1099,6.1099,6.1099,6.1099,6.1099,6.1099,6.1099,6.1099,6.1099,6.1099,6.1099,6.1099,6.1099,6.1099,6.1099,6.1099,6.1099,6.1176,6.1291,6.1333,6.145,6.1601,5.7997,5.7997,5.7997,5.7997,5.7997,5.7997,5.7997,5.7997,5.7997,5.7997,5.8088,5.8152,5.8197,5.8312,5.8425,5.8486,5.8572,5.8656,5.8656,5.8675,5.8716,5.8716,5.8716,5.8716,5.8716,5.8716,5.8716,5.8716,5.8716,5.8716,5.8716,5.8716,5.8716,5.8716,5.8716,5.8716,5.8716,5.8716,5.8716,5.8716,5.8716,5.8716,5.8716,5.8716,5.8716,5.8716,5.8716,5.8716,5.8735,5.8958,5.9297,5.9659,5.989,6.0258,6.0666,6.0762,6.08,6.08,6.08,6.08,6.08,6.08,6.08,6.08,6.08,6.08,6.08,6.08,6.08,6.08,6.08,6.08,6.08,6.08,6.08,6.08,6.08,6.08,6.08,6.08,6.08,6.08,6.08,6.08,6.08,6.08,6.08,6.08,6.08,6.08,6.0846,6.1017,6.0997,6.102,6.1099,6.1099,6.1099,6.1099,6.1099,6.1099,6.1099,6.1099,6.1099,6.1099,6.1099,6.1099,6.1099,6.1099,6.1099,6.1099,6.1099,6.1157,6.1234,6.1273,6.1402,6.1515,5.7997,5.7997,5.7997,5.7997,5.7997,5.7997,5.7997,5.7997,5.7997,5.7997,5.7997,5.8042,5.8197,5.8197,5.826,5.8393,5.8443,5.8511,5.8511,5.8614,5.8716,5.8716,5.8716,5.8716,5.8716,5.8716,5.8716,5.8716,5.8716,5.8716,5.8716,5.8716,5.8716,5.8716,5.8716,5.8716,5.8716,5.8716,5.8716,5.8716,5.8716,5.8716,5.8716,5.8716,5.8716,5.8716,5.8716,5.8716,5.8716,5.8716,5.8902,5.9209,5.9185,5.9696,6.0377,6.0704,6.08,6.08,6.08,6.08,6.08,6.08,6.08,6.08,6.08,6.08,6.08,6.08,6.08,6.08,6.08,6.08,6.08,6.08,6.08,6.08,6.08,6.08,6.08,6.08,6.08,6.08,6.08,6.08,6.08,6.08,6.08,6.08,6.08,6.08,6.0846,6.0997,6.0997,6.102,6.1099,6.1099,6.1099,6.1099,6.1099,6.1099,6.1099,6.1099,6.1099,6.1099,6.1099,6.1099,6.1099,6.1099,6.1099,6.1099,6.1099,6.1099,6.1118,6.1253,6.1292,6.1322,5.7997,5.7997,5.7997,5.7997,5.7997,5.7997,5.7997,5.7997,5.7997,5.7997,5.7997,5.7997,5.8042,5.8242,5.8349,5.8393,5.8548,5.8656,5.8656,5.8675,5.8716,5.8716,5.8716,5.8716,5.8716,5.8716,5.8716,5.8716,5.8716,5.8716,5.8716,5.8716,5.8716,5.8716,5.8716,5.8716,5.8716,5.8716,5.8716,5.8716,5.8716,5.8716,5.8716,5.8716,5.8716,5.8716,5.8716,5.8716,5.8716,5.8716,5.8902,5.925,5.9534,5.9946,6.0339,6.0435,6.0627,6.08,6.08,6.08,6.08,6.08,6.08,6.08,6.08,6.08,6.08,6.08,6.08,6.08,6.08,6.08,6.08,6.08,6.08,6.08,6.08,6.08,6.08,6.08,6.08,6.08,6.08,6.08,6.08,6.08,6.08,6.08,6.08,6.08,6.0846,6.0933,6.0976,6.0999,6.1022,6.108,6.1099,6.1099,6.1099,6.1099,6.1099,6.1099,6.1099,6.1099,6.1099,6.1099,6.1099,6.1099,6.1099,6.1099,6.1099,6.1099,6.1099,6.1137,6.1215,6.1329,5.7997,5.7997,5.7997,5.7997,5.7997,5.7997,5.7997,5.7997,5.7997,5.7997,5.7997,5.7997,5.8088,5.8242,5.8349,5.8393,5.8548,5.8656,5.8716,5.8716,5.8716,5.8716,5.8716,5.8716,5.8716,5.8716,5.8716,5.8716,5.8716,5.8716,5.8716,5.8716,5.8716,5.8716,5.8716,5.8716,5.8716,5.8716,5.8716,5.8716,5.8716,5.8716,5.8716,5.8716,5.8716,5.8716,5.8716,5.8716,5.8716,5.8716,5.8828,5.9093,5.9427,5.972,5.993,6.0219,6.0454,6.0627,6.0762,6.08,6.08,6.08,6.08,6.08,6.08,6.08,6.08,6.08,6.08,6.08,6.08,6.08,6.08,6.08,6.08,6.08,6.08,6.08,6.08,6.08,6.08,6.08,6.08,6.08,6.08,6.08,6.08,6.08,6.08,6.08,6.0823,6.0911,6.0955,6.0999,6.1002,6.108,6.1099,6.1099,6.1099,6.1099,6.1099,6.1099,6.1099,6.1099,6.1099,6.1099,6.1099,6.1099,6.1099,6.1099,6.1099,6.1099,6.1099,6.1099,6.1157,6.1234,5.7997,5.7997,5.7997,5.7997,5.7997,5.7997,5.7997,5.7997,5.7997,5.7997,5.7997,5.8042,5.8197,5.8242,5.8286,5.8393,5.8486,5.8553,5.8698,5.8716,5.8716,5.8716,5.8716,5.8716,5.8716,5.8716,5.8716,5.8716,5.8716,5.8716,5.8716,5.8716,5.8716,5.8716,5.8716,5.8716,5.8716,5.8716,5.8716,5.8716,5.8716,5.8716,5.8716,5.8716,5.8716,5.8716,5.8716,5.8716,5.8716,5.8716,5.8716,5.8754,5.9074,5.9185,5.9321,5.9989,6.0219,6.0325,6.0657,6.0757,6.0757,6.08,6.08,6.08,6.08,6.08,6.08,6.08,6.08,6.08,6.08,6.08,6.08,6.08,6.08,6.08,6.08,6.08,6.08,6.08,6.08,6.08,6.08,6.08,6.08,6.08,6.08,6.08,6.08,6.08,6.0823,6.0891,6.0955,6.0999,6.1002,6.1061,6.1099,6.1099,6.1099,6.1099,6.1099,6.1099,6.1099,6.1099,6.1099,6.1099,6.1099,6.1099,6.1099,6.1099,6.1099,6.1099,6.1099,6.1099,6.1099,6.1118,5.7997,5.7997,5.7997,5.7997,5.7997,5.7997,5.7997,5.7997,5.8042,5.8133,5.8152,5.8197,5.8349,5.84,5.8443,5.8486,5.8572,5.8656,5.8716,5.8716,5.8716,5.8716,5.8716,5.8716,5.8716,5.8716,5.8716,5.8716,5.8716,5.8716,5.8716,5.8716,5.8716,5.8716,5.8716,5.8716,5.8716,5.8716,5.8716,5.8716,5.8716,5.8716,5.8716,5.8716,5.8716,5.8716,5.8716,5.8716,5.8716,5.8716,5.8716,5.8716,5.8791,5.8977,5.925,5.9402,5.9666,5.9996,6.0302,6.0422,6.0475,6.0734,6.08,6.08,6.08,6.08,6.08,6.08,6.08,6.08,6.08,6.08,6.08,6.08,6.08,6.08,6.08,6.08,6.08,6.08,6.08,6.08,6.08,6.08,6.08,6.08,6.08,6.08,6.08,6.08,6.08,6.0823,6.0888,6.0955,6.0999,6.1021,6.1061,6.1099,6.1099,6.1099,6.1099,6.1099,6.1099,6.1099,6.1099,6.1099,6.1099,6.1099,6.1099,6.1099,6.1099,6.1099,6.1099,6.1099,6.1099,6.1136,5.7997,5.7997,5.7997,5.7997,5.7997,5.7997,5.8106,5.8106,5.8133,5.8305,5.8305,5.8331,5.8462,5.8486,5.8511,5.8614,5.8656,5.8716,5.8716,5.8716,5.8716,5.8716,5.8716,5.8716,5.8716,5.8716,5.8716,5.8716,5.8716,5.8716,5.8716,5.8716,5.8716,5.8716,5.8716,5.8716,5.8716,5.8716,5.8716,5.8716,5.8716,5.8716,5.8716,5.8716,5.8716,5.8716,5.8716,5.8716,5.8716,5.8716,5.8716,5.8716,5.8716,5.8809,5.8977,5.9148,5.936,5.9587,5.9942,6.0057,6.0131,6.0475,6.0572,6.0597,6.0757,6.08,6.08,6.08,6.08,6.08,6.08,6.08,6.08,6.08,6.08,6.08,6.08,6.08,6.08,6.08,6.08,6.08,6.08,6.08,6.08,6.08,6.08,6.08,6.08,6.08,6.08,6.08,6.0869,6.0933,6.0955,6.0981,6.1022,6.1041,6.108,6.1099,6.1099,6.1099,6.1099,6.1099,6.1099,6.1099,6.1099,6.1099,6.1099,6.1099,6.1099,6.1099,6.1099,6.1099,6.1137,6.1195,5.7997,5.7997,5.7997,5.7997,5.7997,5.8042,5.8152,5.8152,5.8242,5.8393,5.8393,5.8418,5.8511,5.8553,5.8553,5.8698,5.8716,5.8716,5.8716,5.8716,5.8716,5.8716,5.8716,5.8716,5.8716,5.8716,5.8716,5.8716,5.8716,5.8716,5.8716,5.8716,5.8716,5.8716,5.8716,5.8716,5.8716,5.8716,5.8716,5.8716,5.8716,5.8716,5.8716,5.8716,5.8716,5.8716,5.8716,5.8716,5.8716,5.8716,5.8716,5.8716,5.8716,5.8716,5.8754,5.9055,5.913,5.9194,5.9591,5.9677,5.9767,6.0129,6.0256,6.0349,6.0641,6.0757,6.08,6.08,6.08,6.08,6.08,6.08,6.08,6.08,6.08,6.08,6.08,6.08,6.08,6.08,6.08,6.08,6.08,6.08,6.08,6.08,6.08,6.08,6.08,6.08,6.08,6.08,6.0846,6.0888,6.0911,6.098,6.1002,6.1002,6.108,6.1099,6.1099,6.1099,6.1099,6.1099,6.1099,6.1099,6.1099,6.1099,6.1099,6.1099,6.1099,6.1099,6.1099,6.1099,6.1176,6.1253,5.7997,5.7997,5.7997,5.7997,5.7997,5.7997,5.8042,5.8042,5.8106,5.8349,5.8393,5.848,5.8656,5.8656,5.8656,5.8716,5.8716,5.8716,5.8716,5.8716,5.8716,5.8716,5.8716,5.8716,5.8716,5.8716,5.8716,5.8716,5.8716,5.8716,5.8716,5.8716,5.8716,5.8716,5.8716,5.8716,5.8716,5.8716,5.8716,5.8716,5.8716,5.8716,5.8716,5.8716,5.8716,5.8716,5.8716,5.8716,5.8716,5.8716,5.8716,5.8716,5.8716,5.8716,5.8716,5.8754,5.8772,5.8851,5.9194,5.9253,5.9358,5.9771,6.0102,6.0321,6.0368,6.0597,6.08,6.08,6.08,6.08,6.08,6.08,6.08,6.08,6.08,6.08,6.08,6.08,6.08,6.08,6.08,6.08,6.08,6.08,6.08,6.08,6.08,6.08,6.08,6.08,6.08,6.08,6.08,6.0846,6.0911,6.0976,6.1,6.1002,6.108,6.1099,6.1099,6.1099,6.1099,6.1099,6.1099,6.1099,6.1099,6.1099,6.1099,6.1099,6.1099,6.1099,6.1099,6.1099,6.1118,6.1118,5.7997,5.7997,5.7997,5.7997,5.7997,5.8042,5.8088,5.8088,5.8179,5.8418,5.8443,5.8486,5.8572,5.8614,5.8614,5.8698,5.8716,5.8716,5.8716,5.8716,5.8716,5.8716,5.8716,5.8716,5.8716,5.8716,5.8716,5.8716,5.8716,5.8716,5.8716,5.8716,5.8716,5.8716,5.8716,5.8716,5.8716,5.8716,5.8716,5.8716,5.8716,5.8716,5.8716,5.8716,5.8716,5.8716,5.8716,5.8716,5.8716,5.8716,5.8716,5.8716,5.8716,5.8716,5.8716,5.8716,5.8716,5.8735,5.8865,5.8902,5.9004,5.9379,5.9568,5.9785,6.0208,6.0422,6.0572,6.0757,6.08,6.08,6.08,6.08,6.08,6.08,6.08,6.08,6.08,6.08,6.08,6.08,6.08,6.08,6.08,6.08,6.08,6.08,6.08,6.08,6.08,6.08,6.08,6.08,6.08,6.0823,6.0846,6.0911,6.0957,6.1,6.1021,6.106,6.1099,6.1099,6.1099,6.1099,6.1099,6.1099,6.1099,6.1099,6.1099,6.1099,6.1099,6.1099,6.1099,6.1099,6.1099,6.1099]},{"header":{"parameterUnit":"m.s-1","parameterCategory":1,"la1":30.6,"la2":28.766,"lo1":-90.7593,"lo2":-88.6598,"dy":0.0162,"dx":0.0183,"nx":116,"ny":114,"refTime":"2023-11-20T06:00:00:Z","depth":0,"parameterNumber":3,"parameterNumberName":"V-component_of_WINDS"},"data":[0.0,0.0,0.0,0.0,0.0,0.0,0.0,0.0,0.0,0.0,0.0,0.0,0.0,0.0,0.0,0.0,0.0,0.0,0.0,0.0,0.0,0.0,0.0,0.0,0.0,0.0,0.0,0.0,0.0,0.0,0.0,0.0,0.0,0.0,0.0,0.0,0.0,0.0,0.0,0.0,0.0,0.0,0.0,0.0,0.0,0.0,0.0,0.0,0.0,0.0,0.0,0.0,0.0,0.0,0.0,0.0,0.0,0.0,0.0,0.0,0.0,0.0,0.0,0.0,0.0,0.0,0.0,0.0,0.0,0.0,0.0,0.0,0.0,0.0,0.0,0.0,0.0,0.0,0.0,0.0,0.0,0.0,0.0,0.0,0.0,0.0,0.0,0.0,0.0,0.0,0.0,0.0,0.0,0.0,0.0,0.0,0.0,0.0,0.0,0.0,0.0,0.0,0.0,0.0,0.0,0.0,0.0,0.0,0.0,0.0,0.0,0.0,0.0,0.0,0.0,0.0,0.0,0.0,0.0,0.0,0.0,0.0,0.0,0.0,0.0,0.0,0.0,0.0,0.0,0.0,0.0,0.0,0.0,0.0,0.0,0.0,0.0,0.0,0.0,0.0,0.0,0.0,0.0,0.0,0.0,0.0,0.0,0.0,0.0,0.0,0.0,0.0,0.0,0.0,0.0,0.0,0.0,0.0,0.0,0.0,0.0,0.0,0.0,0.0,0.0,0.0,0.0,0.0,0.0,0.0,0.0,0.0,0.0,0.0,0.0,0.0,0.0,0.0,0.0,0.0,0.0,0.0,0.0,0.0,0.0,0.0,0.0,0.0,0.0,0.0,0.0,0.0,0.0,0.0,0.0,0.0,0.0,0.0,0.0,0.0,0.0,0.0,0.0,0.0,0.0,0.0,0.0,0.0,0.0,0.0,0.0,0.0,0.0,0.0,0.0,0.0,0.0,0.0,0.0,0.0,0.0,0.0,0.0,0.0,0.0,0.0,0.0,0.0,0.0,0.0,0.0,0.0,0.0,0.0,0.0,0.0,0.0,0.0,0.0,0.0,0.0,0.0,0.0,0.0,0.0,0.0,0.0,0.0,0.0,0.0,0.0,0.0,0.0,0.0,0.0,0.0,0.0,0.0,0.0,0.0,0.0,0.0,0.0,0.0,0.0,0.0,0.0,0.0,0.0,0.0,0.0,0.0,0.0,0.0,0.0,0.0,0.0,0.0,0.0,0.0,0.0,0.0,0.0,0.0,0.0,0.0,0.0,0.0,0.0,0.0,0.0,0.0,0.0,0.0,0.0,0.0,0.0,0.0,0.0,0.0,0.0,0.0,0.0,0.0,0.0,0.0,0.0,0.0,0.0,0.0,0.0,0.0,0.0,0.0,0.0,0.0,0.0,0.0,0.0,0.0,0.0,0.0,0.0,0.0,0.0,0.0,0.0,0.0,0.0,0.0,0.0,0.0,0.0,0.0,0.0,0.0,0.0,0.0,0.0,0.0,0.0,0.0,0.0,0.0,0.0,0.0,0.0,0.0,0.0,0.0,0.0,0.0,0.0,0.0,0.0,0.0,0.0,0.0,0.0,0.0,0.0,0.0,0.0,0.0,0.0,0.0,0.0,0.0,0.0,0.0,0.0,0.0,0.0,0.0,0.0,0.0,0.0,0.0,0.0,0.0,0.0,0.0,0.0,0.0,0.0,0.0,0.0,0.0,0.0,0.0,0.0,0.0,0.0,0.0,0.0,0.0,0.0,0.0,0.0,0.0,0.0,0.0,0.0,0.0,0.0,0.0,0.0,0.0,0.0,0.0,0.0,0.0,0.0,0.0,0.0,0.0,0.0,0.0,0.0,0.0,0.0,0.0,0.0,0.0,0.0,0.0,0.0,0.0,0.0,0.0,0.0,0.0,0.0,0.0,0.0,0.0,0.0,0.0,0.0,0.0,0.0,0.0,0.0,0.0,0.0,0.0,0.0,0.0,0.0,0.0,0.0,0.0,0.0,0.0,0.0,0.0,0.0,0.0,0.0,0.0,0.0,0.0,0.0,0.0,0.0,0.0,0.0,0.0,0.0,0.0,0.0,0.0,0.0,0.0,0.0,0.0,0.0,0.0,0.0,0.0,0.0,0.0,0.0,0.0,0.0,0.0,0.0,0.0,0.0,0.0,0.0,0.0,0.0,0.0,0.0,0.0,0.0,0.0,0.0,0.0,0.0,0.0,0.0,0.0,0.0,0.0,0.0,0.0,0.0,0.0,0.0,0.0,0.0,0.0,0.0,0.0,0.0,0.0,0.0,0.0,0.0,0.0,0.0,0.0,0.0,0.0,0.0,0.0,0.0,0.0,0.0,0.0,0.0,0.0,0.0,0.0,0.0,0.0,0.0,0.0,0.0,0.0,0.0,0.0,0.0,0.0,0.0,0.0,0.0,0.0,0.0,0.0,0.0,0.0,0.0,0.0,0.0,0.0,0.0,0.0,0.0,0.0,0.0,0.0,0.0,0.0,0.0,0.0,0.0,0.0,0.0,0.0,0.0,0.0,0.0,0.0,0.0,0.0,0.0,0.0,0.0,0.0,0.0,0.0,0.0,0.0,0.0,0.0,0.0,0.0,0.0,0.0,0.0,0.0,0.0,0.0,0.0,0.0,0.0,0.0,0.0,0.0,0.0,0.0,0.0,0.0,0.0,0.0,0.0,0.0,0.0,0.0,0.0,0.0,0.0,0.0,0.0,0.0,0.0,0.0,0.0,0.0,0.0,0.0,0.0,0.0,0.0,0.0,0.0,0.0,0.0,0.0,0.0,0.0,0.0,0.0,0.0,0.0,0.0,0.0,0.0,0.0,0.0,0.0,0.0,0.0,0.0,0.0,0.0,0.0,0.0,0.0,0.0,0.0,0.0,0.0,0.0,0.0,0.0,0.0,0.0,0.0,0.0,0.0,0.0,0.0,0.0,0.0,0.0,0.0,0.0,0.0,0.0,0.0,0.0,0.0,0.0,0.0,0.0,0.0,0.0,0.0,0.0,0.0,0.0,0.0,0.0,0.0,0.0,0.0,0.0,0.0,0.0,0.0,0.0,0.0,0.0,0.0,0.0,0.0,0.0,0.0,0.0,0.0,0.0,0.0,0.0,0.0,0.0,0.0,0.0,0.0,0.0,0.0,0.0,0.0,0.0,0.0,0.0,0.0,0.0,0.0,0.0,0.0,0.0,0.0,0.0,0.0,0.0,0.0,0.0,0.0,0.0,0.0,0.0,0.0,0.0,0.0,0.0,0.0,0.0,0.0,0.0,0.0,0.0,0.0,0.0,0.0,0.0,0.0,0.0,0.0,0.0,0.0,0.0,0.0,0.0,0.0,0.0,0.0,0.0,0.0,0.0,0.0,0.0,0.0,0.0,0.0,0.0,0.0,0.0,0.0,0.0,0.0,0.0,0.0,0.0,0.0,0.0,0.0,0.0,0.0,0.0,0.0,0.0,0.0,0.0,0.0,0.0,0.0,0.0,0.0,0.0,0.0,0.0,0.0,0.0,0.0,0.0,0.0,0.0,0.0,0.0,0.0,0.0,0.0,0.0,0.0,0.0,0.0,0.0,0.0,0.0,0.0,0.0,0.0,0.0,0.0,0.0,0.0,0.0,0.0,0.0,0.0,0.0,0.0,0.0,0.0,0.0,0.0,0.0,0.0,0.0,0.0,0.0,0.0,0.0,0.0,0.0,0.0,0.0,0.0,0.0,0.0,0.0,0.0,0.0,0.0,0.0,0.0,0.0,0.0,0.0,0.0,0.0,0.0,0.0,0.0,0.0,0.0,0.0,0.0,0.0,0.0,0.0,0.0,0.0,0.0,0.0,0.0,0.0,0.0,0.0,0.0,0.0,0.0,0.0,0.0,0.0,0.0,0.0,0.0,0.0,0.0,0.0,0.0,0.0,0.0,0.0,0.0,0.0,0.0,0.0,0.0,0.0,0.0,0.0,0.0,0.0,0.0,0.0,0.0,0.0,0.0,0.0,0.0,0.0,0.0,0.0,0.0,0.0,0.0,0.0,0.0,0.0,0.0,0.0,0.0,0.0,0.0,0.0,0.0,0.0,0.0,0.0,0.0,0.0,0.0,0.0,0.0,0.0,0.0,0.0,0.0,0.0,0.0,0.0,0.0,0.0,0.0,0.0,0.0,0.0,0.0,0.0,0.0,0.0,0.0,0.0,0.0,0.0,0.0,0.0,0.0,0.0,0.0,0.0,0.0,0.0,0.0,0.0,0.0,0.0,0.0,0.0,0.0,0.0,0.0,0.0,0.0,0.0,0.0,0.0,0.0,0.0,0.0,0.0,0.0,0.0,0.0,0.0,0.0,0.0,0.0,0.0,0.0,0.0,0.0,0.0,0.0,0.0,0.0,0.0,0.0,0.0,0.0,0.0,0.0,0.0,0.0,0.0,0.0,0.0,0.0,0.0,0.0,0.0,0.0,0.0,0.0,0.0,0.0,0.0,0.0,0.0,0.0,0.0,0.0,0.0,0.0,0.0,0.0,0.0,0.0,0.0,0.0,0.0,0.0,0.0,0.0,0.0,0.0,0.0,0.0,0.0,0.0,0.0,0.0,0.0,0.0,0.0,0.0,0.0,0.0,0.0,0.0,0.0,0.0,0.0,0.0,0.0,0.0,0.0,0.0,0.0,0.0,0.0,0.0,0.0,0.0,0.0,0.0,0.0,0.0,0.0,0.0,0.0,0.0,0.0,0.0,0.0,0.0,0.0,0.0,0.0,0.0,0.0,0.0,0.0,0.0,0.0,0.0,0.0,0.0,0.0,0.0,0.0,0.0,0.0,0.0,0.0,0.0,0.0,0.0,0.0,0.0,0.0,0.0,0.0,0.0,0.0,0.0,0.0,0.0,0.0,0.0,0.0,0.0,0.0,0.0,0.0,0.0,0.0,0.0,0.0,0.0,0.0,0.0,0.0,0.0,0.0,0.0,0.0,0.0,0.0,0.0,0.0,0.0,0.0,0.0,0.0,0.0,0.0,0.0,0.0,0.0,0.0,0.0,0.0,0.0,0.0,0.0,0.0,0.0,0.0,0.0,0.0,0.0,0.0,0.0,0.0,0.0,0.0,0.0,0.0,0.0,0.0,0.0,0.0,0.0,0.0,0.0,0.0,0.0,0.0,0.0,0.0,0.0,0.0,0.0,0.0,0.0,0.0,0.0,0.0,0.0,0.0,0.0,0.0,0.0,0.0,0.0,0.0,0.0,0.0,0.0,0.0,0.0,0.0,0.0,0.0,0.0,0.0,0.0,0.0,0.0,0.0,0.0,0.0,0.0,0.0,0.0,0.0,0.0,0.0,0.0,0.0,0.0,0.0,0.0,0.0,0.0,0.0,0.0,0.0,0.0,0.0,0.0,0.0,0.0,0.0,0.0,0.0,0.0,0.0,0.0,0.0,0.0,0.0,0.0,0.0,0.0,0.0,0.0,0.0,0.0,0.0,0.0,0.0,0.0,0.0,0.0,0.0,0.0,0.0,0.0,0.0,0.0,0.0,0.0,0.0,0.0,0.0,0.0,0.0,0.0,0.0,0.0,0.0,0.0,0.0,0.0,0.0,0.0,0.0,0.0,0.0,0.0,0.0,0.0,0.0,0.0,0.0,0.0,0.0,0.0,0.0,0.0,0.0,0.0,0.0,0.0,0.0,0.0,0.0,0.0,0.0,0.0,0.0,0.0,0.0,0.0,0.0,0.0,0.0,0.0,0.0,0.0,0.0,0.0,0.0,0.0,0.0,0.0,0.0,0.0,0.0,0.0,0.0,0.0,0.0,0.0,0.0,0.0,0.0,0.0,0.0,0.0,0.0,0.0,0.0,0.0,0.0,0.0,0.0,0.0,0.0,0.0,0.0,0.0,0.0,0.0,0.0,0.0,0.0,0.0,0.0,0.0,0.0,0.0,0.0,0.0,0.0,0.0,0.0,0.0,0.0,0.0,0.0,0.0,0.0,0.0,0.0,0.0,0.0,0.0,0.0,0.0,0.0,0.0,0.0,0.0,0.0,0.0,0.0,0.0,0.0,0.0,0.0,0.0,0.0,0.0,0.0,0.0,0.0,0.0,0.0,0.0,0.0,0.0,-0.0602,0.0,0.0,0.0,0.0,0.0,0.0,0.0,0.0,0.0,0.0,0.0,0.0,0.0,0.0,0.0,0.0,0.0,0.0,0.0,0.0,0.0,0.0,0.0,0.0,0.0,0.0,0.0,0.0,0.0,0.0,0.0,0.0,0.0,0.0,0.0,0.0,0.0,0.0,0.0,-0.5738,-0.5201,-0.4393,-0.4389,-0.4839,-0.5741,0.0,0.0,0.0,0.0,0.0,0.0,0.0,0.0,0.0,0.0,0.0,0.0,0.0,0.0,0.0,0.0,0.0,0.0,0.0,0.0,0.0,0.0,0.0,0.0,0.0,0.0,0.0,0.0,0.0,0.0,0.0,0.0,0.0,0.0,0.0,0.0,0.0,0.0,0.0,0.0,0.0,0.0,0.0,0.0,0.0,0.0,0.0,0.0,0.0,0.0,0.0,0.0,0.0,0.0,0.0,0.0,0.0,0.0,0.0,0.0,0.0,0.0,0.0,0.0,0.0,0.0,0.0,0.0,0.0,0.0,0.0,-0.1312,0.0,0.0,0.0,0.0,0.0,0.0,0.0,0.0,0.0,0.0,0.0,0.0,0.0,0.0,0.0,0.0,0.0,0.0,0.0,0.0,0.0,0.0,0.0,0.0,-0.5733,-0.5733,-0.5733,-0.5733,-0.5733,-0.5733,-0.5733,-0.5733,-0.5733,-0.5733,-0.5733,-0.5733,-0.5735,-0.5735,-0.5657,-0.4938,-0.3408,-0.3048,-0.3946,-0.5662,-0.5741,0.0,0.0,0.0,0.0,0.0,0.0,0.0,0.0,0.0,0.0,0.0,0.0,0.0,0.0,0.0,0.0,0.0,0.0,0.0,0.0,0.0,0.0,0.0,0.0,0.0,0.0,0.0,0.0,0.0,0.0,0.0,0.0,0.0,0.0,0.0,0.0,0.0,0.0,0.0,0.0,0.0,0.0,0.0,0.0,0.0,0.0,0.0,0.0,0.0,0.0,0.0,0.0,0.0,0.0,0.0,0.0,0.0,0.0,0.0,0.0,0.0,0.0,0.0,0.0,0.0,0.0,0.0,0.0,0.0,0.0,0.0,-0.0303,-0.3831,0.0,0.0,0.0,0.0,0.0,0.0,0.0,0.0,0.0,0.0,0.0,0.0,0.0,0.0,0.0,0.0,0.0,0.0,0.0,0.0,0.0,-0.5733,-0.5733,-0.5733,-0.5733,-0.5733,-0.5733,-0.5733,-0.5733,-0.5733,-0.5733,-0.5733,-0.5733,-0.5733,-0.5738,-0.5657,-0.5673,-0.5592,-0.5318,-0.3685,-0.3866,-0.5681,-0.567,-0.5668,-0.5668,0.0,0.0,0.0,0.0,0.0,0.0,0.0,0.0,0.0,0.0,0.0,0.0,0.0,0.0,0.0,0.0,0.0,0.0,0.0,0.0,0.0,0.0,0.0,0.0,0.0,0.0,0.0,0.0,0.0,0.0,0.0,0.0,0.0,0.0,0.0,0.0,0.0,0.0,0.0,0.0,0.0,0.0,0.0,0.0,0.0,0.0,0.0,0.0,0.0,0.0,0.0,0.0,0.0,0.0,0.0,0.0,0.0,0.0,0.0,0.0,0.0,0.0,0.0,0.0,0.0,0.0,0.0,0.0,0.0,-0.0,-0.0605,0.0,0.0,0.0,0.0,0.0,0.0,0.0,0.0,0.0,0.0,0.0,0.0,0.0,0.0,0.0,0.0,0.0,0.0,0.0,0.0,0.0,-0.5733,-0.5733,-0.5733,-0.5738,-0.5738,-0.5733,-0.5738,-0.5738,-0.5733,-0.5733,-0.5735,-0.5741,-0.5741,-0.566,-0.5673,-0.5681,-0.5687,-0.5602,-0.2698,-0.1437,-0.1705,-0.1704,-0.2329,-0.3312,-0.4032,0.0,0.0,0.0,0.0,0.0,0.0,0.0,0.0,0.0,0.0,0.0,0.0,0.0,0.0,0.0,0.0,0.0,0.0,0.0,0.0,0.0,0.0,0.0,0.0,0.0,0.0,0.0,0.0,0.0,0.0,0.0,0.0,0.0,0.0,0.0,0.0,0.0,0.0,0.0,0.0,0.0,0.0,0.0,0.0,0.0,0.0,0.0,0.0,0.0,0.0,0.0,0.0,0.0,0.0,0.0,0.0,0.0,0.0,0.0,0.0,0.0,0.0,0.0,0.0,0.0,0.0,0.0,0.0,0.0,0.0,-0.1109,-0.3022,0.0,0.0,0.0,0.0,-0.5851,-0.534,0.0,0.0,0.0,0.0,0.0,0.0,0.0,0.0,0.0,0.0,0.0,0.0,-0.5738,-0.5738,-0.5741,-0.5741,-0.5657,-0.5565,-0.5196,-0.5563,-0.5744,-0.5733,-0.5733,-0.5738,-0.5657,-0.5662,-0.567,-0.5684,-0.4685,-0.4234,-0.4148,-0.1078,0.0718,0.1436,0.1436,0.0627,-0.0715,-0.1698,-0.2325,-0.2862,0.0,0.0,0.0,0.0,0.0,0.0,0.0,0.0,0.0,0.0,0.0,0.0,0.0,0.0,0.0,0.0,0.0,0.0,0.0,0.0,0.0,0.0,0.0,0.0,0.0,0.0,0.0,0.0,0.0,0.0,0.0,0.0,0.0,0.0,0.0,0.0,0.0,0.0,0.0,0.0,0.0,0.0,0.0,0.0,0.0,0.0,0.0,0.0,0.0,0.0,0.0,0.0,0.0,0.0,0.0,0.0,0.0,0.0,0.0,0.0,0.0,0.0,0.0,0.0,0.0,0.0,0.0,0.0,0.0,-0.0302,-0.3531,-0.5052,-0.5663,-0.6199,-0.5696,-0.4979,0.0,0.0,0.0,0.0,0.0,0.0,0.0,0.0,0.0,0.0,0.0,-0.5657,-0.5657,-0.5665,-0.567,-0.567,-0.567,-0.5211,-0.3939,-0.5022,-0.5744,-0.5733,-0.5733,-0.5738,-0.5657,-0.5673,-0.5684,-0.5684,-0.2067,-0.027,-0.027,0.0808,0.1345,0.1436,0.1436,0.1345,0.1256,0.1166,0.0269,-0.1163,-0.197,0.0,0.0,0.0,0.0,0.0,0.0,0.0,0.0,0.0,0.0,0.0,0.0,0.0,0.0,0.0,0.0,0.0,0.0,0.0,0.0,0.0,0.0,0.0,0.0,0.0,0.0,0.0,0.0,0.0,0.0,0.0,0.0,0.0,0.0,0.0,0.0,0.0,0.0,0.0,0.0,0.0,0.0,0.0,0.0,0.0,0.0,0.0,0.0,0.0,0.0,0.0,0.0,0.0,0.0,0.0,0.0,0.0,0.0,0.0,0.0,0.0,0.0,0.0,0.0,0.0,0.0,0.0,0.0,-0.0,-0.0202,-0.1612,-0.3636,-0.5679,-0.6349,-0.6261,0.0,0.0,0.0,0.0,0.0,0.0,0.0,0.0,-0.5738,-0.566,-0.566,-0.5206,-0.4034,-0.3857,-0.3859,-0.3859,-0.5039,-0.5039,-0.3315,-0.4757,-0.5662,-0.5744,-0.5741,-0.566,-0.5676,-0.3326,-0.2067,-0.2067,-0.0629,0.0,0.0,0.0987,0.1436,0.1436,0.1436,0.1436,0.1436,0.1436,0.1076,0.0537,0.0269,-0.0358,0.0,0.0,0.0,0.0,0.0,0.0,0.0,0.0,0.0,0.0,0.0,0.0,0.0,0.0,0.0,0.0,0.0,0.0,0.0,0.0,0.0,0.0,0.0,0.0,0.0,0.0,0.0,0.0,0.0,0.0,0.0,0.0,0.0,0.0,0.0,0.0,0.0,0.0,0.0,0.0,0.0,0.0,0.0,0.0,0.0,0.0,0.0,0.0,0.0,0.0,0.0,0.0,0.0,0.0,0.0,0.0,0.0,0.0,0.0,0.0,0.0,0.0,0.0,0.0,0.0,0.0,0.0,0.0,0.0,-0.0418,-0.1255,-0.2,-0.3168,-0.4337,0.0,0.0,0.0,0.0,0.0,0.0,0.0,0.0,-0.502,-0.5576,-0.5668,-0.5213,-0.3952,-0.269,-0.1883,-0.1883,-0.3056,-0.3507,-0.296,-0.4039,-0.5032,-0.5662,-0.5665,-0.5673,-0.5684,-0.1977,0.0,0.0,0.0,0.0,0.0,0.0808,0.1256,0.1436,0.1436,0.1436,0.1436,0.1436,0.1256,0.1076,0.0987,0.0718,0.0269,0.0,0.0,0.0,0.0,0.0,0.0,0.0,0.0,0.0,0.0,0.0,0.0,0.0,0.0,0.0,0.0,0.0,0.0,0.0,0.0,0.0,0.0,0.0,0.0,0.0,0.0,0.0,0.0,0.0,0.0,0.0,0.0,0.0,0.0,0.0,0.0,0.0,0.0,0.0,0.0,0.0,0.0,0.0,0.0,0.0,0.0,0.0,0.0,0.0,0.0,0.0,0.0,0.0,0.0,0.0,0.0,0.0,0.0,0.0,0.0,0.0,0.0,0.0,0.0,0.0,0.0,0.0,0.0,0.0,0.0,0.0,-0.086,-0.2152,0.0,0.0,0.0,0.0,0.0,0.0,0.0,-0.3674,-0.3585,-0.5297,-0.5584,-0.5684,-0.5502,-0.2247,0.0,0.0,0.0,-0.0808,-0.2694,-0.296,-0.3767,-0.5581,-0.5681,-0.5684,-0.5502,-0.1887,0.0,0.0,0.0,0.0,0.009,0.0538,0.0987,0.1436,0.1436,0.1436,0.1436,0.1436,0.0987,0.0359,0.009,0.0538,0.0986,0.0,0.0,0.0,0.0,0.0,0.0,0.0,0.0,0.0,0.0,0.0,0.0,0.0,0.0,0.0,0.0,0.0,0.0,0.0,0.0,0.0,0.0,0.0,0.0,0.0,0.0,0.0,0.0,0.0,0.0,0.0,0.0,0.0,0.0,0.0,0.0,0.0,0.0,0.0,0.0,0.0,0.0,0.0,0.0,0.0,0.0,0.0,0.0,0.0,0.0,0.0,0.0,0.0,0.0,0.0,0.0,0.0,0.0,0.0,0.0,0.0,0.0,0.0,0.0,0.0,0.0,0.0,0.0,0.0,0.0,0.0,0.0,0.0,0.0,0.0,0.0,0.0,0.0,0.0,0.0,-0.2959,-0.4131,-0.1885,-0.3959,-0.4685,-0.1887,-0.0629,0.0,0.0,0.0,-0.027,-0.0719,-0.3416,-0.5133,-0.5681,-0.5684,-0.4412,-0.1618,-0.0539,0.0,0.0,0.0,0.0359,0.0987,0.0807,0.0987,0.1436,0.1436,0.1436,0.1436,0.1436,0.0987,0.0359,0.0359,-0.009,-0.0807,0.0,0.0,0.0,0.0,0.0,0.0,0.0,0.0,0.0,0.0,0.0,0.0,0.0,0.0,0.0,0.0,0.0,0.0,0.0,0.0,0.0,0.0,0.0,0.0,0.0,0.0,0.0,0.0,0.0,0.0,0.0,0.0,0.0,0.0,0.0,0.0,0.0,0.0,0.0,0.0,0.0,0.0,0.0,0.0,0.0,0.0,0.0,0.0,0.0,0.0,0.0,0.0,0.0,0.0,0.0,0.0,0.0,0.0,0.0,0.0,0.0,0.0,0.0,0.0,0.0,0.0,0.0,0.0,0.0,0.0,0.0,0.0,0.0,0.0,0.0,0.0,0.0,0.0,0.0,0.0,-0.1524,-0.3054,-0.2427,-0.2967,-0.2427,-0.027,0.0,0.0,0.0,0.0,0.0,0.0,-0.2067,-0.4051,-0.5594,-0.4143,-0.2248,-0.009,0.0,0.0,0.0,0.0,0.0449,0.1436,0.1076,0.1166,0.1436,0.1436,0.1436,0.1436,0.1436,0.0807,-0.009,-0.009,-0.0448,-0.1256,-0.251,-0.3229,-0.3592,-0.422,-0.3588,-0.2778,-0.4137,0.0,0.0,0.0,0.0,0.0,0.0,0.0,0.0,0.0,0.0,0.0,0.0,0.0,0.0,0.0,0.0,0.0,0.0,0.0,0.0,0.0,0.0,0.0,0.0,0.0,0.0,0.0,0.0,0.0,0.0,0.0,0.0,0.0,0.0,0.0,0.0,0.0,0.0,0.0,0.0,0.0,0.0,0.0,0.0,0.0,0.0,0.0,0.0,0.0,0.0,0.0,0.0,0.0,0.0,0.0,0.0,0.0,0.0,0.0,0.0,0.0,0.0,0.0,0.0,0.0,0.0,0.0,0.0,0.0,0.0,0.0,0.0,0.0,0.0,-0.1168,-0.4501,-0.2067,0.0,0.0,0.0,0.0,0.0,0.0,0.0,0.0,0.0,-0.1527,-0.4867,-0.1798,0.0,0.0,0.0,0.0,0.0,0.0,0.0449,0.1345,0.1345,0.1436,0.1436,0.1436,0.1436,0.1436,0.1345,0.0538,-0.0628,-0.0718,-0.0897,-0.1166,-0.2869,-0.3138,-0.2688,-0.3408,-0.3855,-0.4034,-0.315,0.0,0.0,0.0,0.0,0.0,0.0,0.0,0.0,0.0,0.0,0.0,0.0,0.0,0.0,0.0,0.0,0.0,0.0,0.0,0.0,0.0,0.0,0.0,0.0,0.0,0.0,0.0,0.0,0.0,0.0,0.0,0.0,0.0,0.0,0.0,0.0,0.0,0.0,0.0,0.0,0.0,0.0,0.0,0.0,0.0,0.0,0.0,0.0,0.0,0.0,0.0,0.0,0.0,0.0,0.0,0.0,0.0,0.0,0.0,0.0,0.0,0.0,0.0,0.0,0.0,0.0,0.0,0.0,0.0,0.0,0.0,0.0,0.0,0.0,0.0,0.0,0.0,0.0,0.0,0.0,0.0,0.0,0.0,0.0,0.0,0.0,-0.0359,-0.1078,-0.0359,0.0,0.0,0.0,0.0,0.0,0.0,0.0269,0.0807,0.1256,0.1436,0.1436,0.1436,0.1436,0.1345,0.0807,0.0448,0.009,-0.1076,-0.1974,-0.2513,-0.2873,-0.2963,-0.2872,-0.3053,-0.3142,-0.315,-0.3022,-0.2855,-0.2401,-0.1036,0.0,0.0,0.0,0.0,0.0,0.0,0.0,0.0,0.0,0.0,0.0,0.0,0.0,0.0,0.0,0.0,0.0,0.0,0.0,0.0,0.0,0.0,0.0,0.0,0.0,0.0,0.0,0.0,0.0,0.0,0.0,0.0,0.0,0.0,0.0,0.0,0.0,0.0,0.0,0.0,0.0,0.0,0.0,0.0,0.0,0.0,0.0,0.0,0.0,0.0,0.0,0.0,0.0,0.0,0.0,0.0,0.0,0.0,0.0,0.0,0.0,0.0,0.0,0.0,0.0,0.0,0.0,0.0,0.0,0.0,0.0,0.018,0.0628,0.0719,0.0539,0.009,0.0,0.0,0.0,0.0,0.0,0.0,0.0,0.0,0.0,0.0,0.0,0.0,0.0,0.0,0.0,0.0,0.009,0.0359,0.1076,0.1256,0.1076,0.1256,0.1436,0.1345,0.0538,-0.009,-0.0538,-0.1436,-0.2243,-0.2875,-0.2875,-0.2875,-0.2877,-0.2906,-0.2916,-0.2925,-0.2986,-0.2818,-0.2261,-0.1153,-0.0097,0.0787,0.0,0.0,0.0,0.0,0.0,0.0,0.0,0.0,0.0,0.0,0.0,0.0,0.0,0.0,0.0,0.0,0.0,0.0,0.0,0.0,0.0,0.0,0.0,0.0,0.0,0.0,0.0,0.0,0.0,0.0,0.0,0.0,0.0,0.0,0.0,0.0,0.0,0.0,0.0,0.0,0.0,0.0,0.0,0.0,0.0,0.0,0.0,0.0,0.0,0.0,0.0,0.0,0.0,0.0,0.0,0.0,0.0,0.0,0.0,0.0,0.0,0.0,0.0,0.0,0.0,0.0,0.0,0.0,0.0,0.0,0.0,0.0809,0.1079,0.0359,0.009,0.0,0.0,0.0,0.0,0.0,0.0,0.0,0.0,0.0,0.0,0.0,0.0,0.0,0.0,0.0,0.0,0.0,0.0807,0.0987,0.0718,0.0987,0.1166,0.1166,0.0269,-0.0628,-0.1436,-0.1892,-0.2347,-0.2891,-0.2903,-0.2901,-0.2898,-0.2955,-0.2976,-0.2985,-0.3046,-0.2682,-0.2113,-0.1175,-0.0592,-0.0099,0.0905,0.0707,0.0,0.0,0.0,0.0,0.0,0.0,0.0,0.0,0.0,0.0,0.0,0.0,0.0,0.0,0.0,0.0,0.0,0.0,0.0,0.0,0.0,0.0,0.0,0.0,0.0,0.0,0.0,0.0,0.0,0.0,0.0,0.0,0.0,0.0,0.0,0.0,0.0,0.0,0.0,0.0,0.0,0.0,0.0,0.0,0.0,0.0,0.0,0.0,0.0,0.0,0.0,0.0,0.0,0.0,0.0,0.0,0.0,0.0,0.0,0.0,0.0,0.0,0.0,0.0,0.0,0.0,0.0,0.0,0.0,0.0808,0.1348,0.1256,0.0539,0.0,0.0,0.0,0.0,0.0,0.0,0.0,0.0,0.0,0.0,0.0,0.0,0.0,0.0,0.0,0.0,0.0,0.009,0.0359,0.0718,0.0359,0.0359,0.0718,-0.009,-0.0807,-0.1527,-0.247,-0.2948,-0.2955,-0.301,-0.2996,-0.2956,-0.3111,-0.3133,-0.3048,-0.3109,-0.3031,-0.2845,-0.2099,-0.1307,-0.0704,-0.0605,0.0,0.0606,0.0101,0.0,0.0,0.0,0.0,0.0,0.0,0.0,0.0,0.0,0.0,0.0,0.0,0.0,0.0,0.0,0.0,0.0,0.0,0.0,0.0,0.0,0.0,0.0,0.0,0.0,0.0,0.0,0.0,0.0,0.0,0.0,0.0,0.0,0.0,0.0,0.0,0.0,0.0,0.0,0.0,0.0,0.0,0.0,0.0,0.0,0.0,0.0,0.0,0.0,0.0,0.0,0.0,0.0,0.0,0.0,0.0,0.0,0.0,0.0,0.0,0.0,0.0,0.0,0.0,0.0,0.0,0.0,0.0359,0.0629,0.0629,0.0269,0.0,0.0,0.0,0.0,0.0,0.0,0.0,0.0,0.0,0.0,0.0,0.0,0.0,0.0,0.0,0.0,0.0,0.0,0.009,0.0269,0.009,0.009,0.018,-0.1362,-0.2192,-0.2472,-0.3173,-0.3291,-0.3018,-0.3078,-0.3278,-0.3448,-0.3188,-0.3102,0.0,-0.3172,-0.3192,-0.3097,-0.2614,-0.1915,-0.1009,0.0202,0.0908,0.0,0.0202,0.0,0.0,0.0,0.0,0.0,0.0,0.0,0.0,0.0,0.0,0.0,0.0,0.0,0.0,0.0,0.0,0.0,0.0,0.0,0.0,0.0,0.0,0.0,0.0,0.0,0.0,0.0,0.0,0.0,0.0,0.0,0.0,0.0,0.0,0.0,0.0,0.0,0.0,0.0,0.0,0.0,0.0,0.0,0.0,0.0,0.0,0.0,0.0,0.0,0.0,0.0,0.0,0.0,0.0,0.0,0.0,0.0,0.0,0.0,0.0,0.0,0.0,0.0,0.0,0.0,0.0,0.0,0.0,0.0,0.0,0.0,0.0,0.0,0.0,0.0,0.0,0.0,0.0,0.0,0.0,0.0,0.0,0.0,0.0,0.0,0.0,0.009,0.0359,0.009,0.0,0.0,0.0269,0.0451,0.0272,-0.1838,-0.2692,-0.2713,-0.343,-0.3457,-0.308,-0.324,-0.346,-0.3655,-0.346,-0.346,-0.3566,-0.3615,-0.3531,-0.343,-0.2923,-0.2622,-0.1917,0.0807,0.1414,0.101,0.0202,0.0,0.0,0.0,0.0,0.0,0.0,0.0,0.0,0.0,0.0,0.0,0.0,0.0,0.0,0.0,0.0,0.0,0.0,0.0,0.0,0.0,0.0,0.0,0.0,0.0,0.0,0.0,0.0,0.0,0.0,0.0,0.0,0.0,0.0,0.0,0.0,0.0,0.0,0.0,0.0,0.0,0.0,0.0,0.0,0.0,0.0,0.0,0.0,0.0,0.0,0.0,0.0,0.0,0.0,0.0,0.0,0.0,0.0,0.0,0.0,0.0,0.0,0.0,0.0,0.0,0.0,0.0,0.0,0.0,0.0,0.0,0.0,0.0,0.0,0.0,0.0,0.0,0.0,0.0,0.0,0.0,0.0,0.0,0.0,0.0,0.0,0.0449,0.1345,0.0449,0.0,0.0,0.0987,0.1452,0.1387,-0.074,-0.1592,-0.1623,-0.2723,-0.3136,-0.3143,-0.3703,-0.3629,-0.3328,-0.383,-0.4331,-0.473,-0.4734,-0.4535,-0.4034,-0.3027,-0.3639,0.0,0.0404,0.0909,0.0,0.0,0.0,0.0,0.0,0.0,0.0,0.0,0.0,0.0,0.0,0.0,0.0,0.0,0.0,0.0,0.0,0.0,0.0,0.0,0.0,0.0,0.0,0.0,0.0,0.0,0.0,0.0,0.0,0.0,0.0,0.0,0.0,0.0,0.0,0.0,0.0,0.0,0.0,0.0,0.0,0.0,0.0,0.0,0.0,0.0,0.0,0.0,0.0,0.0,0.0,0.0,0.0,0.0,0.0,0.0,0.0,0.0,0.0,0.0,0.0,0.0,0.0,0.0,0.0,0.0,0.0,0.0,0.0,0.0,0.0,0.0,0.0,0.0,0.0,0.0,0.0,0.0,0.0,0.0,0.0,0.0,0.0,0.0,0.0,0.0,0.0,0.0,0.0449,0.1436,0.1078,0.0719,0.0538,0.1183,0.1563,0.1391,-0.0476,-0.0965,-0.0584,-0.1685,-0.2196,-0.2299,-0.2011,-0.2722,-0.3835,0.0,-0.363,-0.4334,-0.4643,-0.4543,-0.4034,-0.2421,-0.2828,-0.3136,-0.0303,0.0303,0.0,0.0,0.0,0.0,0.0,0.0,0.0,0.0,0.0,0.0,0.0,0.0,0.0,0.0,0.0,0.0,0.0,0.0,0.0,0.0,0.0,0.0,0.0,0.0,0.0,0.0,0.0,0.0,0.0,0.0,0.0,0.0,0.0,0.0,0.0,0.0,0.0,0.0,0.0,0.0,0.0,0.0,0.0,0.0,0.0,0.0,0.0,0.0,0.0,0.0,0.0,0.0,0.0,0.0,0.0,0.0,0.0,0.0,0.0,0.0,0.0,0.0,0.0,0.0,0.0,0.0,0.0,0.0,0.0,0.0,0.0,0.0,0.0,0.0,0.0,0.0,0.0,0.0,0.0,0.0,0.0,0.0,0.0,0.0,0.0,0.0,0.0,0.0,0.0359,0.1166,0.1346,0.1172,0.0817,0.138,0.1586,0.1421,0.0,-0.0295,0.0099,-0.0902,-0.1411,-0.1613,-0.1513,-0.2218,0.0,-0.3838,-0.3633,-0.3328,-0.4851,-0.5258,-0.4849,-0.3635,-0.2727,-0.1819,-0.0404,0.0,0.0,0.0,0.0,0.0,0.0,0.0,0.0,0.0,0.0,0.0,0.0,0.0,0.0,0.0,0.0,0.0,0.0,0.0,0.0,0.0,0.0,0.0,0.0,0.0,0.0,0.0,0.0,0.0,0.0,0.0,0.0,0.0,0.0,0.0,0.0,0.0,0.0,0.0,0.0,0.0,0.0,0.0,0.0,0.0,0.0,0.0,0.0,0.0,0.0,0.0,0.0,0.0,0.0,0.0,0.0,0.0,0.0,0.0,0.0,0.0,0.0,0.0,0.0,0.0,0.0,0.0,0.0,0.0,0.0,0.0,0.0,0.0,0.0,0.0,0.0,0.0,0.0,0.0,0.0,0.0,0.0,0.0,0.0,0.0,0.0,0.0,0.0,0.0,0.027,0.0719,0.1169,0.1273,0.1019,0.1392,0.1517,0.1571,0.0786,0.0497,0.0404,-0.0403,-0.0706,-0.0907,-0.2017,-0.2119,-0.2017,-0.496,-0.4043,-0.1917,-0.5256,-0.6279,-0.6083,-0.6083,-0.3234,0.0,0.0,0.0,0.0,0.0,0.0,0.0,0.0,0.0,0.0,0.0,0.0,0.0,0.0,0.0,0.0,0.0,0.0,0.0,0.0,0.0,0.0,0.0,0.0,0.0,0.0,0.0,0.0,0.0,0.0,0.0,0.0,0.0,0.0,0.0,0.0,0.0,0.0,0.0,0.0,0.0,0.0,0.0,0.0,0.0,0.0,0.0,0.0,0.0,0.0,0.0,0.0,0.0,0.0,0.0,0.0,0.0,0.0,0.0,0.0,0.0,0.0,0.0,0.0,0.0,0.0,0.0,0.0,0.0,0.0,0.0,0.0,0.0,0.0,0.0,0.0,0.0,0.0,0.0,0.0,0.0,0.0,0.0,0.0,0.0,0.0,0.0,0.0,0.0,0.0,0.0,0.0092,0.0184,0.1025,0.1319,0.1326,0.1538,0.1557,0.1573,0.1396,0.1308,0.1313,0.1111,0.0505,-0.0202,0.0303,-0.0908,-0.2628,-0.101,0.0101,0.0,0.0,0.0,0.0,0.0,-0.0909,0.0,0.0,0.0,0.0,0.0,0.0,0.0,0.0,0.0,0.0,0.0,0.0,0.0,0.0,0.0,0.0,0.0,0.0,0.0,0.0,0.0,0.0,0.0,0.0,0.0,0.0,0.0,0.0,0.0,0.0,0.0,0.0,0.0,0.0,0.0,0.0,0.0,0.0,0.0,0.0,0.0,0.0,0.0,0.0,0.0,0.0,0.0,0.0,0.0,0.0,0.0,0.0,0.0,0.0,0.0,0.0,0.0,0.0,0.0,0.0,0.0,0.0,0.0,0.0,0.0,0.0,0.0,0.0,0.0,0.0,0.0,0.0,0.0,0.0,0.0,0.0,0.0,0.0,0.0,0.0,0.0,0.0,0.0,0.0,0.0,0.0,0.0,0.0,0.0,0.0,0.0,0.0,0.0,0.0569,0.0862,0.1063,0.1173,0.1184,0.1294,0.1509,0.1617,0.0,0.0,0.1212,0.0808,0.1415,0.0505,-0.0808,0.0909,0.0,0.0,0.0,0.0,0.0,0.0,0.0,0.0,0.0,0.0,0.0,0.0,0.0,0.0,0.0,0.0,0.0,0.0,0.0,0.0,0.0,0.0,0.0,0.0,0.0,0.0,0.0,0.0,0.0,0.0,0.0,0.0,0.0,0.0,0.0,0.0,0.0,0.0,0.0,0.0,0.0,0.0,0.0,0.0,0.0,0.0,0.0,0.0,0.0,0.0,0.0,0.0,0.0,0.0,0.0,0.0,0.0,0.0,0.0,0.0,0.0,0.0,0.0,0.0,0.0,0.0,0.0,0.0,0.0,0.0,0.0,0.0,0.0,0.0,0.0,0.0,0.0,0.0,0.0,0.0,0.0,0.0,0.0,0.0,0.0,0.0,0.0,0.0,0.0,0.0,0.0,0.0,0.0,0.0,0.0,0.0,0.0,0.0,0.0,0.0,0.0,0.0194,0.0591,0.0591,0.0597,0.0707,0.1212,0.1415,0.1516,0.1617,0.1617,0.1617,0.0,0.0,0.0,0.0,0.0,0.0,0.0,0.0909,0.0,0.0,0.0,0.0,0.0,0.0,0.0,0.0,0.0,0.0,0.0,0.0,0.0,0.0,0.0,0.0,0.0,0.0,0.0,0.0,0.0,0.0,0.0,0.0,0.0,0.0,0.0583,0.1066,0.1084,0.0733,0.0494,0.0494,0.0247,0.0,0.0,0.0,0.0,0.0,0.0,0.0,0.0,0.0,0.0,0.0,0.0,0.0,0.0,0.0,0.0,0.0,0.0,0.0,0.0,0.0,0.0,0.0,0.0,0.0,0.0,0.0,0.0,0.0,0.0,0.0,0.0,0.0,0.0,0.0,0.0,0.0,0.0,0.0,0.0,0.0,0.0,0.0,0.0,0.0,0.0,0.0,0.0,0.0,0.0,0.0,0.0,0.0,0.0,0.0,0.0,0.0,0.0,0.0,0.0,0.0,0.0,0.0,0.0,0.0,0.0101,0.0101,0.0101,0.0101,0.0202,0.0505,0.101,0.1415,0.1617,0.1617,0.1617,0.0,0.0,0.0,0.0,0.0,0.0,0.0909,0.0,0.0,0.0,0.0,0.0,0.0,0.0,0.0,0.0,0.0,0.0,0.0,0.0,0.0,0.0,0.0,0.0,0.0,0.0,0.0,0.0,0.0,0.0,0.0,0.0,0.0,0.0,0.6539,0.0,0.0,0.0,0.0,0.0,0.0,0.0,0.0,0.0,0.0,0.0,0.0,0.0,0.0,0.0,0.0,0.0,0.0,0.0,0.0,0.0,0.0,0.0,0.0,0.0,0.0,0.0,0.0,0.0,0.0,0.0,0.0,0.0,0.0,0.0,0.0,0.0,0.0,0.0,0.0,0.0,0.0,0.0,0.0,0.0,0.0,0.0,0.0,0.0,0.0,0.0,0.0,0.0,0.0,0.0,0.0,0.0,0.0,0.0,0.0,0.0,0.0,0.0,0.0,0.0,0.0,0.0,0.0,0.0,0.0,0.0,0.0,0.0,0.0,0.0,0.0101,0.0505,0.1313,0.1617,0.0,0.0,0.0,0.0,0.0,0.0,0.0,0.0,0.1212,0.0707,0.0202,0.0,0.0,0.0,0.0,0.0,0.0,0.0,0.0101,0.0707,0.0808,0.0707,0.0101,0.0,0.0,0.0,0.0,0.0,0.0,0.0,0.0,0.0,0.0,0.0,0.0,0.0,0.0,0.0,0.0,0.0,0.0,0.0,0.0,0.0,0.0,0.0,0.0,0.0,0.0,0.0,0.0,0.0,0.0,0.0,0.0,0.0,0.0,0.0,0.0,0.0,0.0,0.0,0.0,0.0,0.0,0.0,0.0,0.0,0.0,0.0,0.0,0.0,0.0,0.0,0.0,0.0,0.0,0.0,0.0,0.0,0.0,0.0,0.0,0.0,0.0719,0.1258,0.1258,0.0449,0.0,0.0,0.0,0.0,0.0,0.0,0.0,0.0,0.0,0.0,0.0,0.0,0.0,0.0,0.0,0.0,0.0,0.0,0.0,0.0,0.0,0.0,0.0,0.0,0.0,0.0,0.0,0.1415,0.0,0.0,0.0,0.0,0.0,0.0,0.0,0.0,0.1415,0.1415,0.0303,0.0,0.0,0.0303,0.0303,0.0303,0.0202,0.0202,0.0404,0.1212,0.1516,0.1415,0.0505,0.0202,0.0,0.0,0.0,0.0,0.0,0.0,0.0,0.0,0.0,0.0,0.0,0.0,0.0,0.0,0.0,0.0,0.0,0.0,0.0,0.0,0.0,0.0,0.0,0.0,0.0,0.0,0.0,0.0,0.0,0.0,0.0,0.0,0.0,0.0,0.0,0.0,0.0,0.0,0.0,0.0,0.0,0.0,0.0,0.0,0.0,0.0,0.0,0.0,0.0,0.0,0.0,0.0,0.0,0.0,0.0,0.0,0.0,0.0,0.0,0.0,0.3058,0.5138,0.5138,0.2067,0.0,0.0,0.0,0.0,0.0,0.0,0.0,0.0,0.0,0.0,0.0,0.0,0.0,0.0,0.0,0.0,0.0,0.0,0.0,0.0,0.0,0.0,0.0,0.0,0.0,0.0,0.0,0.0,0.0,0.0,0.0,0.0,0.0,0.0,0.0,0.0,0.0,0.1415,0.0303,0.0,0.0202,0.1212,0.0,0.0,0.0909,0.0707,0.0707,0.0808,0.1212,0.1617,0.1516,0.0,0.0,0.0,0.0,0.0,0.0,0.0,0.0,0.0,0.0,0.0,0.0,0.0,0.0,0.0,0.0,0.0,0.0,0.0,0.0,0.0,0.0,0.0,0.0,0.0,0.0,0.0,0.0,0.0,0.0,0.0,0.0,0.0,0.0,0.0,0.0,0.0,0.0,0.0,0.0,0.0,0.0,0.0,0.0,0.0,0.0,0.0,0.0,0.0,0.0,0.0,0.0,0.0,0.0,0.0,0.0,0.0,0.0,0.0,0.0809,0.3148,0.4775,0.5681,0.5676,0.432,0.0,0.0,0.0,0.0,0.0,0.0,0.0,0.0,0.0,0.0,0.0,0.0,0.0,0.0,0.0,0.0,0.0,0.0,0.0,0.0,0.0,0.0,0.0,0.0,0.0,0.0,0.0,0.0,0.0,0.0,0.0,0.0,0.0,0.0,0.0,0.0,0.0,0.0,0.0101,0.0,0.0,0.0,0.1617,0.1516,0.1314,0.1313,0.1313,0.1313,0.1415,0.1617,0.1617,0.0,0.0808,0.0101,0.0,0.0,0.0,0.0,0.0,0.0,0.0,0.0,0.0,0.0,0.0,0.0,0.0,0.0,0.0,0.0,0.0,0.0,0.0,0.0,0.0,0.0,0.0,0.0,0.0,0.0,0.0,0.0,0.0,0.0,0.0,0.0,0.0,0.0,0.0,0.0,0.0,0.0,0.0,0.0,0.0,0.0,0.0,0.0,0.0,0.0,0.0,0.0,0.0,0.0,0.0,0.0,0.0,0.0,0.0987,0.0898,0.1795,0.4499,0.5315,0.5673,0.5668,0.5673,0.4506,0.1444,0.0,0.0,0.0,0.0,0.0,0.0,0.0,0.0,0.0,0.0,0.0,0.0,0.0,0.0,0.0,0.0,0.0,0.0,0.0,0.0,0.0,0.0,0.0,0.0,0.0,0.0,0.0,0.0,0.0,0.0,0.0,0.0,0.0,0.0,0.0,0.0,0.0,0.0,0.0,0.0,0.1314,0.1617,0.1617,0.1617,0.1617,0.1617,0.1617,0.1516,0.0,0.0,0.1313,0.0202,0.0,0.0,0.0,0.0,0.1618,0.6381,0.7209,0.6716,0.5157,0.0,0.0,0.0,0.0,0.0,0.0,0.0,0.0,0.0,0.0,0.0,0.0,0.0,0.0,0.0,0.0,0.0,0.0,0.0,0.0,0.0,0.0,0.0,0.0,0.0,0.0,0.0,0.0,0.0,0.0,0.0,0.0,0.0,0.0,0.0,0.0,0.0,0.0,0.0,0.0,0.0,0.0,0.0,0.0,0.0,0.0,0.2867,0.2867,0.2957,0.4574,0.5657,0.5657,0.5657,0.5245,0.4139,0.0,0.0,0.0,0.0,0.0,0.0,0.0,0.0,0.0,0.0,0.0,0.0,0.0,0.0,0.0,0.0,0.0,0.0,0.0,0.0,0.0,0.0,0.0,0.0,0.0,0.0,0.1516,0.0,0.0,0.0,0.0,0.0,0.0,0.0,0.0,0.0,0.0,0.0,0.0,0.0,0.0808,0.1617,0.1617,0.1617,0.1617,0.1617,0.1617,0.1415,0.0,0.0,0.1313,0.0202,0.0,0.0,0.0,0.0,0.1618,0.6381,0.7209,0.0,0.741,0.0,0.0,0.0,0.0,0.0,0.0,0.0,0.0,0.0,0.0,0.0,0.0123,0.0,0.0,0.0,0.0,0.0,0.0,0.0,0.0,0.0,0.0,0.0,0.0,0.0,0.0,0.0,0.0,0.0,0.0,0.0,0.0,0.0,0.0,0.0,0.0,0.0,0.0,0.0,0.0,0.0,0.0,0.0,0.0,0.0,0.0,0.4853,0.4851,0.4846,0.5295,0.5684,0.5663,0.5673,0.5537,0.5268,0.0,0.0,0.0,0.0,0.0,0.0,0.0,0.0,0.0,0.0,0.0,0.0,0.0,0.0,0.0,0.0,0.0,0.0,0.0,0.0,0.0,0.0,0.0,0.0,0.0,0.1617,0.1516,0.0,0.0,0.0,0.0,0.0,0.0,0.0,0.0,0.0,0.0,0.0,0.0,0.0,0.0202,0.0707,0.1415,0.1617,0.1617,0.1617,0.1617,0.1516,0.1415,0.0,0.0404,0.0101,0.0,0.0,0.0,0.0,0.1093,0.4244,0.6238,0.0,0.0,0.0,0.0,0.0,0.0,0.0,0.0,0.0,0.0,0.0,0.0,0.0,0.0123,0.0,0.0,0.0,0.0,0.0,0.0,0.0,0.0,0.0,0.0,0.0,0.0,0.0,0.0,0.0,0.0,0.0,0.0,0.0,0.0,0.0,0.0,0.0,0.0,0.0,0.0,0.0,0.0,0.0,0.0,0.0,0.0,0.0,0.0,0.566,0.5673,0.5711,0.5716,0.5665,0.5676,0.5789,0.5839,0.586,0.0,0.0,0.0,0.0,0.0,0.0,0.0,0.0,0.0,0.0,0.0,0.0,0.0,0.0,0.0,0.0,0.0,0.0,0.0,0.0,0.0,0.0,0.0,0.0,0.1617,0.1617,0.1617,0.0,0.0,0.0,0.0,0.0,0.0,0.0,0.0,0.0,0.0,0.0,0.0,0.0,0.0,0.0101,0.0808,0.1111,0.1313,0.1313,0.1415,0.0,0.0,0.0,0.0,0.0,0.0,0.0,0.0,0.1521,0.286,0.346,0.0,0.0,0.0,0.0,0.0,0.0,0.0,0.0,0.0,0.0,0.0,0.0,0.0,0.0,0.3087,0.111,0.0,0.0,0.0,0.0,0.0,0.0,0.0,0.0,0.0,0.0,0.0,0.0,0.0,0.0,0.0,0.0,0.0,0.0,0.0,0.0,0.0,0.0,0.0,0.0,0.0,0.0,0.0,0.0,0.0,0.0,0.0,0.0,0.0,0.0,0.0,0.0,0.5723,0.5678,0.57,0.5905,0.6146,0.0,0.0,0.0,0.0,0.0,0.0,0.0,0.0,0.0,0.0,0.0,0.0,0.0,0.0,0.0,0.0,0.0,0.0,0.0,0.0,0.0,0.0,0.0,0.0,0.0,0.1617,0.1617,0.0,0.0,0.0,0.0,0.0,0.0,0.0,0.0,0.0,0.0,0.0,0.0,0.0,0.0,0.0,0.0,0.0,0.0404,0.0,0.0,0.0,0.0,0.0,0.0,0.0,0.0,0.0,0.0105,0.0435,0.4166,0.6513,0.0,0.0,0.0,0.0,0.0,0.0,0.0,0.0,0.0,0.0,0.0,0.0,0.0,0.0,0.0,0.7951,0.3213,0.037,0.0,0.0,0.0,0.0,0.0,0.0,0.0,0.0,0.0,0.0,0.0,0.0,0.0,0.0,0.0,0.0,0.0,0.0,0.0,0.0,0.0,0.0,0.0,0.0,0.0,0.0,0.0,0.0,0.0,0.0,0.0,0.0,0.0,0.0,0.0,0.0,0.5705,0.5721,0.6125,0.0,0.0,0.0,0.0,0.0,0.0,0.0,0.0,0.0,0.0,0.0,0.0,0.0,0.0,0.0,0.0,0.0,0.0,0.0,0.0,0.1506,0.161,0.1617,0.0,0.0,0.0,0.1617,0.1617,0.0,0.0,0.0,0.0,0.0707,0.0404,0.0,0.0,0.0,0.0,0.0,0.0,0.0,0.0,0.0,0.0,0.0,0.0,0.0202,0.0202,0.0303,0.0405,0.0,0.0,0.0,0.0,0.0,0.1084,0.4813,0.6433,0.7057,0.0,0.0,0.0,0.0,0.0,0.0,0.0,0.0,0.0,0.0,0.0,0.0,0.0,0.0,0.5677,0.7817,0.669,0.4202,0.0123,0.0,0.0,0.0,0.0,0.0,0.0,0.0,0.0,0.0,0.0,0.0,0.0,0.0,0.0,0.0,0.0,0.0,0.0,0.0,0.0,0.0,0.0,0.0,0.0,0.0,0.0,0.0,0.0,0.0,0.0,0.0,0.0,0.0,0.0,0.0,0.0,0.0,0.0,0.0,0.0,0.0,0.0,0.0,0.0,0.0,0.0,0.0,0.0,0.0,0.0,0.0,0.0,0.0,0.0,0.0,0.0,0.0,0.0,0.1617,0.1617,0.1617,0.1617,0.1617,0.1617,0.1617,0.0,0.0,0.0,0.0,0.0,0.0404,0.0,0.0,0.0,0.0,0.0,0.0,0.0,0.0,0.0,0.0,0.0,0.0,0.0,0.0,0.0,0.0,0.0,0.0,0.0,0.0,0.0,0.0,0.4724,0.6767,0.749,0.0,0.0,0.0,0.0,0.0,0.0,0.0,0.0,0.0,0.0,0.0,0.0,0.0,0.0,0.0,0.5309,0.4325,0.6568,0.5446,0.0123,0.0,0.0,0.0,0.0,0.0,0.0,0.0,0.0,0.0,0.0,0.0,0.0,0.0,0.0,0.0,0.0,0.0,0.0,0.0,0.0,0.0,0.0,0.0,0.0,0.0,0.0,0.0,0.0,0.0,0.0,0.0,0.0,0.0,0.0,0.0,0.0,0.0,0.0,0.0,0.0,0.0,0.0,0.0,0.0,0.0,0.0,0.0,0.0,0.1008,0.0302,0.0,0.0,0.0,0.0,0.0,0.0,0.1617,0.0,0.1617,0.1617,0.1617,0.1617,0.1617,0.1617,0.1617,0.0,0.0,0.0,0.0,0.0,0.0,0.0,0.0,0.0,0.0,0.0,0.0,0.0,0.0,0.0,0.0,0.0,0.0,0.0,0.0,0.0,0.0,0.0,0.0,0.0,0.0,0.0,0.0,0.0,0.0,0.0,0.0,0.0,0.0,0.0,0.0,0.0,0.0,0.0,0.0,0.0,0.0,0.0,0.0,0.0,0.0,0.4697,0.0247,0.4206,0.458,0.0123,0.0,0.0,0.0,0.0,0.0,0.0,0.0,0.0,0.0,0.0,0.0,0.0,0.0,0.0,0.0,0.0,0.0,0.0,0.0,0.0,0.0,0.0,0.0,0.0,0.0,0.0,0.0,0.0,0.0,0.0,0.0,0.0,0.0,0.0,0.0,0.0,0.0,0.0,0.0,0.0,0.0,0.0,0.0,0.0,0.0,0.0,0.6356,0.606,0.5448,0.1811,0.0,0.0,0.0,0.0,0.0,0.1111,0.1617,0.1617,0.1617,0.1617,0.1617,0.1617,0.1617,0.1617,0.1617,0.0,0.0,0.0,0.0,0.0,0.0,0.0,0.0,0.0,0.0,0.0,0.0,0.0,0.0,0.0,0.0,0.0,0.0,0.0,0.0,0.0,0.0,0.0,0.0,0.0,0.0,0.0,0.0,0.0,0.0,0.0,0.0,0.0,0.0,0.0,0.0,0.0,0.0,0.0,0.0,0.0,0.0,0.0,0.0,0.0,0.0,0.0863,0.0,0.0741,0.0864,0.0,0.0,0.0,0.0,0.0,0.0,0.0,0.0,0.0,0.0,0.0,0.0,0.0,0.0,0.0,0.0,0.0,0.0,0.0,0.0,0.0,0.0,0.0,0.0,0.0,0.0,0.0,0.0,0.0,0.0,0.0,0.0,0.0,0.0,0.0,0.0,0.0,0.0,0.0,0.0,0.0,0.0,0.0,0.0,0.0,0.0,0.0,0.6445,0.6353,0.6364,0.4433,0.3425,0.343,0.1108,0.0,0.0,0.1111,0.1617,0.1617,0.1617,0.1617,0.1617,0.1617,0.1617,0.1617,0.0,0.0,0.0,0.0,0.0,0.0,0.0,0.0,0.0,0.0,0.0,0.0,0.0,0.0,0.0,0.0,0.0,0.0,0.0,0.0,0.0825,0.4003,0.2821,0.0854,0.0968,0.0981,0.0,0.0,0.0,0.0,0.0,0.0,0.0,0.0,0.0,0.0,0.0,0.0,0.0,0.0,0.0,0.0,0.0,0.0,0.0,0.0,0.0,0.0,0.0,0.0,0.0,0.0,0.0,0.0,0.0,0.0,0.0,0.0,0.0,0.0,0.0,0.0,0.0,0.0,0.0,0.0,0.0,0.0,0.0,0.0,0.0,0.0,0.0,0.0,0.0,0.0,0.0,0.0,0.0,0.0,0.0,0.0,0.0,0.0,0.0,0.0,0.0,0.0,0.0,0.0,0.0,0.0,0.0,0.0,0.0,0.0,0.6437,0.6437,0.6437,0.6442,0.6356,0.6356,0.6361,0.6369,0.3119,0.1107,0.0403,0.1211,0.1615,0.1617,0.1617,0.1617,0.1617,0.1617,0.1617,0.1617,0.0,0.0,0.0,0.0,0.0,0.0,0.0,0.0,0.0,0.0,0.0,0.0,0.0,0.0,0.0,0.0,0.0,0.0203,0.1217,0.1543,0.2716,0.7685,0.6102,0.3372,0.3482,0.3415,0.0,0.0,0.0,0.0,0.0,0.0,0.0,0.0,0.0,0.0,0.0,0.0,0.0,0.0,0.0,0.0,0.0,0.0,0.0,0.0,0.0,0.0,0.0,0.0,0.0,0.0,0.0,0.0,0.0,0.0,0.0,0.0,0.0,0.0,0.0,0.0,0.0,0.0,0.0,0.0,0.0,0.0,0.0,0.0,0.0,0.0,0.0,0.0,0.0,0.0,0.0,0.0,0.0,0.0,0.0,0.0,0.0,0.0,0.0,0.0,0.0,0.0,0.0,0.0,0.0,0.0,0.0,0.0,0.0,0.0,0.6437,0.6437,0.6437,0.6437,0.6437,0.6437,0.6442,0.635,0.6044,0.4427,0.1509,0.161,0.1613,0.1617,0.1617,0.1617,0.1617,0.1617,0.1617,0.1617,0.1617,0.0,0.0,0.0,0.0,0.0,0.0,0.0,0.0,0.0,0.0,0.0,0.0,0.0,0.0,0.0,0.0,0.0824,0.4858,0.5932,0.6398,0.8383,0.8639,0.8336,0.8336,0.8426,0.0,0.886,0.0,0.0,0.0,0.0,0.0,0.0,0.0,0.0,0.0,0.0,0.0,0.0,0.0,0.0,0.7872,0.7872,0.788,0.7899,0.5293,0.2584,0.0123,0.0,0.0,0.0,0.0,0.0,0.0,0.0,0.0,0.0,0.0,0.0,0.0,0.0,0.0,0.0,0.0,0.0,0.0,0.0,0.0,0.0,0.0,0.0,0.0,0.0,0.0,0.0,0.0,0.0,0.0,0.0,0.0,0.0,0.0,0.0,0.0,0.0,0.0,0.0,0.0,0.0,0.0,0.0,0.0,0.0,0.0,0.0,0.6437,0.6437,0.6437,0.6437,0.6437,0.6437,0.6437,0.6442,0.7056,0.6751,0.5536,0.2812,0.1607,0.1608,0.1611,0.1613,0.1613,0.1615,0.1617,0.1617,0.1617,0.1617,0.0,0.0,0.0,0.0,0.0,0.0,0.0,0.0,0.0504,0.0,0.0,0.1811,0.3935,0.3934,0.3979,0.4444,0.6326,0.6904,0.7183,0.8514,0.892,0.0,0.0,0.8916,0.8954,0.8954,0.8605,0.0,0.0,0.0,0.0,0.0,0.0,0.0,0.0,0.0,0.0,0.0,0.0,0.7872,0.7872,0.7872,0.788,0.7896,0.6903,0.4555,0.0246,0.0,0.0,0.0,0.0,0.0,0.0,0.0,0.0,0.0,0.0,0.0,0.0,0.0,0.0,0.0,0.0,0.0,0.0,0.0,0.0,0.0,0.0,0.0,0.0,0.0,0.0,0.0,0.0,0.0,0.0,0.0,0.0,0.0,0.0,0.0,0.0,0.0,0.0,0.0,0.0,0.0,0.0,0.0,0.0,0.0,0.0,0.6437,0.6437,0.6437,0.6437,0.6437,0.6437,0.6742,0.6742,0.6431,0.745,0.7965,0.7972,0.502,0.0,0.3612,0.3623,0.2918,0.1608,0.1613,0.1614,0.1613,0.1615,0.1615,0.0,0.0,0.0,0.0,0.0,0.0,0.0,0.0,0.2014,0.2417,0.2109,0.4026,0.6377,0.6412,0.639,0.6583,0.7473,0.7742,0.7901,0.8682,0.0,0.0,0.894,0.894,0.894,0.894,0.8863,0.0,0.0,0.0,0.0,0.0,0.0,0.0,0.0,0.8732,0.8366,0.8119,0.7994,0.7872,0.7872,0.7872,0.7877,0.7888,0.7896,0.6287,0.2709,0.0863,0.0,0.0,0.0,0.0,0.0,0.0,0.0,0.0,0.0,0.0,0.0,0.0,0.0,0.0,0.0,0.0,0.0,0.0,0.0,0.0,0.0,0.0,0.0,0.0,0.0,0.0,0.0,0.0,0.0,0.0,0.0,0.0,0.0,0.0,0.0,0.0,0.0,0.0,0.0,0.0,0.0,0.0,0.0,0.0,0.0,0.6437,0.6437,0.6437,0.6437,0.6437,0.6437,0.7459,0.7456,0.6423,0.7431,0.7952,0.7972,0.7972,0.0,0.0,0.8002,0.5644,0.1603,0.161,0.1609,0.1604,0.1613,0.1614,0.1611,0.0,0.0,0.0,0.0,0.0,0.0,0.0,0.4535,0.7798,0.6759,0.6356,0.6382,0.6382,0.6383,0.6812,0.8467,0.8944,0.894,0.0,0.0,0.0,0.894,0.894,0.894,0.894,0.0,0.0,0.0,0.0,0.0,0.0,0.0,0.0,0.9836,0.9095,0.8482,0.8369,0.8119,0.7872,0.7872,0.7872,0.7872,0.7872,0.7888,0.7899,0.7899,0.2955,0.0,0.0,0.0,0.0,0.0,0.0,0.0,0.0,0.0,0.0,0.0,0.0,0.0,0.0,0.0,0.0,0.0,0.0,0.0,0.0,0.0,0.0,0.0,0.0,0.0,0.0,0.0,0.0,0.0,0.0,0.0,0.0,0.0,0.0,0.0,0.0,0.0,0.0,0.0,0.0,0.0,0.0,0.0,0.0,0.0,0.6437,0.6437,0.6437,0.6429,0.6426,0.6426,0.7441,0.7849,0.7543,0.7842,0.8041,0.8048,0.0,0.0,0.7955,0.0,0.0,0.5029,0.5758,0.4342,0.1815,0.4863,0.4253,0.1615,0.0,0.0,0.0,0.0,0.0,0.0,0.0,0.0,0.0,0.6739,0.6431,0.6356,0.6369,0.722,0.8319,0.8797,0.8944,0.0,0.894,0.0,0.0,0.0,0.894,0.0,0.0,0.0,0.0,0.0,0.0,0.0,0.0,0.0,0.0,0.9836,0.9592,0.9223,0.8491,0.8369,0.8119,0.7872,0.7872,0.7872,0.7872,0.7877,0.7886,0.7896,0.641,0.3817,0.0123,0.0,0.0,0.0,0.0,0.0,0.0,0.0,0.0,0.0,0.0,0.0,0.0,0.0,0.0,0.0,0.0,0.0,0.0,0.0,0.0,0.0,0.0,0.0,0.0,0.0,0.0,0.0,0.0,0.0,0.0,0.0,0.0,0.0,0.0,0.7444,0.0,0.0,0.0,0.0,0.0,0.0,0.0,0.0,0.0,0.6634,0.7042,0.6628,0.6625,0.7033,0.7643,0.7975,0.8039,0.7972,0.8038,0.8038,0.0,0.7739,0.7428,0.0,0.7666,0.6956,0.5861,0.3935,0.1813,0.4453,0.3945,0.1614,0.0,0.0,0.0,0.0,0.0,0.0,0.0,0.0,0.0,0.7241,0.7071,0.7036,0.7058,0.7935,0.8952,0.8886,0.8876,0.0,0.894,0.894,0.894,0.894,0.0,0.0,0.0,0.0,0.9036,0.0,0.0,0.0,0.0,0.0,0.9822,0.9829,0.9836,0.947,0.8861,0.8491,0.8244,0.7994,0.7872,0.7872,0.7872,0.7872,0.7877,0.7888,0.7894,0.641,0.3201,0.2093,0.1601,0.1602,0.1602,0.0986,0.0,0.0,0.0,0.0,0.0,0.0,0.0,0.0,0.0,0.0,0.0,0.0,0.0,0.0,0.0,0.0,0.0,0.0,0.0,0.0,0.0,0.0,0.0,0.0,0.0,0.0,0.0,0.0,0.0,0.7955,0.7955,0.0,0.0,0.0,0.0,0.0,0.0,0.0,0.0,0.6933,0.7955,0.7036,0.7033,0.7955,0.7969,0.8036,0.7955,0.8026,0.7965,0.0,0.0,0.7447,0.6628,0.0,0.7766,0.7153,0.3222,0.1609,0.1605,0.1613,0.1613,0.161,0.1609,0.0,0.0,0.0,0.0,0.0,0.0,0.0,0.0,0.7955,0.7955,0.7997,0.8027,0.8495,0.8872,0.8899,0.894,0.0,0.894,0.894,0.0,0.894,0.0,0.894,0.0,0.0,0.9139,0.974,0.0,0.9822,0.9822,0.9822,0.9822,0.9822,0.9829,0.9592,0.9226,0.8735,0.8244,0.7994,0.7872,0.7872,0.7872,0.7872,0.7872,0.7872,0.7888,0.7896,0.7899,0.554,0.4306,0.4307,0.4307,0.3077,0.074,0.0247,0.0,0.0,0.0,0.0,0.0,0.0,0.0,0.0,0.0,0.0,0.0,0.0,0.0,0.0,0.0,0.0,0.0,0.0,0.0,0.0,0.0,0.0,0.0,0.0,0.0,0.0,0.0,0.0,0.0,0.0,0.0,0.0,0.0,0.0,0.0,0.0,0.0,0.7749,0.7955,0.7749,0.7746,0.8041,0.7955,0.8028,0.7955,0.8024,0.0,0.0,0.0,0.0,0.769,0.0,0.6124,0.2902,0.2005,0.1607,0.1609,0.1611,0.1611,0.1609,0.1606,0.3717,0.0,0.0,0.0,0.0,0.0,0.0,0.0,0.8041,0.8046,0.809,0.8553,0.8814,0.8862,0.8899,0.894,0.0,0.0,0.894,0.894,0.894,0.894,0.894,0.894,0.894,0.9139,0.974,0.9748,0.9822,0.9822,0.9822,0.9822,0.9822,0.9822,0.9707,0.9226,0.8979,0.8607,0.7991,0.7872,0.7872,0.7872,0.7872,0.7872,0.7872,0.7875,0.7883,0.7899,0.7398,0.703,0.7037,0.7037,0.6796,0.6188,0.1973,0.0,0.0,0.0,0.0,0.0,0.0,0.0,0.0,0.0,0.0,0.0,0.0,0.0,0.0,0.0,0.0,0.0,0.0,0.0,0.0,0.0,0.0,0.0,0.0,0.0,0.0,0.0,0.0,0.0,0.0,0.0,0.0,0.0,0.0,0.0,0.0,0.0,0.0,0.8048,0.8048,0.8045,0.8038,0.7981,0.8094,0.8477,0.0,0.0,0.0,0.0,0.0,0.8043,0.0,0.6721,0.4667,0.4636,0.3515,0.1607,0.1607,0.2814,0.4632,0.4622,0.6037,0.7979,0.7962,0.0,0.0,0.0,0.0,0.0,0.0,0.0,0.8171,0.868,0.8921,0.8948,0.8916,0.0,0.0,0.894,0.0,0.894,0.894,0.894,0.8846,0.8913,0.8869,0.9139,0.974,0.9748,0.9822,0.9822,0.9822,0.9822,0.9822,0.9822,0.9704,0.9477,0.8979,0.8482,0.7991,0.7872,0.7872,0.7872,0.7872,0.7872,0.7872,0.7872,0.7875,0.7886,0.7886,0.7888,0.7894,0.7894,0.7905,0.7803,0.382,0.1232,0.0,0.0,0.0,0.0,0.0,0.0,0.0,0.0,0.0,0.0,0.0,0.0,0.0,0.0,0.0,0.0,0.0,0.0,0.0,0.0,0.0,0.0,0.0,0.0,0.0,0.0,0.0,0.0,0.0,0.0,0.0,0.0,0.0,0.0,0.0,0.0,0.0,0.0,0.8038,0.7952,0.7975,0.8018,0.827,0.885,0.0,0.0,0.0,0.0,0.0,0.8187,0.0,0.8107,0.7997,0.8001,0.5994,0.2731,0.2731,0.4867,0.7958,0.0,0.0,0.8039,0.8123,0.8116,0.8116,0.8116,0.0,0.0,0.0,0.0,0.8265,0.8713,0.8931,0.894,0.894,0.894,0.894,0.894,0.894,0.0,0.894,0.8846,0.8897,0.8894,0.8918,0.9033,0.9658,0.9765,0.9822,0.9822,0.9822,0.9822,0.9822,0.9822,0.9829,0.9849,0.8979,0.8358,0.7991,0.7872,0.7872,0.7872,0.7872,0.7872,0.7872,0.7872,0.7872,0.7872,0.7872,0.7872,0.7872,0.7872,0.7886,0.791,0.4681,0.2094,0.0,0.0,0.0,0.0,0.0,0.0,0.0,0.0,0.0,0.0,0.0,0.0,0.0,0.0,0.0,0.0,0.0,0.0,0.0,0.0,0.0,0.0,0.0,0.0,0.0,0.0,0.0,0.0,0.0,0.0,0.0,0.0,0.0,0.0,0.8038,0.0,0.0,0.8038,0.8038,0.7999,0.8024,0.7953,0.8309,0.0,0.0,0.0,0.0,0.0,0.0,0.8783,0.0,0.0,0.8023,0.8027,0.7706,0.7171,0.7171,0.7491,0.0,0.0,0.0,0.0,0.0,0.0,0.8744,0.8529,0.8219,0.0,0.0,0.0,0.8821,0.8824,0.8931,0.894,0.894,0.0,0.894,0.0,0.894,0.894,0.0,0.0,0.8897,0.0,0.8918,0.9062,0.9679,0.9834,0.9822,0.9822,0.9822,0.9822,0.9822,0.9822,0.9825,0.9839,0.8973,0.8358,0.7991,0.7872,0.7872,0.7872,0.7872,0.7872,0.7872,0.7872,0.7872,0.7872,0.7872,0.7872,0.7872,0.7872,0.788,0.7899,0.2832,0.037,0.0,0.0,0.0,0.0,0.0,0.0,0.0,0.0,0.0,0.0,0.0,0.0,0.0,0.0,0.0,0.0,0.0,0.0,0.0,0.0,0.0,0.0,0.0,0.0,0.0,0.0,0.0,0.0,0.0,0.0,0.0,0.8038,0.8038,0.8038,0.8038,0.8038,0.7975,0.7958,0.7961,0.8028,0.7959,0.8319,0.8642,0.0,0.0,0.0,0.0,0.8872,0.8951,0.0,0.0,0.0,0.0,0.0,0.0,0.8496,0.8496,0.0,0.0,0.0,0.0,0.0,0.0,0.0,0.0,0.0,0.8428,0.8388,0.8721,0.0,0.0,0.0,0.8886,0.894,0.894,0.894,0.894,0.0,0.894,0.894,0.894,0.0,0.8944,0.938,0.9401,0.953,0.972,0.9847,0.9822,0.9822,0.9822,0.9822,0.9822,0.9822,0.9825,0.9836,0.922,0.8485,0.7991,0.7872,0.7872,0.7872,0.7872,0.7872,0.7872,0.7872,0.7872,0.7872,0.7872,0.7872,0.7872,0.7872,0.788,0.7899,0.5598,0.2995,0.0,0.0,0.0,0.0,0.0,0.0,0.0,0.0,0.0,0.0,0.0,0.0,0.0,0.0,0.0,0.0,0.0,0.0,0.0,0.0,0.0,0.0,0.0,0.0,0.0,0.0,0.0,0.0,0.0,0.0,0.0,0.0,0.8038,0.7955,0.7995,0.8029,0.7994,0.8001,0.811,0.818,0.821,0.8652,0.0,0.0,0.0,0.0,0.894,0.894,0.894,0.0,0.8931,0.0,0.0,0.0,0.0,0.0,0.0,0.0,0.0,0.0,0.0,0.0,0.0,0.0,0.0,0.0,0.0,0.0,0.0,0.0,0.0,0.0,0.0,0.894,0.0,0.0,0.894,0.894,0.894,0.8947,0.0,0.0,0.902,0.0,0.9804,0.9786,0.9786,0.9751,0.9822,0.9822,0.9822,0.9822,0.9822,0.9822,0.9825,0.9832,0.9345,0.8851,0.7991,0.7869,0.7872,0.7872,0.7872,0.7872,0.7872,0.7872,0.7872,0.7872,0.7872,0.7872,0.7872,0.7872,0.7894,0.794,0.804,0.6063,0.2025,0.0643,0.0,0.0,0.0,0.0,0.0,0.0,0.0,0.0,0.0,0.0,0.0,0.0,0.0,0.0,0.0,0.0,0.0,0.0,0.0,0.0,0.0,0.0,0.0,0.0,0.0,0.0,0.0,0.8038,0.8038,0.8038,0.8038,0.7999,0.8037,0.7959,0.803,0.804,0.8577,0.0,0.8807,0.8928,0.0,0.0,0.0,0.0,0.894,0.894,0.894,0.894,0.893,0.8927,0.8927,0.0,0.0,0.0,0.0,0.0,0.0,0.0,0.0,0.0,0.0,0.0,0.0,0.0,0.0,0.0,0.0,0.0,0.0,0.0,0.0,0.0,0.0,0.894,0.0,0.894,0.894,0.8863,0.0,0.0,0.9052,0.9686,0.9834,0.9812,0.9812,0.9815,0.9822,0.9822,0.9822,0.9822,0.9822,0.9822,0.9822,0.9822,0.9829,0.922,0.798,0.7867,0.7872,0.7872,0.7872,0.7872,0.7872,0.7872,0.7872,0.7872,0.7872,0.7872,0.7872,0.7872,0.7929,0.8046,0.8062,0.8001,0.7727,0.2478,0.0,0.0,0.0,0.0,0.0,0.0,0.0,0.0,0.0,0.0,0.0,0.0,0.0,0.0,0.0,0.0,0.0,0.0,0.0,0.0,0.0,0.0,0.0,0.0,0.0,0.0,0.0,0.7978,0.8014,0.7997,0.8004,0.8137,0.8512,0.8563,0.8526,0.8621,0.8738,0.8921,0.8855,0.0,0.0,0.0,0.0,0.894,0.894,0.894,0.894,0.894,0.894,0.894,0.894,0.894,0.0,0.0,0.0,0.0,0.0,0.0,0.0,0.0,0.0,0.0,0.0,0.0,0.0,0.0,0.0,0.0,0.0,0.0,0.0,0.0,0.0,0.0,0.0,0.894,0.8893,0.8858,0.8907,0.9228,0.9544,0.9724,0.9844,0.9822,0.9822,0.9822,0.9822,0.9822,0.9822,0.9822,0.9822,0.9822,0.9822,0.9822,0.9832,0.9592,0.9217,0.8729,0.8485,0.8244,0.8244,0.8119,0.7872,0.7872,0.7907,0.7986,0.7989,0.8024,0.8103,0.8106,0.8127,0.8171,0.8255,0.8318,0.8372,0.6366,0.3467,0.0,0.0,0.0,0.0,0.0,0.0,0.0,0.0,0.0,0.0,0.0,0.0,0.0,0.0,0.0,0.0,0.0,0.0,0.0,0.0,0.0,0.0,0.0,0.0,0.0,0.0,0.0,0.8273,0.8259,0.8312,0.8451,0.8885,0.8934,0.8901,0.8896,0.89,0.8948,0.8937,0.0,0.0,0.0,0.0,0.0,0.0,0.894,0.894,0.894,0.894,0.894,0.0,0.0,0.0,0.894,0.0,0.0,0.894,0.0,0.0,0.0,0.0,0.0,0.0,0.0,0.0,0.0,0.0,0.0,0.0,0.0,0.0,0.0,0.894,0.0,0.0,0.0,0.893,0.8934,0.9101,0.9545,0.9748,0.9796,0.9758,0.9822,0.9822,0.9822,0.9822,0.9822,0.9822,0.9822,0.9822,0.9822,0.9822,0.9822,0.9829,0.971,0.9589,0.922,0.8854,0.8369,0.8407,0.0,0.7932,0.797,0.803,0.8111,0.8114,0.8152,0.8233,0.8236,0.8255,0.8296,0.8378,0.844,0.8486,0.8581,0.5915,0.1343,0.0403,0.0,0.0,0.0,0.0,0.0,0.0,0.0,0.0,0.0,0.0,0.0,0.0,0.0,0.0,0.0,0.0,0.0,0.0,0.0,0.0,0.0,0.0,0.0,0.0,0.0,0.0,0.893,0.8852,0.8939,0.8939,0.8859,0.894,0.894,0.894,0.894,0.894,0.0,0.0,0.0,0.0,0.0,0.0,0.0,0.894,0.894,0.894,0.894,0.894,0.0,0.894,0.894,0.0,0.894,0.894,0.0,0.0,0.0,0.894,0.894,0.0,0.0,0.0,0.0,0.0,0.0,0.0,0.0,0.0,0.0,0.0,0.0,0.0,0.0,0.8933,0.9081,0.9704,0.9745,0.9779,0.9795,0.9822,0.9822,0.9822,0.9822,0.9822,0.9822,0.9822,0.9822,0.9822,0.9822,0.9822,0.9822,0.9822,0.97,0.9211,0.9217,0.8976,0.8497,0.8485,0.8432,0.806,0.8174,0.8242,0.8242,0.8244,0.8244,0.8244,0.8244,0.8304,0.8424,0.8424,0.8481,0.8587,0.8606,0.7123,0.4294,0.1343,0.0,0.0,0.0,0.0,0.0,0.0,0.0,0.0,0.0,0.0,0.0,0.0,0.0,0.0,0.0,0.0,0.0,0.0,0.0,0.0,0.0,0.0,0.0,0.0,0.0,0.0,0.8924,0.8852,0.8876,0.8876,0.8916,0.894,0.894,0.894,0.894,0.894,0.0,0.0,0.0,0.0,0.0,0.0,0.0,0.0,0.0,0.894,0.894,0.894,0.894,0.0,0.0,0.894,0.894,0.0,0.0,0.0,0.0,0.0,0.894,0.0,0.0,0.894,0.894,0.0,0.0,0.0,0.0,0.0,0.0,0.894,0.0,0.0,0.0,0.0,0.0,0.9613,0.9822,0.9774,0.9812,0.9822,0.9822,0.9822,0.9822,0.9822,0.9822,0.9822,0.9822,0.9822,0.9822,0.9822,0.9822,0.9822,0.97,0.97,0.9675,0.9493,0.0,0.8995,0.8816,0.8185,0.8301,0.8367,0.8367,0.8446,0.8489,0.8489,0.8489,0.8508,0.8541,0.8541,0.8557,0.8587,0.8606,0.821,0.7132,0.2149,0.0,0.0,0.0,0.0,0.0,0.0,0.0,0.0,0.0,0.0,0.0,0.0,0.0,0.0,0.0,0.0,0.0,0.0,0.0,0.0,0.0,0.0,0.0,0.0,0.0,0.0,0.0,0.894,0.894,0.894,0.894,0.894,0.894,0.894,0.894,0.894,0.0,0.0,0.0,0.0,0.0,0.0,0.0,0.0,0.0,0.0,0.0,0.0,0.0,0.0,0.0,0.894,0.0,0.0,0.894,0.894,0.0,0.0,0.0,0.894,0.894,0.894,0.0,0.0,0.0,0.0,0.0,0.0,0.0,0.0,0.0,0.0,0.0,0.0,0.0,0.9703,0.9779,0.9822,0.9822,0.9822,0.9822,0.9822,0.9822,0.9822,0.9822,0.9822,0.9822,0.9822,0.9822,0.9822,0.9822,0.9822,0.9846,0.991,0.9998,0.9827,0.9136,0.9261,0.9104,0.838,0.8448,0.8489,0.8489,0.8554,0.8587,0.8587,0.8587,0.8587,0.8587,0.8587,0.8587,0.8587,0.8598,0.8611,0.8352,0.3759,0.1075,0.0,0.0,0.0,0.0,0.0,0.0,0.0,0.0,0.0,0.0,0.0,0.0,0.0,0.0,0.0,0.0,0.0,0.0,0.0,0.0,0.0,0.0,0.0,0.0,0.0,0.0,0.894,0.894,0.894,0.894,0.0,0.894,0.894,0.894,0.894,0.894,0.0,0.0,0.0,0.0,0.0,0.0,0.0,0.0,0.0,0.0,0.0,0.0,0.0,0.894,0.894,0.894,0.0,0.0,0.894,0.0,0.8846,0.885,0.8853,0.887,0.8876,0.0,0.0,0.0,0.0,0.0,0.895,0.0,0.0,0.0,0.0,0.0,0.0,0.0,0.97,0.984,0.9822,0.9822,0.9822,0.9822,0.9822,0.9822,0.9822,0.9822,0.9822,0.9822,0.9822,0.9822,0.9822,0.9822,0.9836,0.99,1.0039,1.0083,0.9903,0.9391,0.9398,0.9133,0.8581,0.8587,0.8587,0.8587,0.8587,0.8587,0.8587,0.8587,0.8587,0.8587,0.8587,0.8587,0.8587,0.8587,0.8598,0.8478,0.591,0.2953,0.0,0.0,0.0,0.0,0.0,0.0,0.0,0.0,0.0,0.0,0.0,0.0,0.0,0.0,0.0,0.0,0.0,0.0,0.0,0.0,0.0,0.0,0.0,0.0,0.0,0.0,0.0,0.894,0.0,0.0,0.894,0.894,0.894,0.894,0.894,0.894,0.894,0.0,0.0,0.0,0.0,0.0,0.0,0.0,0.0,0.0,0.0,0.0,0.0,0.894,0.894,0.0,0.894,0.894,0.894,0.8954,0.895,0.8878,0.8897,0.0,0.8938,0.8918,0.0,0.0,0.0,0.0,0.0,0.0,0.0,0.0,0.0,0.0,0.0,0.0,0.9727,0.984,0.9822,0.9822,0.9822,0.9822,0.9822,0.9822,0.9822,0.9822,0.9822,0.9822,0.9822,0.9822,0.9822,0.9822,1.0057,1.027,1.0301,1.0397,1.029,0.9932,0.9404,0.8958,0.8587,0.8587,0.8587,0.8587,0.8587,0.8587,0.8587,0.8587,0.8587,0.8587,0.8587,0.8587,0.8587,0.8587,0.8598,0.8614,0.7945,0.4838,0.0,0.0,0.0,0.0,0.0,0.0,0.0,0.0,0.0,0.0,0.0,0.0,0.0,0.0,0.0,0.0,0.0,0.0,0.0,0.0,0.0,0.0,0.0,0.0,0.0,0.0,0.0,0.0,0.0,0.0,0.894,0.894,0.894,0.894,0.894,0.894,0.894,0.894,0.894,0.0,0.0,0.0,0.0,0.0,0.0,0.0,0.0,0.0,0.8858,0.8921,0.8845,0.0,0.8937,0.8897,0.8927,0.8934,0.8886,0.9148,0.9394,0.9354,0.9381,0.0,0.0,0.9198,0.8993,0.0,0.9094,0.8895,0.0,0.0,0.0,0.9242,0.0,0.0,0.0,0.9771,0.9822,0.9822,0.9822,0.9822,0.9822,0.9822,0.9822,0.9822,0.9822,0.9846,0.9798,0.9744,0.9849,0.9801,1.0002,1.011,1.0517,1.0537,1.0397,0.9949,0.9347,0.8984,0.8587,0.8587,0.8587,0.8587,0.8587,0.8587,0.8587,0.8587,0.8587,0.8587,0.8587,0.8587,0.8587,0.8587,0.8592,0.8603,0.8617,0.6183,0.2014,0.0538,0.0,0.0,0.0,0.0,0.0,0.0,0.0,0.0,0.0,0.0,0.0,0.0,0.0,0.0,0.0,0.0,0.0,0.0,0.0,0.0,0.0,0.0,0.0,0.0,0.0,0.0,0.0,0.0,0.0,0.0,0.894,0.894,0.894,0.894,0.894,0.894,0.894,0.894,0.0,0.0,0.0,0.0,0.0,0.0,0.0,0.0,0.0,0.9016,0.0,0.9104,0.9091,0.9096,0.9023,0.9026,0.9056,0.9442,0.9828,0.9828,0.0,0.9821,0.9796,0.9445,0.0,0.0,0.0,0.0,0.0,0.0,0.0,0.0,0.0,0.9803,0.0,0.0,0.0,0.9822,0.9822,0.0,0.0,0.0,0.0,0.0,0.0,0.0,0.0,0.9961,0.0,0.982,0.9863,1.0099,1.0603,1.0654,1.033,0.9788,0.9389,0.8984,0.8587,0.8587,0.8587,0.8587,0.8587,0.8587,0.8587,0.8587,0.8587,0.8587,0.8587,0.8587,0.8587,0.8587,0.8587,0.859,0.8606,0.7259,0.4832,0.1477,0.0,0.0,0.0,0.0,0.0,0.0,0.0,0.0,1.156,1.1312,0.0,0.0,0.0,0.0,0.0,0.0,0.0,0.0,0.0,0.0,0.0,0.0,0.0,0.0,0.0,0.0,0.894,0.0,0.0,0.0,0.0,0.0,0.894,0.894,0.894,0.894,0.894,0.894,0.894,0.0,0.0,0.0,0.8953,0.0,0.0,0.0,0.9722,0.0,0.9752,0.9717,0.0,0.9733,0.974,0.9641,0.9658,0.9786,0.9774,0.0,0.9774,0.9751,0.0,0.9792,0.0,0.0,0.0,0.0,0.0,0.0,0.0,0.0,0.9827,0.0,0.0,0.0,0.9822,0.9822,0.0,0.0,0.0,0.0,0.0,0.0,0.0,0.0,0.9823,1.0249,1.0343,0.9846,1.0233,1.0589,1.0753,1.0353,1.0041,0.9933,0.9389,0.8984,0.8587,0.8587,0.8587,0.8587,0.8587,0.8587,0.8587,0.8587,0.8587,0.8587,0.8587,0.8587,0.8587,0.8587,0.8587,0.859,0.8606,0.8478,0.7667,0.2283,0.0,0.0,0.0,0.0,0.0,0.0,0.0,0.0,0.0,1.3325,0.0,0.0,0.0,0.0,0.0,0.0,0.0,0.0,0.0,0.0,0.0,0.0,0.0,0.0,0.0,1.037,0.0,0.0,0.0,0.0,0.0,0.0,0.0,0.894,0.894,0.894,0.894,0.894,0.894,0.891,0.0,0.0,0.8866,0.0,0.9422,0.0,0.0,0.0,0.0,0.0,0.0,0.9761,0.9761,0.9768,0.983,0.9771,0.9822,0.0,0.9822,0.0,0.0,0.0,0.0,0.0,0.0,0.0,0.0,0.0,0.0,0.0,0.0,0.0,0.0,0.0,0.9822,0.0,0.0,0.0,0.0,0.0,0.0,0.0,1.0114,0.0,0.0,0.0,1.063,0.0,0.0,0.0,1.0761,1.0154,0.9785,0.9658,0.9253,0.8984,0.8587,0.8587,0.8587,0.8587,0.8587,0.8587,0.8587,0.8587,0.8587,0.8587,0.8587,0.8587,0.8587,0.8587,0.8587,0.8587,0.8595,0.8606,0.8344,0.6049,0.2956,0.0,0.0,0.0,0.0,0.0,0.0,0.0,0.0,0.0,0.0,0.0,0.0,0.0,0.0,0.0,0.0,0.0,0.0,0.0,1.1321,0.9915,0.0,0.0,0.0,1.2683,0.0,0.0,0.8876,0.0,0.0,0.0,0.0,0.0,0.8943,0.8943,0.8927,0.892,0.8923,0.8911,0.8957,0.0,0.0,0.9386,0.9856,0.0,0.0,0.9822,0.9822,0.9822,0.9822,0.9822,0.9822,0.9822,0.9822,0.9822,0.9822,0.9822,0.9822,0.0,0.9822,0.0,0.0,0.0,0.0,0.0,0.9822,0.0,0.0,0.0,0.0,0.0,0.0,0.0,0.0,0.0,0.0,0.0,0.0,0.0,0.0,0.0,0.0,1.0323,0.0,1.0304,0.0,0.0,0.0,0.0,0.0,1.0199,0.9791,0.9389,0.912,0.8851,0.872,0.8587,0.8587,0.8587,0.8587,0.8587,0.8587,0.8587,0.8587,0.8587,0.8587,0.8587,0.8587,0.8587,0.8587,0.8587,0.8587,0.8595,0.8609,0.8619,0.5646,0.1074,0.0269,0.0,0.0,0.0,0.0,0.0,1.5421,1.5475,0.0,0.0,0.0,0.0,0.0,0.0,0.0,0.0,0.0,0.0,0.0,0.0,0.0,0.0,0.0,1.5712,1.5701,0.0,0.8922,0.0,0.0,0.0,0.0,0.0,0.0,0.8891,0.8951,0.8925,0.8925,0.8928,0.9171,0.9774,0.9752,0.9727,0.9744,0.9758,0.9819,0.9822,0.9822,0.9822,0.9822,0.0,0.9822,0.9822,0.9822,0.0,0.0,0.9822,0.9822,0.0,0.0,0.0,0.0,0.0,0.0,0.0,0.0,0.0,0.0,0.9822,0.0,0.0,0.0,0.0,0.9822,0.0,0.0,0.0,0.0,0.0,0.0,0.0,0.0,0.0,0.0,0.0,0.0,0.0,0.0,0.0,0.0,1.0622,1.0345,0.9797,0.8989,0.872,0.9117,0.8717,0.8587,0.8587,0.8587,0.8587,0.8587,0.8587,0.8587,0.8587,0.8587,0.8587,0.8587,0.8587,0.8587,0.8587,0.8587,0.8587,0.859,0.8609,0.6853,0.3891,0.1074,0.0,0.0,0.0,0.0,0.0,0.0,0.0,0.0,0.0,0.0,0.0,0.0,1.384,0.0,0.0,0.0,0.0,0.0,0.0,1.1496,0.0,0.0,1.4286,1.5761,1.4448,0.0,0.0,0.0,0.9463,0.0,0.0,0.0,0.0,0.0,1.1204,1.4615,1.4533,1.2885,0.9752,0.0,0.9751,0.0,0.0,0.0,0.0,0.0,0.9822,0.9822,0.0,0.0,0.9822,0.9822,0.9822,0.0,0.9822,0.9822,0.9822,0.9822,0.9822,0.9822,0.9822,0.9822,0.0,0.0,0.0,0.9822,0.9822,0.0,0.0,0.0,0.0,0.0,0.0,0.0,0.0,0.0,0.0,0.0,0.0,0.0,0.0,0.0,0.0,0.0,0.0,0.0,0.0,0.0,0.0,0.993,0.9655,0.9525,0.9256,0.9117,0.8984,0.8851,0.8587,0.8587,0.8587,0.8587,0.8587,0.8587,0.8587,0.8587,0.8587,0.8587,0.8587,0.8587,0.8587,0.86,0.8606,0.8609,0.863,0.8089,0.6725,0.1882,0.0,0.0,0.0,0.0,0.0,1.5855,0.0,0.0,0.0,0.0,0.0,0.0,0.0,0.0,0.0,1.475,0.0,1.4975,0.0,1.427,0.0,1.4587,1.4815,1.6415,1.6477,0.0,1.0051,1.1608,0.0,0.0,0.0,0.0,0.0,0.0,1.4199,1.7493,1.5617,1.3045,0.9846,0.0,0.9778,0.9798,0.0,0.9805,0.0,0.0,0.9822,0.0,0.0,0.9822,0.9822,0.0,0.9822,0.9822,0.9822,0.9822,0.9822,0.9822,0.9822,0.9822,0.9822,0.9822,0.9822,0.9822,0.9822,0.0,0.9822,0.9822,0.0,0.9822,0.0,0.0,0.0,0.0,0.0,0.0,0.0,0.0,0.0,0.0,0.0,0.0,1.0431,0.0,0.0,0.0,0.0,0.0,0.0,1.0066,1.0057,0.9927,0.9661,0.0,0.925,0.8984,0.8717,0.872,0.8587,0.8587,0.8587,0.8587,0.8587,0.8595,0.8598,0.8598,0.86,0.8603,0.8603,0.8614,0.8074,0.7125,0.7007,0.7684,0.8223,0.4442,0.1749,0.0,0.0,0.0,0.0,0.0,0.0,0.0,0.0,1.5897,0.0,0.0,0.0,1.6006,0.0,1.6302,1.618,1.6034,1.6427,1.6869,1.7487,1.7547,0.0,1.7492,1.7449,0.0,0.0,1.4888,1.5194,1.0271,0.0,0.0,0.0,0.0,0.0,1.7016,1.2393,1.0123,1.0195,1.0137,0.0,1.0127,0.9875,0.9778,0.9819,0.9819,0.9822,0.9822,0.9822,0.9822,0.9822,0.9822,0.9822,0.9822,0.9822,0.9822,0.9822,0.9822,0.9822,0.9822,0.9822,0.9822,0.9822,0.9822,0.9822,0.9822,0.9822,0.0,0.0,0.0,0.0,0.9842,0.0,0.0,0.0,0.0,0.0,0.0,0.0,0.0,0.0,0.0,0.0,0.0,0.0,0.0,0.0,0.0,0.9933,1.0748,1.0738,1.0336,1.0066,0.0,0.9519,0.9117,0.9117,0.8717,0.8587,0.8587,0.8587,0.8587,0.8587,0.8606,0.8614,0.8614,0.8625,0.8494,0.8357,0.8494,0.6998,0.443,0.416,0.5914,0.863,0.8649,0.5119,0.0,0.0,0.0,0.0,1.6211,1.5998,1.5952,0.0,1.6018,1.5958,0.0,0.0,0.0,0.0,1.6592,1.6612,1.6833,1.6791,1.6972,1.74,1.7523,0.0,0.0,0.0,0.0,1.5595,1.6787,1.6941,1.551,1.6874,0.0,1.5515,0.0,0.0,1.1774,1.4356,1.5504,1.5552,0.0,0.0,1.5209,1.1378,0.9758,0.9774,0.9808,0.9822,0.0,0.0,0.9822,0.9822,0.9822,0.9822,0.9822,0.9822,0.9822,0.9822,0.9822,0.9822,0.9822,0.9822,0.9822,0.9822,0.9822,0.9822,0.9822,0.9822,0.9781,0.9741,0.0,0.0,0.0,0.0,0.0,0.0,0.0,0.0,0.0,0.0,0.0,0.0,0.0,0.0,0.0,1.0724,0.0,0.0,0.8698,0.9921,1.0738,1.0724,1.0326,0.0,0.0,0.0,0.9256,0.872,0.8851,0.8851,0.8587,0.8587,0.8587,0.8587,0.8592,0.86,0.8614,0.8617,0.7397,0.5508,0.7689,0.8239,0.715,0.2824,0.4037,0.8649,0.8663,0.5124,0.0,0.0,0.0,0.0,1.6211,0.0,0.0,1.6254,0.0,0.0,1.6441,0.0,0.0,1.6833,1.6869,0.0,1.7237,1.7134,1.7193,1.7467,1.7485,0.0,0.0,0.0,0.0,1.7485,1.7469,1.7481,1.7485,1.7523,0.0,1.4168,0.0,0.0,1.3228,1.6115,1.7517,1.7529,1.747,1.6214,1.4062,1.3463,1.1836,0.984,0.9771,0.9791,0.0,0.9764,0.9794,0.9804,0.9744,0.9808,0.9822,0.9822,0.9741,0.9794,0.9794,0.9841,0.9767,0.9767,0.9767,0.9767,0.9767,0.9767,0.9767,0.9767,0.983,0.9893,1.0151,1.0219,1.0149,0.0,0.0,0.0,0.0,0.0,0.0,0.0,0.0,0.0,0.0,0.0,0.0,0.0,1.0724,0.0,0.9646,1.0193,1.0598,1.0319,1.019,0.0,0.0,0.0,0.9392,0.9125,0.8987,0.8853,0.8587,0.8587,0.8587,0.8587,0.8595,0.8606,0.8614,0.7259,0.5103,0.255,0.417,0.485,0.4581,0.1346,0.1884,0.5119,0.7569,0.5124,0.0,0.0,0.0,0.0,0.0,0.0,0.0,0.0,0.0,0.0,0.0,1.6773,0.0,1.7111,0.0,1.7225,1.7455,1.7485,1.7485,1.7485,0.0,1.7485,1.7485,1.7485,1.7485,1.7485,1.7485,1.7485,1.7485,1.7497,0.0,0.0,0.0,0.0,1.7511,1.7499,1.7445,1.7485,1.7497,0.0,0.0,1.5547,1.4939,1.0786,1.0868,1.0407,0.9812,0.9754,0.9824,0.9968,0.9969,0.985,0.9757,0.9757,0.9841,0.9824,0.9952,0.9913,0.9888,0.9888,0.9888,0.9888,0.9888,0.9888,0.9888,0.9888,0.9901,1.0045,1.0572,1.0717,1.0732,1.0732,1.0732,1.0642,0.0,0.0,0.0,0.0,0.0,0.0,0.0,0.0,0.0,0.0,0.0,0.0,1.0462,1.0465,1.0329,0.9782,0.9921,0.0,0.0,0.0,0.9253,0.9661,0.8989,0.8587,0.8587,0.8587,0.8587,0.8587,0.8603,0.8611,0.848,0.6044,0.349,0.1075,0.0269,0.0,0.0,0.0,0.0,0.0538,0.5525,0.4447,0.0,0.0,0.0,0.0,0.0,0.0,0.0,0.0,0.0,1.7092,1.7316,1.7165,1.7117,1.7376,1.7412,1.743,1.7473,1.7485,1.7485,1.7485,1.7485,0.0,0.0,0.0,0.0,1.7485,1.7485,1.7485,1.7485,1.7445,1.7097,0.0,0.0,0.0,1.7505,1.7545,1.7503,1.7485,1.7451,0.0,1.6216,1.7107,0.0,1.6128,1.616,1.3555,0.9761,0.979,1.0109,1.0506,1.0534,1.0243,0.981,0.981,0.9826,0.9849,1.0369,1.052,1.0541,1.0541,1.0541,1.0541,1.0541,1.0541,1.0541,1.0541,1.0503,1.0589,1.0722,1.0689,1.0646,1.0646,1.0646,1.0653,1.0677,0.0,0.0,0.0,0.0,0.0,0.0,0.0,0.0,0.0,0.0,0.0,0.0,0.951,0.9785,0.0,0.0,0.0,0.0,0.0,0.9117,0.0,0.9117,0.0,0.0,0.0,0.8587,0.8587,0.859,0.86,0.8614,0.8071,0.7543,0.6881,0.2017,0.0,0.0,0.0,0.0,0.0135,0.1077,0.0942,0.0,0.0,0.0,0.0,0.0,0.0,0.0,0.0,0.0,0.0,0.0,1.7499,0.0,1.7467,1.7485,1.7485,1.7485,1.7485,1.7485,1.7485,1.7485,1.7485,1.7485,1.7485,1.7485,1.7485,1.7485,0.0,1.7485,1.7527,1.7551,1.7551,0.0,0.0,0.0,0.0,1.7485,1.7485,1.7533,1.7505,0.0,0.0,0.0,1.7277,1.4568,1.2209,1.0228,1.0276,1.0493,1.0666,1.0746,1.051,1.0217,1.0331,1.0327,1.026,1.0652,1.0711,1.0644,1.0644,1.0644,1.0644,1.0644,1.0644,1.0644,1.0644,1.0695,1.0743,1.0743,1.067,1.0721,1.0721,1.0721,1.0721,1.0721,1.0721,0.0,0.0,0.0,0.0,0.0,0.0,0.0,0.0,0.0,0.0,0.0,0.0,0.0,0.0,0.0,0.9386,0.9927,0.0,0.8987,0.0,0.0,0.0,0.8587,0.0,0.8587,0.8587,0.8587,0.8592,0.86,0.86,0.8614,0.8362,0.403,0.1343,0.0,0.0,0.0,0.0,0.0,0.0,0.0,0.0,0.0,0.0,0.0,1.7786,0.0,0.0,1.7927,0.0,1.7966,1.7726,1.7602,1.7485,1.7485,1.7485,1.7485,1.7485,1.7485,1.7485,1.7485,1.7485,1.7485,1.7485,1.7485,1.7485,1.7485,1.7485,1.7485,1.7485,1.7485,0.0,0.0,0.0,0.0,0.0,0.0,0.0,0.0,0.0,0.0,0.0,1.7833,1.7514,1.338,1.2033,1.2389,1.117,1.0746,1.0675,1.0673,1.0721,1.0687,1.0718,1.0715,1.0675,1.0675,1.0757,1.0721,1.0721,1.0721,1.0721,1.0721,1.0721,1.0721,1.0721,1.0721,1.0721,1.0721,1.0721,1.0721,1.0721,1.0721,1.0721,1.0721,1.0721,0.0,0.0,0.0,0.0,0.0,0.0,0.0,0.0,0.0,0.0,0.0,0.0,0.0,0.0,0.0,0.9386,1.0057,0.9256,0.8989,0.0,0.0,0.8587,0.8587,0.0,0.8587,0.8587,0.8587,0.8587,0.8587,0.8587,0.8598,0.8478,0.618,0.3221,0.0,0.0,0.0,0.0,0.0,0.0,0.0,0.0,0.0,0.0,0.0,0.0,0.0,0.0,0.0,0.0,1.8083,1.7972,1.7849,1.7485,1.7485,1.7485,1.7485,1.7485,1.7485,1.7485,1.7485,1.7485,1.7485,1.7485,1.7485,1.7485,1.7485,1.7485,1.7485,1.7485,1.7485,0.0,0.0,0.0,0.0,0.0,0.0,0.0,0.0,0.0,0.0,1.8527,1.8994,1.8852,1.8423,1.8307,1.7752,1.269,1.075,1.0764,1.0697,1.0721,1.0717,1.069,1.069,1.07,1.07,1.0707,1.0721,1.0721,1.0721,1.0721,1.0721,1.0721,1.0721,1.0721,1.0721,1.0721,1.0721,1.0721,1.0721,1.0721,1.0721,1.0721,1.0721,1.0721,1.0721,0.0,0.0,0.0,0.0,0.0,0.0,0.0,0.0,0.0,0.0,0.9655,0.0,0.0,0.9253,0.9253,0.9661,0.9253,0.9253,0.9661,0.8989,0.8587,0.8587,0.8587,0.8587,0.8587,0.8587,0.8587,0.8587,0.8587,0.8598,0.8614,0.8344,0.5103,0.0,0.0,0.0,0.0,0.0,0.0,0.0,0.0,0.0,0.0,0.0,0.0,0.0,0.0,0.0,0.0,0.0,1.796,1.7608,1.7485,1.7485,1.7485,1.7485,1.7485,1.7485,1.7485,1.7485,1.7485,1.7485,1.7485,1.7485,1.7485,1.7485,1.7485,1.7485,1.7485,1.7485,0.0,0.0,0.0,0.0,0.0,0.0,0.0,0.0,1.8416,1.8523,1.8939,1.9056,1.9102,1.9079,1.9054,1.8875,1.6629,1.3692,1.0639,1.066,1.069,1.0721,1.0721,1.0721,1.0721,1.0721,1.0721,1.0721,1.0721,1.0721,1.0721,1.0721,1.0721,1.0721,1.0721,1.0721,1.0721,1.0721,1.0721,1.0721,1.0721,1.0721,1.0721,1.0721,1.0721,1.0721,0.0,0.0,0.0,0.0,0.0,0.0,0.0,0.0,0.0,0.0,0.0,0.0,0.0,0.0,0.9123,0.9661,0.9123,0.8987,0.9389,0.0,0.8587,0.8587,0.8587,0.8587,0.8587,0.8587,0.8587,0.8587,0.8587,0.8598,0.8614,0.8619,0.5376,0.0,0.0,0.0,0.0,0.0,0.0,0.0,0.0,0.0,0.0,1.9366,0.0,1.912,0.0,1.89,1.8434,1.8421,1.8071,1.7713,1.7479,1.7485,1.7485,1.7485,1.7485,1.7485,1.7485,1.7485,1.7485,1.7485,1.7485,1.7485,1.7485,1.7485,0.0,1.7485,1.7485,1.7515,1.7469,1.7469,0.0,0.0,0.0,0.0,0.0,1.8809,1.9106,1.9077,1.9077,1.9048,1.9078,1.9078,1.9114,1.9052,1.9082,1.6644,1.2894,1.1297,1.066,1.0697,1.0714,1.0721,1.0721,1.0721,1.0721,1.0721,1.0721,1.0721,1.0721,1.0721,1.0721,1.0721,1.0721,1.0721,1.0721,1.0721,1.0721,1.0721,1.0721,1.0721,1.0721,1.0721,1.0721,1.0721,1.0721,0.0,0.0,0.0,0.0,0.0,0.0,1.0721,1.0721,1.0721,1.0455,0.0,0.0,0.0,0.9125,0.9661,0.9123,0.0,0.0,0.0,0.0,0.8587,0.8587,0.8587,0.8587,0.8587,0.8587,0.8587,0.8587,0.8595,0.8609,0.8622,0.5781,0.1209,0.0404,0.0,0.0,0.0,0.0,0.0,0.0,0.0,0.0,1.9366,1.9366,1.9366,1.9366,1.9366,1.9127,1.8538,1.8421,1.8181,1.7596,1.7485,1.7485,1.7485,1.7485,1.7485,1.7485,1.7485,1.7485,1.7485,1.7485,1.7485,0.0,0.0,1.7485,1.7485,1.7485,1.7481,1.7475,0.0,0.0,1.7565,0.0,1.9093,1.9093,1.9099,1.9102,1.9072,1.9072,1.9072,1.9078,1.9078,1.9078,1.9084,1.9058,1.9094,1.8271,1.2759,1.0636,1.0646,1.07,1.0721,1.0721,1.0721,1.0721,1.0721,1.0721,1.0721,1.0721,1.0721,1.0721,1.0721,1.0721,1.0721,1.0721,1.0721,1.0721,1.0721,1.0721,1.0721,1.0721,1.0721,1.0721,1.0721,1.0721,0.0,0.0,0.0,0.0,0.0,0.0,1.0721,1.0721,1.0721,1.0455,0.0,0.0,0.0,0.0,0.0,0.0,0.0,0.9661,0.8989,0.0,0.8587,0.8587,0.8587,0.8587,0.8587,0.8587,0.8587,0.8587,0.8587,0.859,0.8617,0.6996,0.4025,0.121,0.0,0.0,0.0,0.0,0.0,0.0,0.0,0.0,1.9366,1.9366,1.9366,1.9366,1.9243,1.9004,1.8765,1.8421,1.8083,1.7849,1.7602,1.7551,1.7732,1.7587,1.7485,0.0,1.7485,1.7485,0.0,1.7784,1.8007,1.7876,1.7937,1.8028,1.7895,1.7629,1.7537,1.7492,0.0,0.0,0.0,1.8961,1.9059,1.9091,1.9091,1.9133,1.9078,1.9078,1.9078,1.9078,1.9078,1.9078,1.9078,1.9108,1.9082,1.8812,1.7032,1.3914,1.0697,1.0714,1.0721,1.0721,1.0721,1.0721,1.0721,1.0721,1.0721,1.0721,1.0721,1.0721,1.0721,1.0721,1.0721,1.0721,1.0721,1.0721,1.0721,1.0721,1.0721,1.0721,1.0721,1.0721,1.0721,1.0721,1.0721,0.0,0.0,0.0,0.0,0.0,1.0721,1.0721,1.0721,1.0588,0.0,0.0,0.0,0.0,0.0,0.0,0.0,0.0,0.8853,0.0,0.8587,0.8587,0.8587,0.8587,0.8587,0.8587,0.8587,0.8587,0.8587,0.859,0.8609,0.6991,0.4025,0.1209,0.0,0.0,0.0,0.0,0.0,0.0,0.0,0.0,1.9366,1.9366,1.9366,1.9366,1.9243,1.9004,1.8765,1.851,1.8233,1.7997,1.7845,1.7847,1.801,1.7883,0.0,1.7787,1.7787,1.7787,1.7655,1.807,1.8294,1.8161,1.8331,1.8294,1.8153,1.8153,0.0,1.8161,1.8808,1.9086,1.9108,1.9108,1.906,1.9078,1.9078,1.9078,1.9078,1.9078,1.9078,1.9078,1.9078,1.9078,1.9078,1.9078,1.9163,1.8871,1.6697,1.3726,1.0663,1.0707,1.0721,1.0721,1.0721,1.0721,1.0721,1.0721,1.0721,1.0721,1.0721,1.0721,1.0721,1.0721,1.0721,1.0721,1.0721,1.0721,1.0721,1.0721,1.0721,1.0721,1.0721,1.0721,1.0721,1.0721,1.0721,1.0721,1.0721,0.0,0.0,0.0,0.0,0.0,0.0,1.0721,1.0588,0.0,0.0,0.0,0.0,0.0,0.0,0.9386,0.8987,0.872,0.8587,0.8587,0.8587,0.8587,0.8587,0.8587,0.8587,0.8587,0.8587,0.859,0.8606,0.7529,0.5638,0.1611,0.0,0.0,0.0,0.0,0.0,0.0,0.0,0.0,1.9366,1.9366,1.9372,0.0,1.9399,1.9166,1.8589,1.8695,1.8621,1.8021,1.8131,1.83,1.8318,1.8318,1.833,1.8348,0.0,0.0,1.8024,1.8177,1.8318,1.8318,1.8477,1.8483,1.8348,1.8889,1.915,1.9123,1.9097,1.9078,1.9078,1.9078,1.9078,1.9078,1.9078,1.9078,1.9078,1.9078,1.9078,1.9078,1.9078,1.9078,1.9078,1.9078,1.9078,1.8407,1.3193,1.108,1.0702,1.0677,1.0717,1.0721,1.0721,1.0721,1.0721,1.0721,1.0721,1.0721,1.0721,1.0721,1.0721,1.0721,1.0721,1.0721,1.0721,1.0721,1.0721,1.0721,1.0721,1.0721,1.0721,1.0721,1.0721,1.0721,1.0721,1.0721,1.0721,0.0,0.0,0.0,0.0,0.0,1.0721,1.0721,1.0721,0.0,0.0,0.0,0.0,0.0,0.9389,0.9661,0.9253,0.8851,0.8587,0.8587,0.8587,0.8587,0.8587,0.8587,0.8587,0.8587,0.8587,0.859,0.8606,0.8614,0.8208,0.2819,0.0537,0.0269,0.0135,0.0,0.0,0.0,0.0,0.0,0.0,0.0,1.9432,1.9659,1.9463,1.9298,1.9393,1.8993,1.8666,1.8545,1.8368,1.8366,1.8571,1.8595,1.8674,1.8873,1.8523,1.8294,1.8287,1.8475,1.8595,1.8595,1.8782,1.8891,1.8891,1.903,1.9066,1.9121,1.9048,1.9078,1.9078,1.9078,1.9078,1.9078,1.9078,1.9078,1.9078,1.9078,1.9078,1.9078,1.9078,1.9078,1.9078,1.9078,1.912,1.8917,1.7562,1.4335,1.075,1.0646,1.0683,1.0721,1.0721,1.0721,1.0721,1.0721,1.0721,1.0721,1.0721,1.0721,1.0721,1.0721,1.0721,1.0721,1.0721,1.0721,1.0721,1.0721,1.0721,1.0721,1.0721,1.0721,1.0721,1.0721,1.0721,1.0721,1.0721,1.0721,0.0,0.0,1.0721,1.0721,1.0721,1.0721,1.0588,0.0,0.0,0.0,1.0326,1.0057,0.9924,0.9661,0.9123,0.872,0.8587,0.8587,0.8587,0.8587,0.8587,0.8587,0.8587,0.8587,0.8587,0.8587,0.8592,0.8603,0.848,0.7125,0.5237,0.3087,0.0806,0.0,0.0,0.0,0.0,0.0,1.9733,1.9766,1.9813,1.9967,1.988,1.9693,1.9479,1.9246,1.9087,1.871,1.8696,1.8704,1.8849,1.8861,1.8921,1.906,1.8813,1.865,1.865,1.8782,1.8861,1.8861,1.9,1.9078,1.9078,1.9078,1.9078,1.9078,1.9078,1.9078,1.9078,1.9078,1.9078,1.9078,1.9078,1.9078,1.9078,1.9078,1.9078,1.9078,1.9078,1.9078,1.9078,1.9078,1.9108,1.9163,1.9076,1.7185,1.4092,1.153,1.2385,1.4077,1.149,1.068,1.0687,1.0714,1.0721,1.0721,1.0721,1.0721,1.0721,1.0721,1.0721,1.0721,1.0721,1.0721,1.0721,1.0721,1.0721,1.0721,1.0721,1.0721,1.0721,1.0721,1.0721,1.0721,1.0721,1.0721,1.0721,1.0721,1.0721,1.0721,1.0721,1.0721,1.0588,1.0455,1.0455,0.0,1.0455,1.0323,1.006,0.9664,0.9259,0.8989,0.8587,0.8587,0.8587,0.8587,0.8587,0.8587,0.8587,0.8587,0.8587,0.8587,0.8587,0.8592,0.8603,0.8611,0.7665,0.6044,0.4568,0.2284,0.0,0.0,0.0,0.0,2.0187,2.0234,2.0247,2.0294,2.0179,2.007,1.962,1.9591,1.95,1.8866,1.8933,1.9078,1.9078,1.9078,1.9078,1.9078,1.9078,1.9078,1.9078,1.9078,1.9078,1.9078,1.9078,1.9078,1.9078,1.9078,1.9078,1.9078,1.9078,1.9078,1.9078,1.9078,1.9078,1.9078,1.9078,1.9078,1.9078,1.9078,1.9078,1.9078,1.9078,1.9078,1.9078,1.9078,1.9078,1.9084,1.904,1.9082,1.8395,1.3618,1.5173,1.8154,1.2517,1.0636,1.0646,1.0704,1.0721,1.0721,1.0721,1.0721,1.0721,1.0721,1.0721,1.0721,1.0721,1.0721,1.0721,1.0721,1.0721,1.0721,1.0721,1.0721,1.0721,1.0721,1.0721,1.0721,1.0721,0.0,1.0721,1.0721,1.0721,1.0721,1.0721,1.0721,1.0721,1.0721,1.0721,1.0721,1.0721,1.0455,1.006,0.9794,0.9661,0.9259,0.8587,0.8587,0.8587,0.8587,0.8587,0.8587,0.8587,0.8587,0.8587,0.8587,0.8587,0.8587,0.859,0.8603,0.8611,0.8611,0.8622,0.5647,0.1209,0.0269,0.0,0.0,2.0227,2.0234,2.0307,2.0568,2.0367,2.0198,2.0439,1.9998,1.9515,1.9515,1.9304,1.9078,1.9078,1.9078,1.9078,1.9078,1.9078,1.9078,1.9078,1.9078,1.9078,1.9078,1.9078,1.9078,1.9078,1.9078,1.9078,1.9078,1.9078,1.9078,1.9078,1.9078,1.9078,1.9078,1.9078,1.9078,1.9078,1.9078,1.9078,1.9078,1.9078,1.9078,1.9078,1.9078,1.9078,1.9078,1.909,1.9151,1.8953,1.8119,1.834,1.8154,1.2517,1.0636,1.0646,1.0704,1.0721,1.0721,1.0721,1.0721,1.0721,1.0721,1.0721,1.0721,1.0721,1.0721,1.0721,1.0721,1.0721,1.0721,1.0721,1.0721,1.0721,1.0721,1.0721,1.0721,1.0721,0.0,1.0721,1.0721,1.0721,1.0721,1.0721,1.0721,1.0721,1.0721,1.0721,1.0721,1.0721,1.0588,1.0455,1.019,0.9519,0.8987,0.8587,0.8587,0.8587,0.8587,0.8587,0.8587,0.8587,0.8587,0.8587,0.8587,0.8587,0.8587,0.8587,0.859,0.8592,0.8592,0.8611,0.8079,0.6728,0.1746,0.0,0.0,2.0675,2.0702,2.0748,2.0882,2.079,2.0711,2.0589,2.0348,2.0094,1.9845,1.9584,1.9322,1.9322,1.92,1.9078,1.9078,1.9078,1.9078,1.9078,1.9078,1.9078,1.9078,1.9078,1.9078,1.9078,1.9078,1.9078,1.9078,1.9078,1.9078,1.9078,1.9078,1.9078,1.9078,1.9078,1.9078,1.9078,1.9078,1.9078,1.9078,1.9078,1.9078,1.9078,1.9078,1.9078,1.9078,1.9078,1.9102,1.9151,1.9076,1.913,1.8358,1.4295,1.2676,1.201,1.0975,1.0721,1.0721,1.0721,1.0721,1.0721,1.0721,1.0721,1.0721,1.0721,1.0721,1.0721,1.0721,1.0721,1.0721,1.0721,1.0721,1.0721,1.0721,1.0721,0.0,1.0721,1.0721,1.0721,1.0721,1.0721,1.0721,1.0721,1.0721,1.0721,1.0721,1.0721,1.0721,1.0721,1.0721,1.0588,1.0455,0.9519,0.8984,0.8587,0.8587,0.8587,0.8587,0.8587,0.8587,0.8587,0.8587,0.8587,0.8587,0.8587,0.8587,0.8587,0.8587,0.8587,0.859,0.8598,0.8611,0.8084,0.3894,0.1344,0.0,2.1069,2.1109,2.1109,2.1109,2.1109,2.0982,2.0736,2.0609,2.0482,2.0234,1.9973,1.9705,1.9577,1.9322,1.92,1.9078,1.9078,1.9078,1.9078,1.9078,1.9078,1.9078,1.9078,1.9078,1.9078,1.9078,1.9078,1.9078,1.9078,1.9078,1.9078,1.9078,1.9078,1.9078,1.9078,1.9078,1.9078,1.9078,1.9078,1.9078,1.9078,1.9078,1.9078,1.9078,1.9078,1.9078,1.9078,1.9078,1.9084,1.9163,1.8225,1.6732,1.4674,1.3906,1.3384,1.1251,1.0721,1.0721,1.0721,1.0721,1.0721,1.0721,1.0721,1.0721,1.0721,1.0721,1.0721,1.0721,1.0721,1.0721,1.0721,1.0721,1.0721,1.0721,0.0,1.0721,1.0721,1.0721,1.0721,1.0721,1.0721,1.0721,1.0721,1.0721,1.0721,1.0721,1.0721,1.0721,1.0721,1.0721,1.0588,1.0455,0.9655,0.8987,0.8587,0.8587,0.8587,0.8587,0.8587,0.8587,0.8587,0.8587,0.8587,0.8587,0.8587,0.8587,0.8587,0.8587,0.8587,0.8587,0.8587,0.8603,0.8218,0.5371,0.2417,0.0,2.1109,2.1109,2.1109,2.1109,2.1109,2.1109,2.1109,2.0862,2.0609,2.0609,2.0234,1.9973,1.9577,1.9577,1.945,1.9078,1.9078,1.9078,1.9078,1.9078,1.9078,1.9078,1.9078,1.9078,1.9078,1.9078,1.9078,1.9078,1.9078,1.9078,1.9078,1.9078,1.9078,1.9078,1.9078,1.9078,1.9078,1.9078,1.9078,1.9078,1.9078,1.9078,1.9078,1.9078,1.9078,1.9078,1.9078,1.9078,1.9078,1.9084,1.5653,1.1253,1.1066,1.2763,1.4218,1.1523,1.0721,1.0721,1.0721,1.0721,1.0721,1.0721,1.0721,1.0721,1.0721,1.0721,1.0721,1.0721,1.0721,1.0721,1.0721,1.0721,1.0721,1.0721,0.0,0.0,1.0721,1.0721,1.0721,1.0721,1.0721,1.0721,1.0721,1.0721,1.0721,1.0721,1.0721,1.0721,1.0721,1.0721,1.0455,0.9794,0.9661,0.9259,0.8587,0.8587,0.8587,0.8587,0.8587,0.8587,0.8587,0.8587,0.8587,0.8587,0.8587,0.8587,0.8587,0.8587,0.8587,0.8587,0.8587,0.8598,0.8208,0.5371,0.2416,0.0,2.1109,2.1109,2.1109,2.1109,2.1109,2.1109,2.1109,2.0982,2.0862,2.0862,2.0609,2.0354,2.0221,1.9839,1.9577,1.945,1.92,1.9078,1.9078,1.9078,1.9078,1.9078,1.9078,1.9078,1.9078,1.9078,1.9078,1.9078,1.9078,1.9078,1.9078,1.9078,1.9078,1.9078,1.9078,1.9078,1.9078,1.9078,1.9078,1.9078,1.9078,1.9078,1.9078,1.9078,1.9078,1.9078,1.9078,1.9078,1.9084,1.9145,1.7692,1.5284,1.1799,1.1454,1.2064,1.0989,1.0721,1.0721,1.0721,1.0721,1.0721,1.0721,1.0721,1.0721,1.0721,1.0721,1.0721,1.0721,1.0721,1.0721,1.0721,1.0721,1.0721,1.0721,0.0,1.0721,1.0721,1.0721,1.0721,1.0721,1.0721,1.0721,1.0721,1.0721,1.0721,1.0721,1.0721,1.0721,1.0721,1.0721,1.0455,0.9664,0.9661,0.9392,0.8587,0.8587,0.8587,0.8587,0.8587,0.8587,0.8587,0.8587,0.8587,0.8587,0.8587,0.8587,0.8587,0.8587,0.8587,0.8587,0.8587,0.8598,0.8478,0.7395,0.4028,0.0,2.1109,2.1109,2.1109,2.1109,2.1109,2.1109,2.1109,2.1109,2.1109,2.1109,2.0856,2.0736,2.0609,2.0221,1.9833,1.9711,1.9456,1.92,1.92,1.9206,1.9078,1.9078,1.9078,1.9078,1.9078,1.9078,1.9078,1.9078,1.9078,1.9078,1.9078,1.9078,1.9078,1.9078,1.9078,1.9078,1.9078,1.9078,1.9078,1.9078,1.9078,1.9078,1.9078,1.9078,1.9078,1.9078,1.9078,1.9078,1.9084,1.9157,1.9124,1.8097,1.2457,1.0761,1.0697,1.0714,1.0721,1.0721,1.0721,1.0721,1.0721,1.0721,1.0721,1.0721,1.0721,1.0721,1.0721,1.0721,1.0721,1.0721,1.0721,1.0721,1.0721,1.0721,1.0721,1.0721,1.0721,1.0721,1.0721,1.0721,1.0721,1.0721,1.0721,1.0721,1.0721,1.0721,1.0721,1.0721,1.0721,1.0721,1.0455,0.9664,0.9661,0.9392,0.8587,0.8587,0.8587,0.8587,0.8587,0.8587,0.8587,0.8587,0.8587,0.8587,0.8587,0.8587,0.8587,0.8587,0.8587,0.8587,0.8587,0.8595,0.8606,0.8611,0.6048,0.2417,2.1109,2.1109,2.1109,2.1109,2.1109,2.1109,2.1109,2.1109,2.1109,2.1109,2.1109,2.0982,2.0609,2.0609,2.0488,2.0106,1.9839,1.9577,1.9577,1.9328,1.9078,1.9078,1.9078,1.9078,1.9078,1.9078,1.9078,1.9078,1.9078,1.9078,1.9078,1.9078,1.9078,1.9078,1.9078,1.9078,1.9078,1.9078,1.9078,1.9078,1.9078,1.9078,1.9078,1.9078,1.9078,1.9078,1.9078,1.9078,1.9078,1.9078,1.9138,1.8102,1.258,1.0795,1.0646,1.0704,1.0721,1.0721,1.0721,1.0721,1.0721,1.0721,1.0721,1.0721,1.0721,1.0721,1.0721,1.0721,1.0721,1.0721,1.0721,1.0721,1.0721,1.0721,1.0721,1.0721,1.0721,1.0721,1.0721,1.0721,1.0721,1.0721,1.0721,1.0721,1.0721,1.0721,1.0721,1.0721,1.0721,1.0721,1.0455,0.9661,0.9661,0.9392,0.8587,0.8587,0.8587,0.8587,0.8587,0.8587,0.8587,0.8587,0.8587,0.8587,0.8587,0.8587,0.8587,0.8587,0.8587,0.8587,0.8587,0.8587,0.859,0.8609,0.8614,0.7801,2.1109,2.1109,2.1109,2.1109,2.1109,2.1109,2.1109,2.1109,2.1109,2.1109,2.1109,2.1109,2.0982,2.0482,2.0234,2.0106,1.959,1.92,1.92,1.9206,1.9078,1.9078,1.9078,1.9078,1.9078,1.9078,1.9078,1.9078,1.9078,1.9078,1.9078,1.9078,1.9078,1.9078,1.9078,1.9078,1.9078,1.9078,1.9078,1.9078,1.9078,1.9078,1.9078,1.9078,1.9078,1.9078,1.9078,1.9078,1.9078,1.9078,1.9138,1.8824,1.7071,1.384,1.0639,1.0656,1.069,1.0721,1.0721,1.0721,1.0721,1.0721,1.0721,1.0721,1.0721,1.0721,1.0721,1.0721,1.0721,1.0721,1.0721,1.0721,1.0721,1.0721,1.0721,1.0721,1.0721,1.0721,1.0721,1.0721,1.0721,1.0721,1.0721,1.0721,1.0721,1.0721,1.0721,1.0721,1.0721,1.0721,1.0455,1.006,0.9794,0.9525,0.8984,0.872,0.8587,0.8587,0.8587,0.8587,0.8587,0.8587,0.8587,0.8587,0.8587,0.8587,0.8587,0.8587,0.8587,0.8587,0.8587,0.8587,0.8587,0.8592,0.8603,0.8347,2.1109,2.1109,2.1109,2.1109,2.1109,2.1109,2.1109,2.1109,2.1109,2.1109,2.1109,2.1109,2.0856,2.0482,2.0234,2.0106,1.959,1.92,1.9078,1.9078,1.9078,1.9078,1.9078,1.9078,1.9078,1.9078,1.9078,1.9078,1.9078,1.9078,1.9078,1.9078,1.9078,1.9078,1.9078,1.9078,1.9078,1.9078,1.9078,1.9078,1.9078,1.9078,1.9078,1.9078,1.9078,1.9078,1.9078,1.9078,1.9078,1.9078,1.9114,1.9058,1.9166,1.6702,1.3561,1.1297,1.066,1.069,1.0714,1.0721,1.0721,1.0721,1.0721,1.0721,1.0721,1.0721,1.0721,1.0721,1.0721,1.0721,1.0721,1.0721,1.0721,1.0721,1.0721,1.0721,1.0721,1.0721,1.0721,1.0721,1.0721,1.0721,1.0721,1.0721,1.0721,1.0721,1.0721,1.0721,1.0721,1.0721,1.0588,1.0193,0.9927,0.9525,0.9117,0.872,0.8587,0.8587,0.8587,0.8587,0.8587,0.8587,0.8587,0.8587,0.8587,0.8587,0.8587,0.8587,0.8587,0.8587,0.8587,0.8587,0.8587,0.8587,0.8595,0.8606,2.1109,2.1109,2.1109,2.1109,2.1109,2.1109,2.1109,2.1109,2.1109,2.1109,2.1109,2.0982,2.0609,2.0482,2.0354,2.0106,1.9711,1.945,1.9072,1.9078,1.9078,1.9078,1.9078,1.9078,1.9078,1.9078,1.9078,1.9078,1.9078,1.9078,1.9078,1.9078,1.9078,1.9078,1.9078,1.9078,1.9078,1.9078,1.9078,1.9078,1.9078,1.9078,1.9078,1.9078,1.9078,1.9078,1.9078,1.9078,1.9078,1.9078,1.9078,1.909,1.9052,1.9088,1.8136,1.3025,1.1297,1.1045,1.0969,1.085,1.085,1.0721,1.0721,1.0721,1.0721,1.0721,1.0721,1.0721,1.0721,1.0721,1.0721,1.0721,1.0721,1.0721,1.0721,1.0721,1.0721,1.0721,1.0721,1.0721,1.0721,1.0721,1.0721,1.0721,1.0721,1.0721,1.0721,1.0721,1.0721,1.0721,1.0588,1.019,0.9927,0.9525,0.9117,0.8853,0.8587,0.8587,0.8587,0.8587,0.8587,0.8587,0.8587,0.8587,0.8587,0.8587,0.8587,0.8587,0.8587,0.8587,0.8587,0.8587,0.8587,0.8587,0.8587,0.859,2.1109,2.1109,2.1109,2.1109,2.1109,2.1109,2.1109,2.1109,2.0982,2.0729,2.0736,2.0609,2.0234,1.9966,1.9839,1.9711,1.9456,1.92,1.9078,1.9078,1.9078,1.9078,1.9078,1.9078,1.9078,1.9078,1.9078,1.9078,1.9078,1.9078,1.9078,1.9078,1.9078,1.9078,1.9078,1.9078,1.9078,1.9078,1.9078,1.9078,1.9078,1.9078,1.9078,1.9078,1.9078,1.9078,1.9078,1.9078,1.9078,1.9078,1.9078,1.9078,1.9102,1.9163,1.8824,1.7596,1.5709,1.3713,1.268,1.2293,1.2029,1.0982,1.0721,1.0721,1.0721,1.0721,1.0721,1.0721,1.0721,1.0721,1.0721,1.0721,1.0721,1.0721,1.0721,1.0721,1.0721,1.0721,1.0721,1.0721,1.0721,1.0721,1.0721,1.0721,1.0721,1.0721,1.0721,1.0721,1.0721,1.0721,1.0721,1.0588,1.0326,0.9927,0.9525,0.912,0.8853,0.8587,0.8587,0.8587,0.8587,0.8587,0.8587,0.8587,0.8587,0.8587,0.8587,0.8587,0.8587,0.8587,0.8587,0.8587,0.8587,0.8587,0.8587,0.832,2.1109,2.1109,2.1109,2.1109,2.1109,2.1109,2.0862,2.0862,2.0729,2.0361,2.0361,2.0227,1.9845,1.9711,1.9577,1.9328,1.92,1.9078,1.9078,1.9078,1.9078,1.9078,1.9078,1.9078,1.9078,1.9078,1.9078,1.9078,1.9078,1.9078,1.9078,1.9078,1.9078,1.9078,1.9078,1.9078,1.9078,1.9078,1.9078,1.9078,1.9078,1.9078,1.9078,1.9078,1.9078,1.9078,1.9078,1.9078,1.9078,1.9078,1.9078,1.9078,1.9078,1.9108,1.9163,1.9076,1.8007,1.6525,1.4945,1.4141,1.3468,1.2029,1.1637,1.1505,1.085,1.0721,1.0721,1.0721,1.0721,1.0721,1.0721,1.0721,1.0721,1.0721,1.0721,1.0721,1.0721,1.0721,1.0721,1.0721,1.0721,1.0721,1.0721,1.0721,1.0721,1.0721,1.0721,1.0721,1.0721,1.0721,1.0721,1.0721,1.0323,1.006,0.9927,0.9386,0.8984,0.8851,0.872,0.8587,0.8587,0.8587,0.8587,0.8587,0.8587,0.8587,0.8587,0.8587,0.8587,0.8587,0.8587,0.8587,0.8587,0.8587,0.8592,0.8464,2.1109,2.1109,2.1109,2.1109,2.1109,2.0982,2.0736,2.0736,2.0482,2.0106,2.0106,1.9973,1.9577,1.945,1.945,1.9072,1.9078,1.9078,1.9078,1.9078,1.9078,1.9078,1.9078,1.9078,1.9078,1.9078,1.9078,1.9078,1.9078,1.9078,1.9078,1.9078,1.9078,1.9078,1.9078,1.9078,1.9078,1.9078,1.9078,1.9078,1.9078,1.9078,1.9078,1.9078,1.9078,1.9078,1.9078,1.9078,1.9078,1.9078,1.9078,1.9078,1.9078,1.9078,1.909,1.9046,1.907,1.8806,1.7228,1.627,1.5318,1.3744,1.3083,1.2553,1.1376,1.085,1.0721,1.0721,1.0721,1.0721,1.0721,1.0721,1.0721,1.0721,1.0721,1.0721,1.0721,1.0721,1.0721,1.0721,1.0721,1.0721,1.0721,1.0721,1.0721,1.0721,1.0721,1.0721,1.0721,1.0721,1.0721,1.0721,1.0455,1.0326,1.0193,0.9522,0.9117,0.9117,0.872,0.8587,0.8587,0.8587,0.8587,0.8587,0.8587,0.8587,0.8587,0.8587,0.8587,0.8587,0.8587,0.8587,0.8587,0.8587,0.8598,0.8609,2.1109,2.1109,2.1109,2.1109,2.1109,2.1109,2.0982,2.0982,2.0862,2.0234,2.0106,1.9851,1.92,1.92,1.92,1.9078,1.9078,1.9078,1.9078,1.9078,1.9078,1.9078,1.9078,1.9078,1.9078,1.9078,1.9078,1.9078,1.9078,1.9078,1.9078,1.9078,1.9078,1.9078,1.9078,1.9078,1.9078,1.9078,1.9078,1.9078,1.9078,1.9078,1.9078,1.9078,1.9078,1.9078,1.9078,1.9078,1.9078,1.9078,1.9078,1.9078,1.9078,1.9078,1.9078,1.909,1.9096,1.898,1.8806,1.8682,1.8148,1.6296,1.4291,1.2684,1.2557,1.1505,1.0721,1.0721,1.0721,1.0721,1.0721,1.0721,1.0721,1.0721,1.0721,1.0721,1.0721,1.0721,1.0721,1.0721,1.0721,1.0721,1.0721,1.0721,1.0721,1.0721,1.0721,1.0721,1.0721,1.0721,1.0721,1.0721,1.0721,1.0455,1.0193,0.9794,0.9389,0.9117,0.872,0.8587,0.8587,0.8587,0.8587,0.8587,0.8587,0.8587,0.8587,0.8587,0.8587,0.8587,0.8587,0.8587,0.8587,0.8587,0.859,0.859,2.1109,2.1109,2.1109,2.1109,2.1109,2.0982,2.0856,2.0856,2.0602,1.9973,1.9839,1.9711,1.9456,1.9328,1.9328,1.9072,1.9078,1.9078,1.9078,1.9078,1.9078,1.9078,1.9078,1.9078,1.9078,1.9078,1.9078,1.9078,1.9078,1.9078,1.9078,1.9078,1.9078,1.9078,1.9078,1.9078,1.9078,1.9078,1.9078,1.9078,1.9078,1.9078,1.9078,1.9078,1.9078,1.9078,1.9078,1.9078,1.9078,1.9078,1.9078,1.9078,1.9078,1.9078,1.9078,1.9078,1.9078,1.9084,1.9126,1.9138,1.8887,1.8012,1.652,1.4768,1.321,1.2293,1.1637,1.085,1.0721,1.0721,1.0721,1.0721,1.0721,1.0721,1.0721,1.0721,1.0721,1.0721,1.0721,1.0721,1.0721,1.0721,1.0721,1.0721,1.0721,1.0721,1.0721,1.0721,1.0721,1.0721,1.0721,1.0721,1.0721,1.0588,1.0455,1.0193,0.9791,0.9389,0.912,0.8717,0.8587,0.8587,0.8587,0.8587,0.8587,0.8587,0.8587,0.8587,0.8587,0.8587,0.8587,0.8587,0.8587,0.8587,0.8587,0.8587]}]]